[[{"header":{"parameterUnit":"m.s-1","parameterCategory":1,"la1":31.0,"la2":29.5877,"lo1":-88.7671,"lo2":-86.6584,"dy":0.0162,"dx":0.0185,"nx":115,"ny":88,"refTime":"2023-10-08T18:00:00:Z","depth":0,"parameterNumber":2,"parameterNumberName":"U-component_of_WINDS"},"data":[0.0,0.0,0.0,0.0,0.0,0.0,0.0,0.0,0.0,0.0,0.0,0.0,0.0,0.0,0.0,0.0,0.0,0.0,0.0,0.0,0.0,0.0,0.0,0.0,0.0,0.0,0.0,0.0,0.0,0.0,0.0,0.0,0.0,0.0,0.0,0.0,0.0,0.0,0.0,0.0,0.0,0.0,0.0,0.0,0.0,0.0,0.0,0.0,0.0,0.0,0.0,0.0,0.0,0.0,0.0,0.0,0.0,0.0,0.0,0.0,0.0,0.0,0.0,0.0,0.0,0.0,0.0,0.0,0.0,0.0,0.0,0.0,0.0,0.0,0.0,0.0,0.0,0.0,0.0,0.0,0.0,0.0,0.0,0.0,0.0,0.0,0.0,0.0,0.0,0.0,0.0,0.0,0.0,0.0,0.0,0.0,0.0,0.0,0.0,0.0,0.0,0.0,0.0,0.0,0.0,0.0,0.0,0.0,0.0,0.0,0.0,0.0,0.0,0.0,0.0,0.0,0.0,0.0,0.0,0.0,0.0,0.0,0.0,0.0,0.0,0.0,0.0,0.0,0.0,0.0,0.0,0.0,0.0,0.0,0.0,0.0,0.0,0.0,0.0,0.0,0.0,0.0,0.0,0.0,0.0,0.0,0.0,0.0,0.0,0.0,0.0,0.0,0.0,0.0,0.0,0.0,0.0,0.0,0.0,0.0,0.0,0.0,0.0,0.0,0.0,0.0,0.0,0.0,0.0,0.0,0.0,0.0,0.0,0.0,0.0,0.0,0.0,0.0,0.0,0.0,0.0,0.0,0.0,0.0,0.0,0.0,0.0,0.0,0.0,0.0,0.0,0.0,0.0,0.0,0.0,0.0,0.0,0.0,0.0,0.0,0.0,0.0,0.0,0.0,0.0,0.0,0.0,0.0,0.0,0.0,0.0,0.0,0.0,0.0,0.0,0.0,0.0,0.0,0.0,0.0,0.0,0.0,0.0,0.0,0.0,0.0,0.0,0.0,0.0,0.0,0.0,0.0,0.0,0.0,0.0,0.0,0.0,0.0,0.0,0.0,0.0,0.0,0.0,0.0,0.0,0.0,0.0,0.0,0.0,0.0,0.0,0.0,0.0,0.0,0.0,0.0,0.0,0.0,0.0,0.0,0.0,0.0,0.0,0.0,0.0,0.0,0.0,0.0,0.0,0.0,0.0,0.0,0.0,0.0,0.0,0.0,0.0,0.0,0.0,0.0,0.0,0.0,0.0,0.0,0.0,0.0,0.0,0.0,0.0,0.0,0.0,0.0,0.0,0.0,0.0,0.0,0.0,0.0,0.0,0.0,0.0,0.0,0.0,0.0,0.0,0.0,0.0,0.0,0.0,0.0,0.0,0.0,0.0,0.0,0.0,0.0,0.0,0.0,0.0,0.0,0.0,0.0,0.0,0.0,0.0,0.0,0.0,0.0,0.0,0.0,0.0,0.0,0.0,0.0,0.0,0.0,0.0,0.0,0.0,0.0,0.0,0.0,0.0,0.0,0.0,0.0,0.0,0.0,0.0,0.0,0.0,0.0,0.0,0.0,0.0,0.0,0.0,0.0,0.0,0.0,0.0,0.0,0.0,0.0,0.0,0.0,0.0,0.0,0.0,0.0,0.0,0.0,0.0,0.0,0.0,0.0,0.0,0.0,0.0,0.0,0.0,0.0,0.0,0.0,0.0,0.0,0.0,0.0,0.0,0.0,0.0,0.0,0.0,0.0,0.0,0.0,0.0,0.0,0.0,0.0,0.0,0.0,0.0,0.0,0.0,0.0,0.0,0.0,0.0,0.0,0.0,0.0,0.0,0.0,0.0,0.0,0.0,0.0,0.0,0.0,0.0,0.0,0.0,0.0,0.0,0.0,0.0,0.0,0.0,0.0,0.0,0.0,0.0,0.0,0.0,0.0,0.0,0.0,0.0,0.0,0.0,0.0,0.0,0.0,0.0,0.0,0.0,0.0,0.0,0.0,0.0,0.0,0.0,0.0,0.0,0.0,0.0,0.0,0.0,0.0,0.0,0.0,0.0,0.0,0.0,0.0,0.0,0.0,0.0,0.0,0.0,0.0,0.0,0.0,0.0,0.0,0.0,0.0,0.0,0.0,0.0,0.0,0.0,0.0,0.0,0.0,0.0,0.0,0.0,0.0,0.0,0.0,0.0,0.0,0.0,0.0,0.0,0.0,0.0,0.0,0.0,0.0,0.0,0.0,0.0,0.0,0.0,0.0,0.0,0.0,0.0,0.0,0.0,0.0,0.0,0.0,0.0,0.0,0.0,0.0,0.0,0.0,0.0,0.0,0.0,0.0,0.0,0.0,0.0,0.0,0.0,0.0,0.0,0.0,0.0,0.0,0.0,0.0,0.0,0.0,0.0,0.0,0.0,0.0,0.0,0.0,0.0,0.0,0.0,0.0,0.0,0.0,0.0,0.0,0.0,0.0,0.0,0.0,0.0,0.0,0.0,0.0,0.0,0.0,0.0,0.0,0.0,0.0,0.0,0.0,0.0,0.0,0.0,0.0,0.0,0.0,0.0,0.0,0.0,0.0,0.0,0.0,0.0,0.0,0.0,0.0,0.0,0.0,0.0,0.0,0.0,0.0,0.0,0.0,0.0,0.0,0.0,0.0,0.0,0.0,0.0,0.0,0.0,0.0,0.0,0.0,0.0,0.0,0.0,0.0,0.0,0.0,0.0,0.0,0.0,0.0,0.0,0.0,0.0,0.0,0.0,0.0,0.0,0.0,0.0,0.0,0.0,0.0,0.0,0.0,0.0,0.0,0.0,0.0,0.0,0.0,0.0,0.0,0.0,0.0,0.0,0.0,0.0,0.0,0.0,0.0,0.0,0.0,0.0,0.0,0.0,0.0,0.0,0.0,0.0,0.0,0.0,0.0,0.0,0.0,0.0,0.0,0.0,0.0,0.0,0.0,0.0,0.0,0.0,0.0,0.0,0.0,0.0,0.0,0.0,0.0,0.0,0.0,0.0,0.0,0.0,0.0,0.0,0.0,0.0,0.0,0.0,0.0,0.0,0.0,0.0,0.0,0.0,0.0,0.0,0.0,0.0,0.0,0.0,0.0,0.0,0.0,0.0,0.0,0.0,0.0,0.0,0.0,0.0,0.0,0.0,0.0,0.0,0.0,0.0,0.0,0.0,0.0,0.0,0.0,0.0,0.0,0.0,0.0,0.0,0.0,0.0,0.0,0.0,0.0,0.0,0.0,0.0,0.0,0.0,0.0,0.0,0.0,0.0,0.0,0.0,0.0,0.0,0.0,0.0,0.0,0.0,0.0,0.0,0.0,0.0,0.0,0.0,0.0,0.0,0.0,0.0,0.0,0.0,0.0,0.0,0.0,0.0,0.0,0.0,0.0,0.0,0.0,0.0,0.0,0.0,0.0,0.0,0.0,0.0,0.0,0.0,0.0,0.0,0.0,0.0,0.0,0.0,0.0,0.0,0.0,0.0,0.0,0.0,0.0,0.0,0.0,0.0,0.0,0.0,0.0,0.0,0.0,0.0,0.0,0.0,0.0,0.0,0.0,0.0,0.0,0.0,0.0,0.0,0.0,0.0,0.0,0.0,0.0,0.0,0.0,0.0,0.0,0.0,0.0,0.0,0.0,0.0,0.0,0.0,0.0,0.0,0.0,0.0,0.0,0.0,0.0,0.0,0.0,0.0,0.0,0.0,0.0,0.0,0.0,0.0,0.0,0.0,0.0,0.0,0.0,0.0,0.0,0.0,0.0,0.0,0.0,0.0,0.0,0.0,0.0,0.0,0.0,0.0,0.0,0.0,0.0,0.0,0.0,0.0,0.0,0.0,0.0,0.0,0.0,0.0,0.0,0.0,0.0,0.0,0.0,0.0,0.0,0.0,0.0,0.0,0.0,0.0,0.0,0.0,0.0,0.0,0.0,0.0,0.0,0.0,0.0,0.0,0.0,0.0,0.0,0.0,0.0,0.0,0.0,0.0,0.0,0.0,0.0,0.0,0.0,0.0,0.0,0.0,0.0,0.0,0.0,0.0,0.0,0.0,0.0,0.0,0.0,0.0,0.0,0.0,0.0,0.0,0.0,0.0,0.0,0.0,0.0,0.0,0.0,0.0,0.0,0.0,0.0,0.0,0.0,0.0,0.0,0.0,0.0,0.0,0.0,0.0,0.0,0.0,0.0,0.0,0.0,0.0,0.0,0.0,0.0,0.0,0.0,0.0,0.0,0.0,0.0,0.0,0.0,0.0,0.0,0.0,0.0,0.0,0.0,-0.352,0.0,0.0,0.0,0.0,0.0,0.0,0.0,0.0,0.0,0.0,0.0,0.0,0.0,0.0,0.0,0.0,0.0,0.0,0.0,0.0,0.0,0.0,0.0,0.0,0.0,0.0,0.0,0.0,0.0,0.0,0.0,0.0,0.0,0.0,0.0,0.0,0.0,0.0,0.0,0.0,0.0,0.0,0.0,0.0,0.0,0.0,0.0,0.0,0.0,0.0,0.0,0.0,0.0,0.0,0.0,0.0,0.0,0.0,0.0,0.0,0.0,0.0,0.0,0.0,0.0,0.0,0.0,0.0,0.0,0.0,0.0,0.0,0.0,0.0,0.0,0.0,0.0,0.0,0.0,0.0,0.0,0.0,0.0,0.0,0.0,0.0,0.0,0.0,0.0,0.0,0.0,0.0,0.0,0.0,0.0,0.0,0.0,0.0,0.0,0.0,0.0,0.0,0.0,0.0,0.0,0.0,0.0,0.0,0.0,0.0,0.1984,0.0259,-0.0422,-0.1243,-0.2233,0.0,0.0,0.0,0.0,0.0,0.0,0.0,0.0,0.0,0.0,0.0,0.0,0.0,0.0,0.0,0.0,0.0,0.0,0.0,0.0,0.0,0.0,0.0,0.0,0.0,0.0,0.0,0.0,0.0,0.0,0.0,0.0,0.0,0.0,0.0,0.0,0.0,0.0,0.0,0.0,0.0,0.0,0.0,0.0,0.0,0.0,0.0,0.0,0.0,0.0,0.0,0.0,0.0,0.0,0.0,0.0,0.0,0.0,0.0,0.0,0.0,0.0,0.0,0.0,0.0,0.0,0.0,0.0,0.0,0.0,0.0,0.0,0.0,0.0,0.0,0.0,0.0,0.0,0.0,0.0,0.0,0.0,0.0,0.0,0.0,0.0,0.0,0.0,0.0,0.0,0.0,0.0,0.0,0.0,0.0,0.0,0.0,0.0,0.0,0.0,0.0,0.0,0.0,0.0,0.0,0.0,0.0,0.0,0.0,0.0,0.0,0.0,0.197,0.0921,-0.0847,0.0,0.0,0.0,0.0,0.0,0.0,0.0,0.0,0.0,0.0,0.0,0.0,0.0,0.0,0.0,0.0,0.0,0.0,0.0,0.0,0.0,0.0,0.0,0.0,0.0,0.0,0.0,0.0,0.0,0.0,0.0,0.0,0.0,0.0,0.0,0.0,0.0,0.0,0.0,0.0,0.0,0.0,0.0,0.0,0.0,0.0,0.0,0.0,0.0,0.0,0.0,0.0,0.0,0.0,0.0,0.0,0.0,0.0,0.0,0.0,0.0,0.0,0.0,0.0,0.0,0.0,0.0,0.0,0.0,0.0,0.0,0.0,0.0,0.0,0.0,0.0,0.0,0.0,0.0,0.0,0.0,0.0,0.0,0.0,0.0,0.0,0.0,0.0,0.0,0.0,0.0,0.0,0.0,0.0,0.0,0.0,0.0,0.0,0.0,0.0,0.0,0.0,0.0,0.0,0.0,0.0,0.0,0.0,0.0,0.0,0.6328,0.3893,0.3479,0.0,0.0,0.0,0.0,0.0,0.0,0.0,0.0,0.0,0.0,0.0,0.0,0.0,0.0,0.0,0.0,0.0,0.0,0.0,0.0,0.0,0.0,0.0,0.0,0.0,0.0,0.0,0.0,0.0,0.0,0.0,0.0,0.0,0.0,0.0,0.0,0.0,0.0,0.0,0.0,0.0,0.0,0.0,0.0,0.0,0.0,0.0,0.0,0.0,0.0,0.0,0.0,0.0,0.0,0.0,0.0,0.0,0.0,0.0,0.0,0.0,0.0,0.0,0.0,0.0,0.0,0.0,0.0,0.0,0.0,0.0,0.0,0.0,0.0,0.0,0.0,0.0,0.0,0.0,0.0,0.0,0.0,0.0,0.0,0.0,0.0,0.0,0.0,0.0,0.0,0.0,0.0,0.0,0.0,0.0,0.0,0.0,0.0,0.0,0.0,0.0,0.0,0.0,0.0,0.0,0.0,0.0,0.0,0.0,0.0,0.0,0.0,0.7783,0.6058,0.45,0.287,0.0,0.0,0.0,0.0,0.0,0.0,0.0,0.0,0.0,0.0,0.0,0.0,0.0,0.0,0.0,0.0,0.0,0.0,0.0,0.0,0.0,0.0,0.0,0.0,0.0,0.0,0.0,0.0,0.0,0.0,0.0,0.0,0.0,0.0,0.0,0.0,0.0,0.0,0.0,0.0,0.0,0.0,0.0,0.0,0.0,0.0,0.0,0.0,0.0,0.0,0.0,0.0,0.0,0.0,0.0,0.0,0.0,0.0,0.0,0.0,0.0,0.0,0.0,0.0,0.0,0.0,0.0,0.0,0.0,0.0,0.0,0.0,0.0,0.0,0.0,0.0,0.0,0.0,0.0,0.0,0.0,0.0,0.0,0.0,0.0,0.0,0.0,0.0,0.0,0.0,0.0,0.0,0.0,0.0,0.0,0.0,0.0,0.0,0.0,0.0,0.0,0.0,0.0,0.0,0.0,0.0,0.0,0.0,0.0,0.0,0.9143,0.8779,0.7518,0.5497,0.3781,0.2465,0.0,0.0,0.0,0.0,0.0,0.0,0.0,0.0,0.0,0.0,0.0,0.0,0.0,0.0,0.0,0.0,0.0,0.0,0.0,0.0,0.0,0.0,0.0,0.0,0.0,0.0,0.0,0.0,0.0,0.0,0.0,0.0,0.0,0.0,0.0,0.0,0.0,0.0,0.0,0.0,0.0,0.0,0.0,0.0,0.0,0.0,0.0,0.0,0.0,0.0,0.0,0.0,0.0,0.0,0.0,0.0,0.0,0.0,0.0,0.0,0.0,0.0,0.0,0.0,0.0,0.0,0.0,0.0,0.0,0.0,0.0,0.0,0.0,0.0,0.0,0.0,0.0,0.0,0.0,0.0,0.0,0.0,0.0,0.0,0.0,0.0,0.0,0.0,0.0,0.0,0.0,0.0,0.0,0.0,0.0,0.0,0.0,0.0,0.0,0.0,0.0,0.0,0.0,0.0,0.0,0.0,0.0,0.0,0.9352,0.9605,0.9172,0.7926,0.6589,0.5216,0.0,0.0,0.0,0.0,0.0,0.0,0.0,0.0,0.0,0.0,0.0,0.0,0.0,0.0,0.0,0.0,0.0,0.0,0.0,0.0,0.0,0.0,0.0,0.0,0.0,0.0,0.0,0.0,0.0,0.0,0.0,0.0,0.0,0.0,0.0,0.0,0.0,0.0,0.0,0.0,0.0,0.0,0.0,0.0,0.0,0.0,0.0,0.0,0.0,0.0,0.0,0.0,0.0,0.0,0.0,0.0,0.0,0.0,0.0,0.0,0.0,0.0,0.0,0.0,0.0,0.0,0.0,0.0,0.0,0.0,0.0,0.0,0.0,0.0,0.0,0.0,0.0,0.0,0.0,0.0,0.0,0.0,0.0,0.0,0.0,0.0,0.0,0.0,0.0,0.0,0.0,0.0,0.0,0.0,0.0,0.0,0.0,0.0,0.0,0.0,0.0,0.0,0.0,0.0,0.0,0.0,0.0,0.0,0.0,0.958,0.9677,0.9329,0.8491,0.7328,0.6084,0.0,0.0,0.0,0.0,0.0,0.0,0.0,0.0,0.0,0.0,0.0,0.0,0.0,0.0,0.0,0.0,0.0,0.0,0.0,0.0,0.0,0.0,0.0,0.0,0.0,0.0,0.0,0.0,0.0,0.0,0.0,0.0,0.0,0.0,0.0,0.0,0.0,0.0,0.0,0.0,0.0,0.0,0.0,0.0,0.0,0.0,0.0,0.0,0.0,0.0,0.0,0.0,0.0,0.0,0.0,0.0,0.0,0.0,0.0,0.0,0.0,0.0,0.0,0.0,0.0,0.0,0.0,0.0,0.0,0.0,0.0,0.0,0.0,0.0,0.0,0.0,0.0,0.0,0.0,0.0,0.0,0.0,0.0,0.0,0.0,0.0,0.0,0.0,0.0,0.0,0.0,0.0,0.0,0.0,0.0,0.0,0.0,0.0,0.0,0.0,0.0,0.0,0.0,0.0,0.0,0.0,0.0,0.0,0.0,0.9818,0.0,0.9492,0.8859,0.7841,0.6707,0.0,0.0,0.0,0.0,0.0,0.0,0.0,0.0,0.0,0.0,0.0,0.0,0.0,0.0,0.0,0.0,0.0,0.0,0.0,0.0,0.0,0.0,0.0,0.0,0.0,0.0,0.0,0.0,0.0,0.0,0.0,0.0,0.0,0.0,0.0,0.0,0.0,0.0,0.0,0.0,0.0,0.0,0.0,0.0,0.0,0.0,0.0,0.0,0.0,0.0,0.0,0.0,0.0,0.0,0.0,0.0,0.0,0.0,0.0,0.0,0.0,0.0,0.0,0.0,0.0,0.0,0.0,0.0,0.0,0.0,0.0,0.0,0.0,0.0,0.0,0.0,0.0,0.0,0.0,0.0,0.0,0.0,0.0,0.0,0.0,0.0,0.0,0.0,0.0,0.0,0.0,0.0,0.0,0.0,0.0,0.0,0.0,0.0,0.0,0.0,0.0,0.0,0.0,0.0,0.0,0.0,0.0,0.0,0.9779,1.0087,1.0016,0.973,0.9037,0.8226,0.7168,0.0,0.0,0.0,0.0,0.0,0.0,0.0,0.0,0.0,0.0,0.0,0.0,0.0,0.0,0.0,0.0,0.0,0.0,0.0,0.0,0.0,0.0,0.0,0.0,0.0,0.0,0.0,0.0,0.0,0.0,0.0,0.0,0.0,0.0,0.0,0.0,0.0,0.0,0.0,0.0,0.0,0.0,0.0,0.0,0.0,0.0,0.0,0.0,0.0,0.0,0.0,0.0,0.0,0.0,0.0,0.0,0.0,0.0,0.0,0.0,0.0,0.0,0.0,0.0,0.0,0.0,0.0,0.0,0.0,0.0,0.0,0.0,0.0,0.0,0.0,0.0,0.0,0.0,0.0,0.0,0.0,0.0,0.0,0.0,0.0,0.0,0.0,0.0,0.0,0.0,0.0,0.0,0.0,0.0,0.0,0.0,0.0,0.0,0.0,0.0,0.0,0.0,0.0,0.0,0.0,0.0,0.0,0.0,0.0,1.0852,1.1231,1.1109,1.0441,0.9564,0.8362,0.0,0.0,0.0,0.0,0.0,0.0,0.0,0.0,0.0,0.0,0.0,0.0,0.0,0.0,0.0,0.0,0.0,0.0,0.0,0.0,0.0,0.0,0.0,0.0,0.0,0.0,0.0,0.0,0.0,0.0,0.0,0.0,0.0,0.0,0.0,0.0,0.0,0.0,0.0,0.0,0.0,0.0,0.0,0.0,0.0,0.0,0.0,0.0,0.0,0.0,0.0,0.0,0.0,0.0,0.0,0.0,0.0,0.0,0.0,0.0,0.0,0.0,0.0,0.0,0.0,0.0,0.0,0.0,0.0,0.0,0.0,0.0,0.0,0.0,0.0,0.0,0.0,0.0,0.0,0.0,0.0,0.0,0.0,0.0,0.0,0.0,0.0,0.0,0.0,0.0,0.0,0.0,0.0,0.0,0.0,0.0,0.0,0.0,0.0,0.0,0.0,0.0,0.0,0.0,0.0,0.0,0.0,0.0,0.0,1.2145,1.2181,1.1967,1.1483,1.0366,0.9108,0.769,0.0,0.0,0.0,0.0,0.0,0.0,0.0,0.0,0.0,0.0,0.0,0.0,0.0,0.0,0.0,0.0,0.0,0.0,0.0,0.0,0.0,0.0,0.0,0.0,0.0,0.0,0.0,0.0,0.0,0.0,0.0,0.0,0.0,0.0,0.0,0.0,0.0,0.0,0.0,0.0,0.0,0.0,0.0,0.0,0.0,0.0,0.0,0.0,0.0,0.0,0.0,0.0,0.0,0.0,0.0,0.0,0.0,0.0,0.0,0.0,0.0,0.0,0.0,0.0,0.0,0.0,0.0,0.0,0.0,0.0,0.0,0.0,0.0,0.0,0.0,0.0,0.0,0.0,0.0,0.0,0.0,0.0,0.0,0.0,0.0,0.0,0.0,0.0,0.0,0.0,0.0,0.0,0.0,0.0,0.0,0.0,0.0,0.0,0.0,0.0,0.0,0.0,0.0,0.0,0.0,0.0,0.0,0.0,1.3785,1.2938,1.24,1.2119,1.0716,0.9479,0.0,0.0,0.0,0.0,0.0,0.0,0.0,0.0,0.0,0.0,0.0,0.0,0.0,0.0,0.0,0.0,0.0,0.0,0.0,0.0,0.0,0.0,0.0,0.0,0.0,0.0,0.0,0.0,0.0,0.0,0.0,0.0,0.0,0.0,0.0,0.0,0.0,0.0,0.0,0.0,0.0,0.0,0.0,0.0,0.0,0.0,0.0,0.0,0.0,0.0,0.0,0.0,0.0,0.0,0.0,0.0,0.0,0.0,0.0,0.0,0.0,0.0,0.0,0.0,0.0,0.0,0.0,0.0,0.0,0.0,0.0,0.0,0.0,0.0,0.0,0.0,0.0,0.0,0.0,0.0,0.0,0.0,0.0,0.0,0.0,0.0,0.0,0.0,0.0,0.0,0.0,0.0,0.0,0.0,0.0,0.0,0.0,0.0,0.0,0.0,0.0,0.0,0.0,0.0,0.0,0.0,0.0,0.0,0.0,1.4689,1.4181,1.3449,1.2478,1.1322,1.0034,0.0,0.0,0.0,0.0,0.0,0.0,0.0,0.0,0.0,0.0,0.0,0.0,0.0,0.0,0.0,0.0,0.0,0.0,0.0,0.0,0.0,0.0,0.0,0.0,0.0,0.0,0.0,0.0,0.0,0.0,0.0,0.0,0.0,0.0,0.0,0.0,0.0,0.0,0.0,0.0,0.0,0.0,0.0,0.0,0.0,0.0,0.0,0.0,0.0,0.0,0.0,0.0,0.0,0.0,0.0,0.0,0.0,0.0,0.0,0.0,0.0,0.0,0.0,0.0,0.0,0.0,0.0,0.0,0.0,0.0,0.0,0.0,0.0,0.0,0.0,0.0,0.0,0.0,0.0,0.0,0.0,0.0,0.0,0.0,0.0,0.0,0.0,0.0,0.0,0.0,0.0,0.0,0.0,0.0,0.0,0.0,0.0,0.0,0.0,0.0,0.0,0.0,0.0,0.0,0.0,0.0,0.0,0.0,1.5254,1.5138,1.4453,1.3395,1.1979,1.1254,1.0288,0.0,0.0,0.0,0.0,0.0,0.0,0.0,0.0,0.0,0.0,0.0,0.0,0.0,0.0,0.0,0.0,0.0,0.0,0.0,0.0,0.0,0.0,0.0,0.0,0.0,0.0,0.0,0.0,0.0,0.0,0.0,0.0,0.0,0.0,0.0,0.0,0.0,0.0,0.0,0.0,0.0,0.0,0.0,0.0,0.0,0.0,0.0,0.0,0.0,0.0,0.0,0.0,0.0,0.0,0.0,0.0,0.0,0.0,0.0,0.0,0.0,0.0,0.0,0.0,0.0,0.0,0.0,0.0,0.0,0.0,0.0,0.0,0.0,0.0,0.0,0.0,0.0,0.0,0.0,0.0,0.0,0.0,0.0,0.0,0.0,0.0,0.0,0.0,0.0,0.0,0.0,0.0,0.0,0.0,0.0,0.0,0.0,0.0,0.0,0.0,0.0,0.0,0.0,0.0,0.0,0.0,0.0,0.0,1.5947,1.5176,1.4159,1.2777,1.1084,1.0755,1.0336,0.0,0.0,0.0,0.0,0.0,0.0,0.0,0.0,0.0,0.0,0.0,0.0,0.0,0.0,0.0,0.0,0.0,0.0,0.0,0.0,0.0,0.0,0.0,0.0,0.0,0.0,0.0,0.0,0.0,0.0,0.0,0.0,0.0,0.0,0.0,0.0,0.0,0.0,0.0,0.0,0.0,0.0,0.0,0.0,0.0,0.0,0.0,0.0,0.0,0.0,0.0,0.0,0.0,0.0,0.0,0.0,0.0,0.0,0.0,0.0,0.0,0.0,0.0,0.0,0.0,0.0,0.0,0.0,0.0,0.0,0.0,0.0,0.0,0.0,0.0,0.0,0.0,0.0,0.0,0.0,0.0,0.0,0.0,0.0,0.0,0.0,0.0,0.0,0.0,0.0,0.0,0.0,0.0,0.0,0.0,0.0,0.0,0.0,0.0,0.0,0.0,0.0,0.0,0.0,0.0,0.0,0.0,0.0,1.5601,1.4886,1.3766,1.2386,1.0903,1.0481,0.992,0.0,0.0,0.0,0.0,0.0,0.0,0.0,0.0,0.0,0.0,0.0,0.0,0.0,0.0,0.0,0.0,0.0,0.0,0.0,0.0,0.0,0.0,0.0,0.0,0.0,0.0,0.0,0.0,0.0,0.0,0.0,0.0,0.0,0.0,0.0,0.0,0.0,0.0,0.0,0.0,0.0,0.0,0.0,0.0,0.0,0.0,0.0,0.0,1.2237,0.0,0.0,0.0,0.0,0.0,0.0,0.0,0.0,0.0,0.0,0.0,0.0,0.0,0.0,0.0,0.0,0.0,0.0,0.0,0.0,0.0,0.0,0.0,0.0,0.0,0.0,0.0,0.0,0.0,0.0,0.0,0.0,0.0,0.0,0.0,0.0,0.0,0.0,0.0,0.0,0.0,0.0,0.0,0.0,0.0,0.0,0.0,0.0,0.0,0.0,0.0,0.0,0.0,0.0,0.0,0.0,0.0,0.0,0.0,1.5278,1.4724,1.3373,1.1826,1.0204,0.9923,0.9562,0.0,0.0,0.0,0.0,0.0,0.0,0.0,0.0,0.0,0.0,0.0,0.0,0.0,0.0,0.0,0.0,0.0,0.0,0.0,0.0,0.0,0.0,0.0,0.0,0.0,0.0,0.0,0.0,0.0,0.0,0.0,0.0,0.0,0.0,0.0,0.0,0.0,0.0,0.0,0.0,0.0,0.0,0.0,0.0,0.0,0.0,0.0,0.0,0.0,0.0,0.0,0.0,0.0,0.0,0.0,0.0,0.0,0.0,0.0,0.0,0.0,0.0,0.0,0.0,0.0,0.0,0.0,0.0,0.0,0.0,0.0,0.0,0.0,0.0,0.0,0.0,0.0,0.0,0.0,0.0,0.0,0.0,0.0,0.0,0.0,0.0,0.0,0.0,0.0,0.0,0.0,0.0,0.0,0.0,0.0,0.0,0.0,0.0,0.0,0.0,0.0,0.0,0.0,0.0,0.0,0.0,0.0,1.5757,1.4962,1.4472,1.2959,1.1242,0.9383,0.9342,0.919,0.8845,0.0,0.0,0.0,0.0,0.0,0.0,0.0,0.0,0.0,0.0,0.0,0.0,0.0,0.0,0.0,0.0,0.0,0.0,0.0,0.0,0.0,0.0,0.0,0.0,0.0,0.0,0.0,0.0,0.0,0.0,0.0,0.0,0.0,0.0,0.0,0.0,0.0,0.0,1.1595,1.3256,0.0,0.0,0.0,0.0,0.0,0.0,0.0,0.0,1.4845,0.0,0.0,0.0,0.0,0.0,0.0,0.0,0.0,0.0,0.0,0.0,0.0,0.0,0.0,0.0,0.0,0.0,0.0,0.0,0.0,0.0,0.0,0.0,0.0,0.0,0.0,0.0,0.0,0.0,0.0,0.0,0.0,0.0,0.0,0.0,0.0,0.0,0.0,0.0,0.0,0.0,0.0,0.0,0.0,0.0,0.0,0.0,0.0,0.0,0.0,0.0,0.0,0.0,0.0,0.0,0.0,1.5986,1.5305,1.4585,1.3794,1.2453,1.1041,0.9443,0.9162,0.8896,0.8597,0.0,0.0,0.0,0.0,0.0,0.0,0.0,0.0,0.0,0.0,0.0,0.0,0.0,0.0,0.0,0.0,0.0,0.0,0.0,0.0,0.0,0.0,0.0,0.0,0.0,0.0,0.0,0.0,0.0,0.0,0.0,0.0,0.0,0.0,0.0,0.0,0.0,0.0,0.0,1.4174,1.5296,0.0,0.0,0.0,0.0,0.0,0.0,0.0,0.0,1.5775,0.0,0.0,0.0,0.0,0.0,0.0,0.0,0.0,0.0,0.0,0.0,0.0,0.0,0.0,0.0,0.0,0.0,0.0,0.0,0.0,0.0,0.0,0.0,0.0,0.0,0.0,0.0,0.0,0.0,0.0,0.0,0.0,0.0,0.0,0.0,0.0,0.0,0.0,0.0,0.0,0.0,0.0,0.0,0.0,0.0,0.0,0.0,0.0,0.0,0.0,0.0,0.0,0.0,0.0,0.0,1.5711,1.5132,1.4234,1.3131,1.2085,1.0765,0.9194,0.8862,0.862,0.0,0.0,0.0,0.0,0.0,0.0,0.0,0.0,0.0,0.0,0.0,0.0,0.0,0.0,0.0,0.0,0.0,0.0,0.0,0.0,0.0,0.0,0.0,0.0,0.0,0.0,0.0,0.0,0.0,0.0,0.0,0.0,0.0,0.0,0.0,0.0,0.0,0.0,0.0,0.0,1.5163,1.65,1.7054,0.0,0.0,0.0,0.0,0.0,0.0,1.7938,1.7474,0.0,0.0,0.0,0.0,0.0,0.0,0.0,0.0,0.0,0.0,0.0,0.0,0.0,0.0,0.0,0.0,0.0,0.0,0.0,0.0,0.0,0.0,0.0,0.0,0.0,0.0,0.0,0.0,0.0,0.0,0.0,0.0,0.0,0.0,0.0,0.0,0.0,0.0,0.0,0.0,0.0,0.0,0.0,0.0,0.0,0.0,0.0,0.0,0.0,0.0,0.0,0.0,0.0,0.0,0.0,1.5448,1.4814,1.38,1.249,1.1567,1.0391,0.8928,0.8546,0.8384,0.0,0.0,0.0,0.0,0.0,0.0,0.0,0.0,0.0,0.0,0.0,0.0,0.0,0.0,0.0,0.0,0.0,0.0,0.0,0.0,0.0,0.0,0.0,0.0,0.0,0.0,0.0,0.0,0.0,0.0,0.0,0.0,0.0,0.0,0.0,0.0,0.0,0.0,0.0,0.0,0.0,1.7428,1.8249,1.8801,0.0,0.0,0.0,0.0,1.9827,1.9809,0.0,0.0,0.0,0.0,0.0,0.0,0.0,0.0,0.0,0.0,0.0,0.0,0.0,0.0,0.0,0.0,0.0,0.0,0.0,0.0,0.0,0.0,0.0,0.0,0.0,0.0,0.0,0.0,0.0,0.0,0.0,0.0,0.0,0.0,0.0,0.0,0.0,0.0,0.0,0.0,0.0,0.0,0.0,0.0,0.0,0.0,0.0,0.0,0.0,0.0,0.0,0.0,0.0,0.0,0.0,0.0,1.4721,1.4005,1.2942,1.1596,1.0651,0.971,0.8734,0.8442,0.8328,0.0,0.0,0.0,0.0,0.0,0.0,0.0,0.0,0.0,0.0,0.0,0.0,0.0,0.0,0.0,0.0,0.0,0.0,0.0,0.0,0.0,0.0,0.0,0.0,0.0,0.0,0.0,0.0,0.0,0.0,0.0,0.0,0.0,0.0,0.0,0.0,0.0,0.0,0.0,0.0,0.0,1.7586,1.9353,1.9629,1.9801,0.0,0.0,2.1133,2.1171,2.1343,0.0,0.0,0.0,0.0,0.0,0.0,0.0,0.0,0.0,0.0,0.0,0.0,0.0,0.0,0.0,0.0,0.0,0.0,0.0,0.0,0.0,0.0,0.0,0.0,0.0,0.0,0.0,0.0,0.0,0.0,0.0,0.0,0.0,0.0,0.0,0.0,0.0,0.0,0.0,0.0,0.0,0.0,0.0,0.0,0.0,0.0,0.0,0.0,0.0,0.0,0.0,0.0,0.0,0.0,0.0,1.5115,1.459,1.3864,1.2753,1.1326,1.0432,0.9581,0.8741,0.8324,0.8331,0.0,0.0,0.0,0.0,0.0,0.0,0.0,0.0,0.0,0.0,0.0,0.0,0.0,0.0,0.0,0.0,0.0,0.0,0.0,0.0,0.0,0.0,0.0,0.0,0.0,0.0,0.0,0.0,0.0,0.0,0.0,0.0,0.0,0.0,0.0,0.0,0.0,0.0,0.0,0.0,0.0,0.0,2.06,2.146,0.0,0.0,0.0,2.3167,2.3378,0.0,0.0,0.0,0.0,0.0,0.0,0.0,0.0,0.0,0.0,0.0,0.0,0.0,0.0,0.0,0.0,0.0,0.0,0.0,0.0,0.0,0.0,0.0,0.0,0.0,0.0,0.0,0.0,0.0,0.0,0.0,0.0,0.0,0.0,0.0,0.0,0.0,0.0,0.0,0.0,0.0,0.0,0.0,0.0,0.0,0.0,0.0,0.0,0.0,0.0,0.0,0.0,0.0,0.0,0.0,0.0,0.0,1.4546,1.3765,1.265,1.1214,1.0305,0.952,0.8781,0.8452,0.0,0.0,0.0,0.0,0.0,0.0,0.0,0.0,0.0,0.0,0.0,0.0,0.0,0.0,0.0,0.0,0.0,0.0,0.0,0.0,0.0,0.0,0.0,0.0,0.0,0.0,0.0,1.0856,0.0,0.0,0.0,0.0,0.0,0.0,0.0,0.0,0.0,0.0,0.0,0.0,0.0,0.0,2.0348,2.165,2.2834,2.3598,0.0,0.0,2.4477,2.4485,2.4144,2.348,0.0,0.0,0.0,0.0,0.0,0.0,0.0,0.0,0.0,0.0,0.0,0.0,0.0,0.0,0.0,0.0,0.0,0.0,0.0,0.0,0.0,0.0,0.0,0.0,0.0,0.0,0.0,0.0,0.0,0.0,0.0,0.0,0.0,0.0,0.0,0.0,0.0,0.0,0.0,0.0,0.0,0.0,0.0,0.0,0.0,0.0,0.0,0.0,0.0,0.0,0.0,0.0,0.0,0.0,1.4998,1.4398,1.3426,1.2347,1.115,1.0008,0.9292,0.8982,0.8989,0.9197,0.0,0.0,0.0,0.0,0.0,0.0,0.0,0.0,0.0,0.0,0.0,0.0,0.0,0.0,0.0,0.0,0.0,0.0,0.0,0.0,0.0,0.0,0.0,0.0,0.0,0.0,0.0,0.0,0.0,0.0,0.0,0.0,0.0,0.0,0.0,0.0,0.0,0.0,0.0,0.0,0.0,2.0439,2.2197,2.2944,2.3497,0.0,2.439,2.4365,2.344,2.4227,2.4222,2.2258,0.0,0.0,0.0,0.0,0.0,0.0,0.0,0.0,0.0,0.0,0.0,0.0,0.0,0.0,0.0,0.0,0.0,0.0,0.0,0.0,0.0,0.0,0.0,0.0,0.0,0.0,0.0,0.0,0.0,0.0,0.0,0.0,0.0,0.0,0.0,0.0,0.0,0.0,0.0,0.0,0.0,0.0,0.0,0.0,0.0,0.0,0.0,0.0,0.0,0.0,0.0,0.0,0.0,1.493,1.4262,1.3342,1.2194,1.0899,0.9962,0.9344,0.9028,0.9219,0.9657,0.0,0.0,0.0,0.0,0.0,0.0,0.0,0.0,0.0,0.0,0.0,0.0,0.0,0.0,0.0,0.0,0.0,0.0,0.0,0.0,0.0,0.0,0.0,0.0,0.0,0.0,0.0,0.0,1.3895,1.4032,1.4118,0.0,0.0,0.0,0.0,0.0,0.0,0.0,0.0,0.0,0.0,2.2319,2.3686,2.4236,0.0,0.0,2.4817,2.4841,2.4225,2.446,2.4176,2.2574,2.1463,0.0,0.0,0.0,0.0,0.0,0.0,0.0,0.0,0.0,0.0,0.0,0.0,0.0,0.0,0.0,0.0,0.0,0.0,0.0,0.0,0.0,0.0,0.0,0.0,0.0,0.0,0.0,0.0,0.0,0.0,0.0,0.0,0.0,0.0,0.0,0.0,0.0,0.0,0.0,0.0,0.0,0.0,0.0,0.0,0.0,0.0,0.0,0.0,0.0,0.0,0.0,0.0,1.4903,1.4407,1.341,1.2278,1.1003,1.0253,0.9636,0.9221,0.9706,1.0319,0.0,0.0,0.0,0.0,0.0,0.0,0.0,0.0,0.0,0.0,0.0,0.0,0.0,0.0,0.0,0.0,0.0,0.0,0.0,0.0,0.0,0.0,0.0,0.0,0.0,0.0,0.0,0.0,1.4759,1.4463,1.3988,0.0,0.0,0.0,0.0,0.0,0.0,0.0,0.0,0.0,0.0,2.3732,2.4605,2.497,2.5068,2.4751,2.5014,2.504,2.4417,2.4448,2.4045,2.2736,0.0,0.0,0.0,0.0,0.0,0.0,0.0,0.0,0.0,0.0,0.0,0.0,0.0,0.0,0.0,0.0,0.0,0.0,0.0,0.0,0.0,0.0,0.0,0.0,0.0,0.0,0.0,1.2326,0.0,0.0,1.2355,0.0,0.0,0.0,0.0,0.0,0.0,0.0,0.0,0.0,0.0,0.0,0.0,0.0,0.0,0.0,0.0,0.0,0.0,0.0,0.0,0.0,0.0,1.4954,1.4865,1.3669,1.2599,1.1604,1.0935,1.0275,0.963,1.0475,1.121,1.1733,0.0,0.0,0.0,0.0,0.0,0.0,0.0,0.0,0.0,0.0,0.0,0.0,0.0,0.0,0.0,0.0,0.0,0.0,0.0,0.0,0.0,0.0,0.0,0.0,0.0,0.0,1.6246,1.6249,1.5713,0.0,0.0,0.0,0.0,0.0,0.0,0.0,0.0,0.0,2.2659,2.3587,2.4298,2.4687,2.4842,2.4855,2.4523,2.4802,2.4653,2.3687,2.409,2.4015,0.0,0.0,0.0,0.0,0.0,0.0,0.0,0.0,0.0,0.0,0.0,0.0,0.0,0.0,0.0,0.0,0.0,0.0,0.0,0.0,0.0,0.0,0.0,0.0,0.0,0.0,0.0,1.4921,1.493,0.0,0.0,0.0,0.0,0.0,0.0,0.0,0.0,0.0,0.0,0.0,2.0214,2.0521,0.0,0.0,0.0,0.0,0.0,0.0,0.0,0.0,0.0,0.0,0.0,0.0,1.4782,1.4593,1.3552,1.2685,1.207,1.1364,1.0822,1.048,1.1083,1.2194,1.3786,0.0,0.0,0.0,0.0,0.0,0.0,0.0,0.0,0.0,0.0,0.0,0.0,0.0,0.0,0.0,0.0,0.0,0.0,0.0,0.0,0.0,0.0,0.0,0.0,0.0,1.5844,0.0,0.0,0.0,0.0,0.0,0.0,0.0,0.0,0.0,0.0,0.0,2.3735,2.414,2.4625,2.5029,2.5337,2.5125,2.4831,0.0,0.0,0.0,0.0,0.0,0.0,0.0,0.0,0.0,0.0,0.0,0.0,0.0,0.0,2.4047,2.2358,2.2157,2.2171,2.1873,0.0,0.0,0.0,0.0,0.0,0.0,0.0,0.0,0.0,0.0,0.0,0.0,0.0,0.0,1.7874,0.0,1.7876,0.0,0.0,0.0,0.0,0.0,0.0,0.0,0.0,2.0896,2.1612,2.1789,2.2056,2.2332,0.0,2.2424,2.1275,0.0,0.0,0.0,0.0,0.0,0.0,0.0,0.0,1.5373,1.5121,1.3897,1.3025,1.2637,1.1882,1.1391,1.1275,1.2024,1.3233,1.4844,1.5129,1.5608,0.0,0.0,0.0,0.0,0.0,0.0,0.0,0.0,0.0,0.0,0.0,0.0,0.0,0.0,0.0,0.0,0.0,0.0,0.0,0.0,0.0,0.0,0.0,1.7453,0.0,0.0,0.0,0.0,0.0,0.0,0.0,0.0,0.0,2.1099,2.3283,2.4963,2.5247,2.5458,2.559,2.5598,0.0,0.0,0.0,0.0,0.0,0.0,0.0,2.3376,2.3383,2.3927,2.448,2.4894,2.5841,2.6475,2.6178,0.0,0.0,2.4316,2.4045,2.4137,2.4116,2.4268,2.4433,2.4423,2.4549,2.4987,0.0,0.0,0.0,0.0,0.0,0.0,0.0,0.0,2.0916,2.1198,0.0,2.1211,0.0,0.0,0.0,0.0,1.7928,1.9525,0.0,0.0,2.2074,2.2705,2.3279,2.2479,2.2446,2.3145,2.2468,2.2162,2.2147,2.0849,0.0,0.0,0.0,0.0,0.0,0.0,1.666,1.6316,1.4733,1.3727,1.3325,1.2451,1.1965,1.2024,1.3253,1.4274,1.4963,1.5941,1.648,1.6586,1.6483,0.0,0.0,0.0,0.0,0.0,0.0,0.0,0.0,0.0,0.0,0.0,0.0,0.0,0.0,0.0,0.0,0.0,0.0,0.0,0.0,1.8988,0.0,0.0,0.0,0.0,0.0,0.0,0.0,0.0,0.0,0.0,2.336,2.4566,2.546,2.5853,0.0,0.0,0.0,0.0,2.4374,2.4024,2.3726,2.3509,2.3539,2.3539,2.3865,2.4701,0.0,0.0,2.7169,2.7547,2.7737,2.7956,2.7947,2.7617,2.6623,2.6471,2.659,2.6605,2.6824,2.7105,2.7137,2.7109,2.7463,2.3158,0.0,0.0,0.0,0.0,2.0776,2.2111,2.4208,2.4361,2.446,2.4423,2.4441,0.0,0.0,0.0,0.0,0.0,0.0,2.3877,2.4565,2.5196,2.5281,2.4857,2.4486,2.4154,2.3842,2.3621,2.3562,2.3659,2.2805,2.2098,2.155,0.0,0.0,0.0,0.0,1.6516,1.6139,1.5049,1.4379,1.4163,1.3459,1.3265,1.3616,1.4469,1.5247,1.5953,1.6169,1.6848,1.7997,1.7218,0.0,0.0,0.0,0.0,0.0,0.0,0.0,0.0,0.0,0.0,0.0,0.0,0.0,0.0,0.0,0.0,0.0,0.0,0.0,2.1346,2.1896,2.1638,0.0,0.0,0.0,0.0,0.0,0.0,0.0,0.0,0.0,2.539,2.5778,2.6095,0.0,0.0,2.5705,2.5098,2.471,2.4374,2.3925,2.3711,0.0,2.4164,2.4313,2.4612,2.5379,2.6306,2.7145,2.7822,2.8499,2.879,2.8394,2.8801,2.9081,2.8793,2.8141,2.78,2.7914,2.8082,2.8226,2.8369,2.8475,2.8818,2.5893,2.3853,2.3198,2.3107,2.3353,2.3473,2.4787,2.6783,2.6674,2.66,2.6562,2.6618,2.5983,2.4854,2.4796,0.0,0.0,0.0,2.5702,2.633,2.6581,2.6425,2.5919,2.5713,2.519,2.4431,2.4413,2.433,2.4174,2.382,2.3537,2.3218,0.0,0.0,2.0263,1.8705,1.7559,1.6847,1.5743,1.5131,1.5057,1.4627,1.4653,1.5074,1.5631,1.6125,1.6525,1.6902,1.7645,1.8807,1.8398,1.8462,0.0,0.0,0.0,0.0,0.0,0.0,0.0,0.0,0.0,0.0,0.0,1.5866,1.7131,0.0,0.0,0.0,2.1121,2.2534,2.3746,2.3606,0.0,0.0,0.0,0.0,0.0,0.0,0.0,2.5836,2.6543,2.7063,2.7565,2.7405,2.7011,2.6419,2.5908,2.5384,2.4815,0.0,2.4151,2.3711,2.3849,2.4089,2.4447,2.4821,2.5424,2.6428,2.7488,2.8278,2.8627,2.908,2.9265,2.8962,2.917,2.9502,2.9608,2.9113,2.8821,2.9154,2.949,2.9832,3.0101,3.0381,3.0746,2.8324,2.7926,2.6177,2.5579,2.5757,2.593,2.6875,2.8322,2.8141,2.7981,2.7875,2.7966,2.769,2.7212,2.6919,0.0,2.6697,2.6484,2.6699,2.7177,2.6888,2.6701,2.6575,2.6289,2.5757,2.4982,2.4964,2.4639,2.4103,2.4207,2.4284,2.4246,2.3042,2.1976,2.1049,2.0298,1.9335,1.807,1.6757,1.6028,1.6,1.5944,1.6078,1.6418,1.6748,1.6941,1.6922,1.7924,1.8737,1.9157,1.9662,2.0089,2.0348,0.0,0.0,0.0,0.0,0.0,0.0,0.0,0.0,0.0,0.0,0.0,0.0,0.0,0.0,0.0,2.3511,0.0,2.5195,2.4694,0.0,0.0,0.0,2.4076,2.5076,2.5703,2.6718,2.8282,0.0,0.0,2.9553,2.8999,2.7956,2.6356,2.5627,2.5076,2.4523,2.4193,2.3912,2.3657,2.4119,2.4551,2.4805,2.5452,2.638,2.7627,2.8558,2.912,2.938,2.938,2.9305,2.9257,2.9213,2.9229,2.9473,2.9589,2.9814,3.0064,3.0803,3.1513,3.1784,3.216,3.2294,2.9569,2.9697,2.9454,2.9158,2.89,2.9007,2.958,3.0406,2.9734,2.9405,2.935,2.8821,2.9114,3.0055,3.0686,3.0601,3.0051,2.9775,2.9324,2.8751,2.8478,2.7967,2.7268,2.6982,2.6444,2.5691,2.5673,2.5332,2.4711,2.4866,2.4659,2.4077,2.3731,2.3162,2.2264,2.1006,1.978,1.8627,1.7764,1.715,1.6791,1.7314,1.7575,1.7443,1.7891,1.8063,1.7804,1.8452,1.9137,1.9923,2.0268,2.0729,2.1243,2.0801,0.0,0.0,0.0,0.0,0.0,0.0,0.0,0.0,0.0,1.8835,2.1436,0.0,2.3354,0.0,2.6506,2.7336,2.7429,2.7339,0.0,0.0,2.6764,2.7181,2.8255,2.8479,2.8907,2.9804,2.9739,2.9464,2.9092,2.8619,2.8135,2.7527,2.6502,2.5428,2.4394,2.4078,2.4064,2.4224,2.4462,2.4999,2.6006,2.7081,2.7967,2.8669,2.9073,2.9305,2.9473,2.9412,2.9305,2.9305,2.9259,2.9305,2.9473,2.9681,2.987,3.0146,3.0481,3.0931,3.1674,3.1583,3.1383,3.056,3.0894,3.1076,3.1078,3.0884,3.0228,2.9981,2.9948,2.9419,2.916,2.916,2.9369,3.0012,3.0979,3.1957,3.1916,3.1124,3.0827,3.0195,2.9259,2.8934,2.8482,2.7893,2.7663,2.7121,2.6354,2.6354,2.5815,2.4918,2.4956,2.4585,2.3786,2.3725,2.3347,2.2634,2.1476,2.0331,1.918,1.8496,1.7962,1.7727,1.8262,1.8571,1.8594,1.8725,1.8667,1.8506,1.8955,1.9477,2.0067,2.0855,2.128,2.1402,2.1548,2.1131,0.0,0.0,0.0,0.0,0.0,0.0,0.0,0.0,0.0,0.0,0.0,2.571,2.7546,2.8285,2.8665,2.8544,2.8716,2.8762,2.8589,2.8798,2.9272,2.9994,3.0306,3.0624,3.0932,3.0878,3.0594,2.9986,2.9471,2.8911,2.8255,2.7359,2.6205,2.4879,2.4521,2.45,2.4612,2.5063,2.5879,2.7311,2.8231,2.8858,2.9198,2.9396,2.9502,2.9563,2.9502,2.9457,2.9412,2.9412,2.9441,2.9621,2.9798,2.9973,3.0231,3.0375,3.0766,3.1598,3.1639,3.1613,3.1359,3.1627,3.1798,3.181,3.1686,3.0315,2.9411,2.8747,2.8524,2.8407,2.847,2.985,3.0708,3.1182,3.2109,3.2015,3.1111,3.0745,3.0071,2.9152,2.8815,2.8569,2.8398,2.8182,2.7725,2.7041,2.7023,2.6373,2.5088,2.4962,2.4468,2.3649,2.3348,2.301,2.2521,2.1764,2.0816,1.9656,1.8981,1.8693,1.8742,1.9003,1.9296,1.9579,1.9251,1.9105,1.9105,1.9425,1.9768,2.0116,2.1374,2.1813,2.1392,2.2056,2.2056,0.0,2.1376,0.0,0.0,0.0,0.0,0.0,0.0,0.0,0.0,2.6983,2.831,2.9315,2.9433,2.9394,2.9191,2.9554,2.9868,3.0089,3.0445,3.0784,3.1081,3.1613,3.1918,3.1805,3.1917,3.1795,3.124,3.0634,2.974,2.8714,2.8129,2.7283,2.5843,2.5356,2.5223,2.5122,2.594,2.7088,2.8311,2.8951,2.9213,2.9486,2.9592,2.9681,2.9697,2.9697,2.9653,2.9563,2.9547,2.9576,2.9766,2.9913,3.0119,3.0375,3.0426,3.0758,3.148,3.1824,3.2022,3.1551,3.1768,3.1966,3.1333,3.0134,2.9782,2.9853,3.0159,2.9412,2.9221,2.9503,3.0766,3.192,3.2893,3.3122,3.271,3.1862,3.0878,2.9913,2.8934,2.8669,2.844,2.83,2.8109,2.7926,2.7784,2.7784,2.736,2.649,2.5831,2.5052,2.4148,2.3325,2.2643,2.2175,0.0,0.0,0.0,1.9475,1.9423,1.9582,1.9722,1.9788,1.9747,1.9604,0.0,1.9525,1.9978,2.0316,2.049,2.1403,0.0,0.0,0.0,0.0,0.0,0.0,0.0,0.0,0.0,0.0,0.0,2.7343,2.7486,2.8004,2.9195,2.9898,2.9895,3.0417,3.0806,3.0768,3.1018,3.1351,3.1708,3.198,3.2293,3.255,3.2688,3.2652,3.2396,3.2092,3.1651,3.1059,3.0392,2.9701,2.8758,2.8637,2.8264,2.7271,2.6541,2.6355,2.6811,2.7535,2.8327,2.8935,2.9227,2.9486,2.9637,2.9681,2.9726,2.983,2.9653,2.9608,2.9653,2.9726,2.9738,2.9793,3.0087,3.0316,3.0417,3.0443,3.07,3.1368,3.104,3.0713,3.1087,3.1184,3.0959,3.0386,0.0,2.9161,2.9096,2.9329,2.8891,2.9106,2.9834,3.1054,3.2009,3.2737,3.3193,3.2647,3.1329,3.0661,2.9756,2.8761,2.8536,2.8282,2.8063,2.7922,2.7836,2.7795,2.7795,2.7419,2.6644,2.6166,2.5275,2.3962,2.3292,2.2552,2.1705,2.118,2.0573,1.9868,1.9669,1.9683,1.9895,2.0137,2.0233,2.0144,1.9926,0.0,0.0,0.0,0.0,0.0,0.0,0.0,0.0,2.3969,0.0,2.4784,2.5543,2.6167,2.6626,2.716,2.8058,2.9334,2.9868,2.9972,2.9626,3.0362,3.0789,3.0499,3.0853,3.1112,3.119,3.1504,3.1912,3.2318,3.2606,3.2884,3.2993,3.3011,3.2834,3.2438,3.2002,3.1504,3.0783,3.0248,2.9661,2.9057,2.8904,2.8794,2.8433,2.7621,2.7125,2.7279,2.8246,2.8933,2.8907,2.931,2.9621,2.9697,2.9681,2.9726,2.9786,2.9697,2.9637,2.977,2.9842,2.9913,3.0,3.0231,3.0401,3.0443,3.0443,3.0483,3.0793,3.0451,3.0114,3.0355,3.0388,2.9853,2.9521,2.9323,2.8578,2.8246,2.8109,2.8154,0.0,0.0,3.1151,3.1861,3.2262,3.2868,3.2208,3.0581,3.0194,2.9466,2.8543,2.8309,2.8045,2.776,2.7672,2.763,2.7557,2.7526,2.7178,2.6504,2.6251,2.5283,2.3828,2.3248,2.2419,2.1311,2.0752,2.0367,2.0108,1.9917,1.9957,2.0218,2.0414,2.0498,2.0549,2.0335,2.0284,2.0438,2.1082,2.1537,2.1891,2.3192,2.3957,2.4016,2.5091,2.5879,2.6258,2.6972,2.7694,2.8434,2.8958,2.9731,3.0835,3.1512,3.1526,3.0759,3.1049,3.1157,3.0912,3.0952,3.1055,3.1269,3.1671,3.2091,3.2456,3.2805,3.2993,3.3073,3.2993,3.277,3.2283,3.1841,3.1261,3.0526,3.0044,2.9633,2.9289,2.9059,2.9059,2.918,2.8555,2.7944,2.7778,2.8513,2.901,2.8758,2.8893,2.9355,2.9198,2.9343,2.9504,2.952,2.9572,2.9726,2.983,2.9946,3.0017,3.0146,3.0274,3.0401,3.0485,3.0417,3.029,3.013,2.9973,2.9798,2.9689,2.9727,2.9701,2.9251,2.8541,2.838,2.83,2.8273,2.8327,2.9383,3.1114,3.1505,3.2222,3.3072,3.2406,3.1496,3.0391,2.9386,2.8703,2.8255,2.8007,2.7789,2.763,2.7526,2.7452,2.7434,2.7261,2.7098,2.6943,2.609,2.5169,2.4171,2.3125,2.2114,2.1147,2.0557,2.0637,2.1326,2.0955,2.083,2.0997,2.0733,2.066,2.0785,2.0991,2.1264,2.1497,2.2207,2.279,2.3053,2.3606,2.4283,2.5146,2.5991,2.6947,2.8028,2.8803,2.9545,3.0277,3.0718,3.1175,3.1649,3.1842,3.175,3.1405,3.1145,3.1015,3.0912,3.0992,3.1134,3.1445,3.1819,3.2179,3.2507,3.2755,3.2916,3.293,3.2816,3.2537,3.2038,3.16,3.1004,3.0258,2.9858,2.9531,2.9152,2.9167,2.9305,2.9396,2.9348,2.9191,2.8955,2.877,2.8693,2.8539,2.8204,2.8123,2.7904,2.8356,2.8714,2.8746,2.9211,2.9576,2.9697,2.9902,3.006,3.0205,3.0205,3.0274,3.0359,3.0248,3.0017,2.9897,2.9649,2.938,2.8937,2.8937,2.8945,2.8721,2.8345,2.8327,2.8353,2.8414,2.8562,2.9635,3.1317,3.1631,3.2076,3.2521,3.212,3.1014,2.9504,2.8882,2.8344,2.7933,2.7748,2.7539,2.7324,2.7279,2.7215,2.7137,2.6973,2.6842,2.6691,2.6151,2.5246,2.3918,2.2567,2.1592,2.0985,2.1064,2.1239,2.148,2.1032,2.0953,2.1313,2.0983,2.0871,2.1033,2.1504,2.1925,2.2194,2.3228,2.3969,2.4323,2.5062,2.5776,2.66,2.7263,2.8123,2.9134,2.9689,3.0293,3.1078,3.1487,3.1765,3.1839,3.1728,3.1542,3.1252,3.119,3.1032,3.0912,3.1055,3.1312,3.1691,3.202,3.2335,3.269,3.2852,3.2948,3.2866,3.2705,3.2386,3.1841,3.1355,3.0764,3.0103,2.977,2.9502,2.9213,2.9305,2.9412,2.9473,2.9579,2.9419,2.899,2.8812,2.8543,2.8204,2.7881,2.7614,2.7515,2.7998,2.8311,2.8423,2.901,2.9483,2.9697,2.9842,3.0017,3.0103,3.0146,3.0189,3.0146,3.006,2.9853,2.9754,2.938,2.9059,2.8424,2.8398,2.83,2.8273,2.8246,2.83,2.8362,2.8536,2.8718,2.9716,3.1096,3.1417,3.161,3.1712,3.161,3.0512,2.8888,2.8482,2.8128,2.7689,2.7478,2.7293,2.7103,2.7038,2.6957,2.6809,2.664,2.6453,2.6279,2.6118,2.5226,2.367,2.2263,2.1467,2.1242,2.1703,2.1845,2.1693,2.13,2.123,2.1431,2.1277,2.118,2.138,2.2119,2.2651,2.2958,2.4271,2.5163,2.5531,2.6393,2.7225,2.783,2.8463,2.912,2.9837,3.0251,3.0788,3.1487,3.1893,3.1965,3.1746,3.1559,3.1312,3.1015,3.1112,3.1128,3.0975,3.1157,3.1487,3.1912,3.2197,3.2506,3.282,3.2948,3.2916,3.282,3.2573,3.2214,3.1677,3.1106,3.0518,3.0044,2.971,2.9502,2.9457,2.9457,2.9563,2.9608,2.9669,2.944,2.9065,2.8721,2.8343,2.7745,2.7268,2.7042,2.6983,2.7546,2.7858,2.8128,2.8806,2.947,2.9653,2.9814,2.9973,2.9973,3.0017,3.0017,2.9957,2.9782,2.9589,2.9412,2.9059,2.8732,2.8398,2.8398,2.8264,2.82,2.8154,2.8246,2.8406,2.8518,2.8767,2.9457,3.0452,3.0643,3.077,3.0791,3.0661,2.9848,2.8619,2.8219,2.7876,2.7509,2.7261,2.707,2.7007,2.6808,2.6708,2.6606,2.6277,2.6046,2.5954,2.5626,2.49,2.379,2.2723,2.2293,2.2368,2.2214,2.2265,2.2649,2.2392,2.2081,2.1793,2.1602,2.1616,2.1773,2.2939,2.3612,2.3803,2.5279,2.625,2.6582,2.7232,2.7815,2.8415,2.912,2.9705,3.0225,3.0764,3.1278,3.1785,3.1894,3.1839,3.1617,3.1428,3.1196,3.0935,3.0992,3.1032,3.1055,3.1274,3.1654,3.2037,3.2318,3.2557,3.2773,3.287,3.2834,3.2639,3.2266,3.1896,3.1473,3.0885,3.0342,2.9941,2.971,2.9653,2.9592,2.9653,2.9697,2.9786,2.983,2.9766,2.9475,2.8737,2.792,2.7583,2.6437,2.5995,2.5844,2.6614,2.7312,2.7774,2.8598,2.9518,2.9563,2.9742,2.9902,2.9946,2.9902,2.9754,2.9694,2.947,2.9075,2.8811,2.8573,2.8477,2.8398,2.8327,2.8237,2.8209,2.8219,2.838,2.8518,2.8712,2.8929,2.9296,2.9702,2.9805,3.0108,3.0556,3.0378,2.9576,2.8378,2.801,2.7672,2.7261,2.7055,2.6925,2.6808,2.6691,2.6555,2.6417,2.6082,2.586,2.5647,2.4992,2.436,2.3916,2.3266,2.2931,2.2858,2.2899,2.2922,2.2963,2.2723,2.248,2.2342,2.2063,2.203,2.2264,2.3456,2.4319,2.4733,2.6068,2.7049,2.7444,2.783,2.8336,2.8996,2.9601,3.0208,3.0828,3.1432,3.1839,3.1984,3.1929,3.1746,3.1559,3.1235,3.1032,3.0912,3.0975,3.1055,3.1196,3.1483,3.1819,3.2161,3.2438,3.2623,3.2773,3.2838,3.2722,3.2404,3.2056,3.164,3.1218,3.0757,3.0274,2.9897,2.9754,2.9653,2.9608,2.9653,2.9742,2.9786,2.9802,2.9609,2.9211,2.832,2.7786,2.7559,2.6389,2.5754,2.6037,2.6743,2.7338,2.7917,2.8782,2.9608,2.9518,2.9653,2.977,2.9814,2.9681,2.9547,2.9441,2.9167,2.8826,2.8525,2.8444,2.8348,2.8353,2.8318,2.8254,2.8237,2.8273,2.844,2.8594,2.8828,2.8998,2.9175,2.928,2.924,2.9533,2.9968,2.9861,2.9185,2.8237,2.7876,2.7491,2.7117,2.6942,2.6792,2.6708,2.6606,2.6468,2.626,2.5954,2.5696,2.5384,2.4738,2.43,2.4169,2.3881,2.3603,2.3325,2.3543,2.3494,2.326,2.3024,2.2934,2.2889,2.2632,2.2495,2.2609,2.3722,2.4539,2.4857,2.6322,2.737,2.7783,2.8323,2.8873,2.954,3.0038,3.0666,3.1393,3.1929,3.2144,3.2055,3.1819,3.1596,3.1351,3.1015,3.0831,3.0855,3.0935,3.1078,3.1312,3.1617,3.1948,3.2232,3.2472,3.2606,3.274,3.274,3.2574,3.2214,3.1858,3.1432,3.0998,3.051,3.0087,2.9798,2.9621,2.9547,2.9563,2.9653,2.9726,2.9677,2.9581,2.9286,2.8822,2.803,2.7429,2.7276,2.6292,2.5867,2.6382,2.7008,2.7588,2.822,2.9083,2.9608,2.9473,2.9547,2.9592,2.9653,2.9518,2.9275,2.8998,2.8779,2.8589,2.8299,2.825,2.8088,2.83,2.8336,2.8254,2.8281,2.8227,2.8468,2.8612,2.881,2.8998,2.9152,2.9178,2.9134,2.9035,2.8925,2.887,2.8572,2.8174,2.7719,2.7373,2.7103,2.6842,2.6708,2.6708,2.6555,2.6399,2.617,2.5791,2.5432,2.5084,2.4974,2.4879,2.4744,2.4576,2.4333,2.4085,2.3964,2.3839,2.3595,2.348,2.3451,2.3451,2.3319,2.3038,2.2872,2.3632,2.4227,2.4486,2.6038,2.7144,2.7349,2.8527,2.9438,2.9968,3.0477,3.1106,3.1785,3.1984,3.202,3.1894,3.1654,3.1406,3.1038,3.0855,3.0692,3.0733,3.0895,3.1095,3.1295,3.1674,3.1966,3.2179,3.2387,3.2506,3.2606,3.2574,3.2405,3.2108,3.1637,3.1201,3.0804,3.0241,2.9826,2.9547,2.9412,2.9457,2.9608,2.9697,2.9726,2.9733,2.9324,2.8903,2.8514,2.7688,2.6694,2.6518,2.6002,2.585,2.6478,2.721,2.7694,2.8334,2.8898,2.9188,2.9366,2.9412,2.9473,2.9428,2.9291,2.8951,2.8716,2.8541,2.8348,2.8103,2.7825,2.7675,2.9329,2.9701,2.9765,2.9526,2.9143,2.9295,2.921,2.8881,2.904,2.913,2.913,2.9085,2.8905,2.8662,2.8466,2.8201,2.7893,2.7587,2.7279,2.6975,2.6775,2.6674,2.6623,2.6452,2.6241,2.599,2.5659,2.5317,2.5045,2.5005,2.4966,2.4886,2.4766,2.463,2.4426,2.4261,2.4094,2.3937,2.3782,2.3711,2.3668,2.3566,2.3421,2.3466,2.403,2.4537,2.4836,2.6061,2.7056,2.7913,2.8554,2.9313,3.0276,3.0925,3.1487,3.1858,3.1948,3.1894,3.1674,3.1466,3.123,3.0952,3.0692,3.0651,3.0814,3.0975,3.123,3.1462,3.1674,3.1948,3.2144,3.2353,3.2489,3.2523,3.2473,3.2267,3.1839,3.1411,3.0965,3.0493,2.9913,2.9592,2.9518,2.9473,2.9473,2.9563,2.9653,2.9742,2.9673,2.92,2.8611,2.8093,2.7316,2.6484,2.5757,2.5712,2.5847,2.6776,2.7573,2.8164,2.8778,2.9179,2.9531,2.9273,2.9289,2.9039,2.893,2.8809,2.8513,2.8384,2.8207,2.8103,2.7955,2.764,2.7473,3.0076,3.0493,3.0635,3.0435,3.0024,3.0188,3.0061,2.9655,2.9559,2.9494,2.9393,2.908,2.8761,2.8484,2.8201,2.7876,2.7535,2.7355,2.7152,2.6825,2.6725,2.6623,2.6537,2.6364,2.6118,2.5881,2.5492,2.5201,2.5005,2.5005,2.5005,2.4966,2.4926,2.4806,2.467,2.4549,2.441,2.4287,2.4135,2.4009,2.4009,2.3867,2.3882,2.4028,2.4336,2.4606,2.494,2.5787,2.682,2.7869,2.8474,2.9377,3.0657,3.1312,3.1691,3.1839,3.1821,3.1711,3.1504,3.1269,3.1032,3.0871,3.0634,3.0593,3.0855,3.1015,3.123,3.1462,3.1709,3.1929,3.202,3.2249,3.2405,3.2371,3.2301,3.2037,3.1617,3.1235,3.0699,3.0103,2.9681,2.9457,2.9366,2.9412,2.9473,2.9518,2.9608,2.9697,2.9689,2.899,2.8304,2.7737,2.6911,2.6138,2.5619,2.5474,2.5972,2.688,2.7451,2.8212,2.9002,2.9387,2.947,2.9196,2.89,2.8619,2.8372,2.8249,2.8122,2.7992,2.7932,2.784,2.769,2.7488,2.7335,3.0493,3.0654,3.0671,3.0866,3.0844,3.103,3.1154,3.1027,3.0527,3.0202,2.9941,2.9241,2.8703,2.8282,2.7961,2.7582,2.7244,2.7117,2.6973,2.6708,2.6623,2.6537,2.645,2.6274,2.6043,2.5807,2.5339,2.5068,2.5005,2.5005,2.5005,2.5005,2.5068,2.4989,2.4806,2.4886,2.4846,2.463,2.4498,2.4457,2.4457,2.4204,2.4204,2.44,2.4364,2.4353,2.4364,2.53,2.6293,2.7368,2.8419,2.9772,3.0987,3.1466,3.1671,3.1746,3.1671,3.1504,3.1295,3.1038,3.0814,3.0692,3.0568,3.0609,3.0855,3.0992,3.1151,3.1462,3.1688,3.1819,3.1894,3.202,3.2144,3.2179,3.2001,3.1783,3.1466,3.0998,3.0401,2.9726,2.9412,2.9259,2.9167,2.9259,2.9366,2.9473,2.9608,2.9681,2.9641,2.8699,2.7826,2.7478,2.6661,2.575,2.5512,2.5452,2.6134,2.6828,2.7221,2.7838,2.8777,2.935,2.9055,2.8807,2.8072,2.7732,2.7333,2.7242,2.7332,2.7263,2.7353,2.755,2.7488,2.735,2.7144,3.2076,3.209,3.2276,3.2062,3.169,3.1891,3.1719,3.119,3.1027,3.0625,3.0006,2.9606,2.8936,2.819,2.7789,2.7448,2.7055,2.6908,2.6742,2.6623,2.6554,2.645,2.6274,2.6096,2.577,2.5362,2.5146,2.5045,2.5037,2.5076,2.5068,2.5068,2.5162,2.5162,2.4989,2.4989,2.4886,2.4742,2.4645,2.4564,2.4564,2.4508,2.4508,2.4564,2.4508,2.4549,2.4677,2.5051,2.5775,2.688,2.7858,2.9274,3.0847,3.1351,3.1466,3.1538,3.1423,3.1196,3.0965,3.074,3.0609,3.0485,3.0443,3.0609,3.0855,3.0935,3.1134,3.1423,3.1596,3.1728,3.1875,3.1893,3.1965,3.2108,3.1929,3.1671,3.1295,3.0601,3.0,2.9592,2.9321,2.9213,2.9213,2.9305,2.935,2.9473,2.9563,2.9608,2.9383,2.8426,2.7589,2.7428,2.6373,2.5556,2.541,2.5374,2.5831,2.6395,2.684,2.7392,2.8326,2.8774,2.8572,2.8028,2.7314,2.6746,2.6366,2.626,2.6349,2.6663,2.6864,2.7076,2.7282,2.7248,2.6989,3.2758,3.2823,3.2979,3.2834,3.2463,3.269,3.2502,3.1983,3.1755,3.1128,3.0341,2.9755,2.8933,2.797,2.7569,2.7261,2.6875,2.6725,2.6589,2.6503,2.6415,2.631,2.6079,2.5844,2.5686,2.5528,2.5425,2.5543,2.5821,2.583,2.5783,2.5616,2.5662,2.5518,2.5139,2.5107,2.5021,2.4902,2.4806,2.4751,2.4726,2.4686,2.467,2.471,2.467,2.4686,2.4782,2.4902,2.5441,2.6629,2.7879,2.9459,3.1038,3.1274,3.1312,3.1346,3.123,3.1015,3.074,3.0551,3.0443,3.0417,3.0401,3.0526,3.0831,3.0935,3.1095,3.1423,3.1538,3.1634,3.1802,3.1783,3.1765,3.1875,3.1763,3.1483,3.1021,3.0309,2.9766,2.9502,2.9321,2.9229,2.9213,2.935,2.9366,2.9412,2.9473,2.9342,2.9022,2.8212,2.765,2.7106,2.6251,2.5663,2.5349,2.5384,2.5536,2.5941,2.6439,2.6999,2.7718,2.7803,2.7682,2.6912,2.6176,2.5555,2.5136,2.5289,2.5392,2.5839,2.6281,2.6698,2.6909,2.7011,2.6899,3.2608,3.2805,3.2965,3.3024,3.3063,3.3332,3.3382,3.3281,3.2682,3.1745,3.0756,2.9855,2.8729,2.7757,2.7324,2.7038,2.6742,2.6572,2.6434,2.6312,2.6222,2.6129,2.6081,2.5762,2.5846,2.6172,2.6154,2.6439,2.6894,2.7009,2.6955,2.6414,2.639,2.6078,2.5463,2.5304,2.5178,2.5005,2.5005,2.4966,2.4966,2.4886,2.4846,2.4966,2.4751,2.4686,2.4766,2.4972,2.5488,2.6663,2.8497,2.9984,3.1009,3.1312,3.1252,3.119,3.1055,3.0814,3.0568,3.0401,3.0316,3.0333,3.0359,3.0526,3.0773,3.0912,3.1072,3.1423,3.1462,3.1576,3.1671,3.1671,3.1617,3.1596,3.15,3.1173,3.0593,3.013,2.9782,2.9547,2.9366,2.9275,2.9183,2.9305,2.9366,2.935,2.938,2.9201,2.8594,2.7918,2.729,2.6639,2.6002,2.5641,2.5333,2.5326,2.5408,2.5457,2.5857,2.634,2.6851,2.6889,2.6694,2.5916,2.519,2.4517,2.4206,2.4388,2.47,2.5144,2.5653,2.6191,2.6513,2.6651,2.6832,3.2557,3.2672,3.2916,3.3042,3.3147,3.3375,3.347,3.3334,3.3099,3.2013,3.0701,3.0074,2.8947,2.7504,2.7152,2.6892,2.6674,2.6537,2.638,2.6222,2.6043,2.6188,2.6341,2.6221,2.639,2.6856,2.6894,2.6973,2.719,2.7486,2.7426,2.7251,2.6913,2.6518,2.6149,2.5621,2.5256,2.5107,2.5084,2.5029,2.5005,2.4989,2.5005,2.4982,2.4806,2.4782,2.4885,2.5471,2.635,2.7485,2.8824,3.0028,3.0954,3.1095,3.1095,3.1015,3.0814,3.0609,3.0443,3.0231,3.0103,3.0103,3.0231,3.0401,3.0749,3.0831,3.1055,3.1274,3.1351,3.1406,3.1538,3.1538,3.1462,3.1308,3.1213,3.0952,3.0526,3.0146,2.9842,2.9547,2.9366,2.9305,2.9259,2.9305,2.935,2.9289,2.9257,2.9019,2.8271,2.7812,2.7192,2.6527,2.5956,2.5635,2.5371,2.5333,2.5249,2.5084,2.5287,2.5587,2.5928,2.6094,2.5749,2.5177,2.4474,2.3849,2.3687,2.3718,2.4058,2.4496,2.4901,2.5462,2.6104,2.6418,2.6686,3.2507,3.2639,3.2852,3.3011,3.3117,3.3316,3.3364,3.3292,3.3099,3.2049,3.0609,3.0099,2.8955,2.7348,2.7023,2.6809,2.6606,2.6554,2.6434,2.6272,2.6303,2.6439,2.6581,2.6671,2.715,2.7689,2.7753,2.7987,2.8254,2.8415,2.8356,2.8091,2.7786,2.7348,2.6816,2.6174,2.5726,2.556,2.5353,2.5146,2.5084,2.5068,2.5045,2.4942,2.4822,2.482,2.5252,2.634,2.7448,2.8306,2.9098,2.9926,3.0874,3.0975,3.0975,3.0952,3.0651,3.0485,3.0333,3.0103,3.0017,3.0017,3.0146,3.03,3.0609,3.0773,3.1015,3.1196,3.1257,3.1368,3.1423,3.144,3.1286,3.1112,3.0895,3.0708,3.0417,3.006,2.977,2.9547,2.9412,2.9259,2.9213,2.9259,2.9259,2.9213,2.9213,2.8598,2.7886,2.7567,2.7198,2.6583,2.6358,2.6221,2.6062,2.6038,2.564,2.5392,2.4916,2.5129,2.5064,2.5259,2.4844,2.4368,2.3804,2.3377,2.326,2.326,2.3491,2.388,2.4258,2.4859,2.5573,2.6025,2.6323,3.2491,3.2639,3.2802,3.2979,3.3104,3.3214,3.3262,3.3201,3.2979,3.1951,3.0614,3.0012,2.9037,2.731,2.7453,2.7097,2.6926,2.7042,2.6837,2.6839,2.6977,2.7183,2.7074,2.7444,2.8014,2.8522,2.8618,2.8966,2.9283,2.9553,2.9399,2.8968,2.8773,2.8333,2.7506,2.6824,2.6407,2.6062,2.5543,2.524,2.5146,2.5107,2.5068,2.4918,2.4954,2.5311,2.6146,2.7277,2.8382,2.9056,2.9305,2.9995,3.0828,3.0912,3.0788,3.0647,3.0319,3.0112,2.9959,2.9734,2.9811,2.9778,3.0005,3.0258,3.0485,3.0733,3.1059,3.1388,3.137,3.155,3.1572,3.1387,3.1128,3.0912,3.0651,3.0443,3.0274,2.9946,2.9637,2.9502,2.9366,2.9259,2.9167,2.9167,2.9213,2.9183,2.9074,2.8632,2.8075,2.7806,2.7332,2.6734,2.6776,2.6953,2.6872,2.6798,2.63,2.581,2.5017,2.4751,2.446,2.4371,2.4006,2.361,2.3363,2.3143,2.2934,2.3018,2.3129,2.3406,2.3876,2.453,2.5183,2.5429,2.572,3.2523,3.2588,3.2802,3.2948,3.3042,3.3104,3.3055,3.2979,3.2737,3.1923,3.0903,3.0456,2.9677,2.8594,2.8472,2.8448,2.8222,2.8169,2.8139,2.7899,2.8385,2.8478,2.832,2.8388,2.878,2.9235,2.9412,2.9553,2.9726,2.977,2.981,2.9599,2.9097,2.864,2.8281,2.7203,2.6431,2.6222,2.5702,2.5342,2.5249,2.5313,2.525,2.51,2.5387,2.6193,2.7237,2.8053,2.886,2.9583,2.9953,3.0228,3.0599,3.0707,3.0432,2.9895,2.9527,2.9132,2.8666,2.8884,2.9075,2.9215,2.9825,3.0274,3.0401,3.0692,3.1197,3.1729,3.2036,3.2032,3.2015,3.1415,3.0979,3.0733,3.0485,3.0172,3.0,2.9853,2.9649,2.9441,2.9305,2.9259,2.9121,2.9121,2.9137,2.9091,2.8963,2.8711,2.8357,2.8013,2.7684,2.7182,2.7364,2.7591,2.7586,2.7269,2.6408,2.5816,2.5055,2.4482,2.4193,2.4018,2.3891,2.3569,2.3157,2.2905,2.2709,2.2752,2.2925,2.3201,2.345,2.3989,2.4515,2.4805,2.5299,3.2539,3.2639,3.282,3.2948,3.2979,3.3011,3.293,3.277,3.2539,3.1811,3.0942,3.0573,2.9945,2.9153,2.9028,2.8921,2.8901,2.8807,2.8732,2.8669,2.8985,2.913,2.9318,2.9265,2.9447,2.977,2.977,2.9786,2.983,2.9874,2.9918,2.9902,2.9497,2.9313,2.8952,2.7743,2.709,2.68,2.6262,2.5837,2.5719,2.6014,2.6109,2.603,2.6424,2.7165,2.7924,2.8589,2.9235,2.9767,2.9894,2.9931,3.0135,3.0102,2.9705,2.9118,2.8721,2.8412,2.8152,2.8419,2.8822,2.879,2.9652,3.0074,3.0375,3.0609,3.1182,3.1825,3.2133,3.2174,3.2158,3.1453,3.0881,3.0609,3.0359,3.0103,2.9842,2.9694,2.956,2.935,2.9259,2.9167,2.9137,2.9121,2.9121,2.9137,2.9198,2.8928,2.8376,2.8112,2.8195,2.7977,2.8098,2.8236,2.8233,2.7646,2.6435,2.567,2.4833,2.4416,2.4109,2.4036,2.4029,2.357,2.3155,2.2754,2.2601,2.2629,2.2732,2.285,2.3144,2.3496,2.3862,2.4283,2.4921,3.2557,3.2606,3.2802,3.2934,3.2965,3.2916,3.282,3.2621,3.2353,3.1742,3.0992,3.0653,3.0231,2.9593,2.9468,2.9347,2.9306,2.9206,2.9303,2.942,2.9337,2.9538,2.9708,2.9777,2.9793,2.9918,2.9874,2.9874,2.9902,2.9918,2.9918,2.9902,2.9902,2.9717,2.9371,2.8398,2.7639,2.749,2.6792,2.6439,2.6461,2.684,2.6963,2.7095,2.7337,2.7881,2.8408,2.8984,2.9544,2.9941,2.9417,2.9272,2.9268,2.9258,2.8897,2.8235,2.7941,2.762,2.7525,2.8021,2.8563,2.866,2.9636,3.0156,3.029,3.0567,3.125,3.1876,3.2312,3.2378,3.2202,3.134,3.0792,3.0526,3.0274,3.0017,2.9726,2.9563,2.9473,2.9305,2.9213,2.9121,2.9167,2.9213,2.9213,2.9167,2.9243,2.9146,2.8608,2.8399,2.8519,2.8714,2.8796,2.8517,2.8474,2.746,2.633,2.5707,2.4848,2.4544,2.4292,2.4249,2.4179,2.3642,2.3178,2.2948,2.2808,2.2865,2.2883,2.2729,2.2824,2.3207,2.3514,2.3804,2.4486,3.2606,3.2588,3.2802,3.2884,3.2838,3.2805,3.2674,3.2439,3.2179,3.186,3.1465,3.1223,3.0968,3.0772,3.0801,3.0746,3.046,3.0212,3.0144,3.0079,2.9884,2.9892,2.9853,2.9918,2.9918,2.9918,2.9918,2.9902,2.9946,2.9946,2.9918,2.9918,2.9918,2.983,2.9399,2.8479,2.7953,2.7987,2.7217,2.6821,2.7037,2.7264,2.7506,2.7695,2.7992,2.8395,2.8987,2.939,2.9786,2.9908,2.9401,2.8829,2.8441,2.8316,2.7921,2.7399,2.7087,2.6792,2.6464,2.7251,2.7786,2.8216,2.931,3.0123,3.0274,3.0551,3.1308,3.2326,3.2804,3.2923,3.2864,3.16,3.0701,3.0434,3.0205,2.9902,2.9637,2.9518,2.9412,2.9213,2.9167,2.9121,2.9213,2.9305,2.9366,2.9321,2.9305,2.9335,2.9051,2.8955,2.9125,2.9278,2.9432,2.9014,2.8618,2.727,2.6093,2.577,2.5197,2.4972,2.4734,2.4626,2.4387,2.4136,2.3898,2.3688,2.3535,2.3302,2.3098,2.3008,2.3016,2.302,2.3458,2.388,2.4061,3.2557,3.2557,3.2672,3.2737,3.2707,3.2608,3.2457,3.2232,3.1965,3.1691,3.1449,3.1312,3.123,3.119,3.119,3.1112,3.0952,3.0692,3.0485,3.0274,3.0119,2.9989,2.9918,2.9918,2.9918,2.9946,2.9902,2.9902,2.9946,2.9902,2.9918,2.9918,2.9918,2.9874,2.962,2.8785,2.8361,2.8292,2.779,2.745,2.7723,2.7901,2.8241,2.8415,2.8525,2.8851,2.93,2.9502,2.9532,2.9345,2.8837,2.8199,2.765,2.7109,2.6782,2.6412,2.6271,2.6027,2.5815,2.6744,2.7524,2.7817,2.916,3.0005,3.0231,3.0558,3.1382,3.255,3.3428,3.3456,3.2994,3.1755,3.0955,3.0356,3.006,2.9798,2.9547,2.9457,2.9305,2.9198,2.9213,2.9259,2.9305,2.9412,2.9457,2.9457,2.9412,2.9366,2.9305,2.935,2.9412,2.947,2.9496,2.8938,2.843,2.7381,2.6283,2.5921,2.5675,2.5462,2.545,2.544,2.5275,2.5092,2.4832,2.449,2.402,2.3686,2.3474,2.3374,2.3482,2.3572,2.3705,2.3923,2.4202,3.2507,3.2489,3.2573,3.2573,3.2557,3.2405,3.2249,3.2018,3.1691,3.1521,3.1312,3.1213,3.119,3.119,3.1151,3.1072,3.0871,3.0609,3.0401,3.0189,3.0076,2.993,2.9918,2.9902,2.987,2.9842,2.9798,2.9858,2.9902,2.9858,2.9858,2.9858,2.9874,2.9874,2.9653,2.8936,2.8748,2.865,2.8375,2.8224,2.8465,2.8728,2.8998,2.9091,2.9013,2.909,2.9412,2.9518,2.9472,2.9124,2.8444,2.7688,2.7114,2.6189,2.5642,2.5626,2.5584,2.5508,2.5731,2.6671,2.7474,2.7679,2.9091,2.9837,3.0353,3.083,3.158,3.2679,3.3273,3.3473,3.2768,3.1808,3.0942,3.0342,2.9913,2.9694,2.9502,2.9412,2.9366,2.9305,2.935,2.935,2.9457,2.9502,2.9608,2.9563,2.9502,2.9473,2.9412,2.9366,2.9396,2.9438,2.9275,2.8746,2.8179,2.7619,2.6783,2.6314,2.6201,2.6047,2.6214,2.6346,2.6154,2.5821,2.5553,2.5199,2.464,2.4219,2.423,2.4202,2.4119,2.417,2.4385,2.4592,2.4825,3.2507,3.2489,3.2573,3.2523,3.2422,3.2267,3.2073,3.1819,3.1614,3.1462,3.1312,3.123,3.119,3.119,3.1072,3.0992,3.0831,3.0584,3.0316,3.0189,3.0033,2.9902,2.9902,2.9793,2.9722,2.9754,2.9649,2.9722,2.9842,2.977,2.9786,2.9814,2.9786,2.9742,2.9661,2.9058,2.8842,2.9029,2.8573,2.8468,2.8837,2.9012,2.9075,2.9075,2.9075,2.9183,2.9428,2.9518,2.9508,2.9502,2.8369,2.7737,2.7365,2.6186,2.5599,2.5432,2.5432,2.5394,2.5605,2.6582,2.7544,2.7895,2.9038,2.9794,3.0402,3.1331,3.2199,3.2608,3.28,3.2706,3.2237,3.1062,3.0217,2.9907,2.9758,2.9595,2.9414,2.9412,2.9366,2.9366,2.9366,2.9502,2.9592,2.9653,2.9697,2.9653,2.9592,2.9502,2.9361,2.9265,2.9278,2.9271,2.9307,2.8814,2.8323,2.7715,2.732,2.6828,2.6717,2.6741,2.6919,2.7028,2.6703,2.6418,2.6162,2.5816,2.5326,2.5077,2.5027,2.4959,2.4888,2.4911,2.5055,2.5281,2.5466,3.2371,3.2457,3.2473,3.2405,3.2267,3.2108,3.1912,3.1671,3.1466,3.1329,3.1252,3.123,3.119,3.1168,3.1032,3.0952,3.0831,3.0501,3.029,3.0146,2.9989,2.9874,2.977,2.9754,2.9665,2.9576,2.9531,2.9531,2.9681,2.9653,2.9653,2.9742,2.9697,2.9653,2.9653,2.9243,2.9141,2.9146,2.8944,2.8883,2.9012,2.9029,2.9029,2.9075,2.9013,2.9167,2.9412,2.9518,2.9323,2.9097,2.8107,2.7404,2.6848,2.5965,2.5333,2.5194,2.5576,2.5751,2.5967,2.6745,2.7402,2.8196,2.9081,2.9837,3.0315,3.121,3.1973,3.1907,3.2274,3.2216,3.1876,3.0933,3.0554,3.0226,2.99,2.9795,2.9671,2.9414,2.9366,2.9366,2.9412,2.9502,2.9547,2.9563,2.9563,2.9563,2.9451,2.9294,2.907,2.8842,2.8914,2.906,2.909,2.9022,2.8578,2.8033,2.7917,2.7564,2.7371,2.7395,2.7641,2.7637,2.7184,2.6821,2.648,2.6222,2.5921,2.5739,2.5582,2.5587,2.5584,2.5668,2.5712,2.5814,2.5883,3.2232,3.2319,3.2336,3.2232,3.2073,3.1875,3.1674,3.1504,3.1295,3.1173,3.1134,3.1151,3.1151,3.1151,3.0992,3.0871,3.0831,3.0401,3.0189,3.0103,2.9989,2.983,2.9742,2.9653,2.9563,2.9457,2.9366,2.9366,2.9366,2.9428,2.9473,2.9697,2.9563,2.9518,2.9547,2.9393,2.9273,2.9182,2.9136,2.909,2.9091,2.8982,2.9045,2.9075,2.9059,2.9121,2.9457,2.9457,2.9182,2.8886,2.7955,2.7224,2.6621,2.5767,2.5306,2.5298,2.5683,2.6157,2.6562,2.7178,2.7735,2.8435,2.9215,2.9902,3.0131,3.0838,3.1536,3.1655,3.2196,3.2118,3.1651,3.1302,3.0969,3.0685,3.0353,3.0275,3.0164,2.9877,2.9542,2.935,2.935,2.9412,2.9412,2.9428,2.9428,2.9473,2.9374,2.9134,2.8842,2.8576,2.8694,2.8876,2.9242,2.9259,2.8978,2.8602,2.8437,2.8255,2.8058,2.7984,2.8134,2.7849,2.7399,2.7049,2.6808,2.652,2.6242,2.6153,2.6127,2.6243,2.6344,2.6344,2.6389,2.6404,2.6244,3.2179,3.2108,3.2108,3.2001,3.1819,3.1634,3.1466,3.1312,3.1055,3.0975,3.1032,3.1015,3.1095,3.1112,3.0992,3.0831,3.0692,3.0359,3.0146,3.0017,2.9902,2.983,2.9697,2.9563,2.9428,2.9305,2.9213,2.9183,2.9183,2.9213,2.9412,2.9592,2.9412,2.9412,2.9412,2.935,2.9213,2.9167,2.9121,2.9121,2.9137,2.9075,2.9121,2.9213,2.9167,2.9275,2.9653,2.9457,2.9303,2.9154,2.7933,2.7248,2.6725,2.5648,2.5237,2.566,2.5904,2.6541,2.7227,2.7598,2.8028,2.8654,2.9258,2.9842,2.9874,3.1164,3.1797,3.1753,3.2046,3.2386,3.2144,3.195,3.131,3.1197,3.091,3.064,3.0529,3.0291,2.9941,2.948,2.9305,2.9366,2.9321,2.9275,2.9366,2.9428,2.9211,2.8954,2.8721,2.8501,2.8592,2.8828,2.9339,2.9524,2.9454,2.9175,2.891,2.8697,2.8528,2.8451,2.8427,2.8046,2.7778,2.7388,2.7132,2.6814,2.6563,2.6533,2.6615,2.6931,2.7012,2.6784,2.6586,2.6491,2.6312,3.2073,3.1984,3.1839,3.1783,3.18,3.1596,3.1406,3.1213,3.0992,3.0952,3.0992,3.1032,3.1015,3.1015,3.0952,3.0773,3.0568,3.0316,3.0146,2.9989,2.9874,2.9697,2.9563,2.9457,2.9321,2.9213,2.9137,2.9091,2.9137,2.9167,2.9259,2.935,2.9259,2.9366,2.9366,2.9305,2.9167,2.9167,2.9167,2.9167,2.9121,2.9167,2.9213,2.9167,2.9137,2.9213,2.9396,2.9275,2.9198,2.8742,2.7643,2.7199,2.691,2.5765,2.5551,2.6047,2.6359,2.7007,2.7607,2.7948,2.8223,2.8907,2.9403,2.9681,2.9653,3.0569,3.0877,3.107,3.1581,3.204,3.1621,3.1446,3.1304,3.1539,3.1523,3.1207,3.0908,3.0703,3.018,2.9594,2.9386,2.9259,2.9213,2.9121,2.9229,2.9335,2.907,2.8833,2.8613,2.8505,2.8611,2.8806,2.9286,2.9556,2.9502,2.9412,2.9243,2.9138,2.8999,2.8979,2.8873,2.8662,2.8344,2.7906,2.7515,2.7321,2.7084,2.6919,2.6951,2.7041,2.7078,2.6967,2.6826,2.6592,2.6433,3.1984,3.1839,3.1691,3.1634,3.1634,3.1445,3.1252,3.1112,3.0871,3.0871,3.0992,3.0975,3.0975,3.0992,3.0912,3.0733,3.0485,3.0274,3.0103,2.9946,2.9786,2.9608,2.9457,2.9366,2.9259,2.9137,2.9091,2.9091,2.9137,2.9167,2.9259,2.9259,2.9167,2.9275,2.9321,2.9213,2.9091,2.9121,2.9213,2.9259,2.9152,2.9259,2.9305,2.9229,2.9183,2.9229,2.9259,2.9152,2.8809,2.8294,2.7518,2.6918,2.652,2.6168,2.5909,2.6352,2.6934,2.7442,2.7876,2.8261,2.8616,2.9162,2.9409,2.9473,2.9557,3.0037,3.0783,3.0686,3.1187,3.1589,3.1502,3.1876,3.2037,3.23,3.2293,3.2045,3.1492,3.1146,3.0418,2.9753,2.95,2.9229,2.9213,2.9167,2.9275,2.9284,2.897,2.878,2.8666,2.8579,2.8611,2.8854,2.9216,2.9424,2.9518,2.9489,2.9432,2.9643,2.9516,2.9524,2.9412,2.921,2.8967,2.8542,2.8155,2.7827,2.7555,2.7351,2.7185,2.7033,2.7003,2.6974,2.6736,2.651,2.6472,3.1875,3.1783,3.1671,3.1504,3.1334,3.1117,3.0992,3.0912,3.0651,3.0692,3.0871,3.0912,3.0895,3.0935,3.0912,3.0708,3.0401,3.0231,3.006,2.9814,2.9697,2.9547,2.9412,2.9305,2.9213,2.9121,2.9075,2.9091,2.9091,2.9167,2.9213,2.9229,2.9183,2.9167,2.9305,2.9167,2.9137,2.9137,2.9259,2.9305,2.9305,2.9305,2.9366,2.9321,2.9229,2.9213,2.9213,2.8809,2.8436,2.8,2.721,2.6608,2.627,2.6012,2.6103,2.6768,2.705,2.7624,2.8418,2.895,2.9166,2.9182,2.9305,2.9275,2.9422,3.0164,3.0835,3.0639,3.1711,3.2453,3.2725,3.2833,3.2839,3.2829,3.2809,3.2613,3.2029,3.1381,3.0638,2.9864,2.9406,2.9137,2.9183,2.9213,2.9337,2.9249,2.8902,2.8742,2.8666,2.8806,2.8903,2.8903,2.92,2.9424,2.9579,2.9598,2.9653,2.9911,3.0049,3.0068,3.0058,2.9924,2.9627,2.9193,2.8855,2.8569,2.8148,2.7744,2.7336,2.6928,2.6951,2.687,2.663,2.6597,2.6726,3.1875,3.18,3.1596,3.1423,3.1213,3.1055,3.0895,3.0733,3.0609,3.0593,3.0733,3.0773,3.0773,3.0773,3.0773,3.0568,3.0333,3.0231,3.0033,2.9814,2.9637,2.9563,2.9412,2.9259,2.9106,2.9013,2.9013,2.9029,2.8967,2.9106,2.9167,2.9183,2.9137,2.9121,2.9167,2.9121,2.9137,2.9259,2.9366,2.9412,2.9428,2.9444,2.9444,2.9428,2.9167,2.9121,2.909,2.8451,2.8031,2.7781,2.6985,2.6429,2.6464,2.6351,2.646,2.7066,2.7429,2.7765,2.835,2.8763,2.8998,2.9076,2.9059,2.9029,2.8936,2.9959,3.0351,3.0763,3.1713,3.2329,3.2398,3.2726,3.2873,3.2926,3.2876,3.2735,3.2266,3.1571,3.086,3.0068,2.9517,2.9217,2.9121,2.9215,2.9323,2.9587,2.9371,2.9065,2.8935,2.9259,2.9437,2.9162,2.9275,2.9456,2.9672,3.0028,3.0209,3.0402,3.0616,3.069,3.0674,3.0624,3.0303,2.9859,2.9572,2.9241,2.8443,2.7733,2.7157,2.677,2.6895,2.6924,2.6857,2.6967,2.7285,3.1856,3.1763,3.1576,3.1385,3.1207,3.1032,3.0814,3.0634,3.0526,3.0568,3.0692,3.0692,3.0692,3.0692,3.0593,3.0468,3.0205,3.0146,3.0017,2.9814,2.9608,2.9473,2.9366,2.9229,2.9075,2.9029,2.9029,2.9075,2.9013,2.9152,2.9167,2.9137,2.9169,2.9373,2.9468,2.9641,2.9641,2.9876,3.0096,3.0268,3.0108,2.9886,2.9683,2.94,2.9121,2.8982,2.867,2.8279,2.778,2.7494,2.6988,2.6381,2.6707,2.6834,2.676,2.7232,2.788,2.8299,2.8939,2.928,2.949,2.9428,2.9027,2.8716,2.8757,2.9643,3.013,3.0624,3.1472,3.1971,3.2312,3.2672,3.2897,3.2951,3.3002,3.2861,3.2593,3.1848,3.1011,3.0254,2.9469,2.9202,2.9029,2.92,2.9294,2.9637,2.9932,2.9585,2.9329,2.9777,3.0117,2.9939,2.9927,3.0371,3.0571,3.0702,3.0863,3.0924,3.1118,3.1296,3.1413,3.1369,3.0979,3.051,3.0176,2.9623,2.8475,2.7668,2.7335,2.7054,2.6985,2.7025,2.706,2.7411,2.7792,3.18,3.1763,3.1576,3.1363,3.119,3.0912,3.0692,3.0485,3.0468,3.0568,3.0692,3.0651,3.0651,3.0651,3.0568,3.0401,3.0189,3.006,2.993,2.9726,2.9547,2.9457,2.9353,2.9324,2.9296,2.9233,2.9328,2.9612,2.9249,2.9532,2.9516,2.939,2.9564,2.9911,3.0275,3.0577,3.0592,3.0719,3.0957,3.0939,3.0585,3.0445,2.9938,2.9435,2.9029,2.8795,2.848,2.8117,2.7712,2.7361,2.7046,2.6707,2.6644,2.6733,2.6886,2.7365,2.8159,2.9026,2.9598,2.9852,2.9898,2.9587,2.9073,2.8593,2.8682,2.9348,2.9709,3.0304,3.1067,3.1765,3.2275,3.2586,3.2912,3.3005,3.315,3.2977,3.2782,3.2118,3.1236,3.0357,2.9435,2.9014,2.8951,2.9076,2.9295,2.9909,3.024,3.03,3.018,3.0574,3.0911,3.0975,3.1092,3.1483,3.1614,3.1438,3.1516,3.1573,3.1726,3.1933,3.2059,3.1886,3.1327,3.088,3.0764,3.0119,2.9013,2.8233,2.7744,2.7533,2.7438,2.748,2.7578,2.8065,2.8426,3.18,3.1763,3.1483,3.1252,3.0975,3.0468,3.0274,3.0274,3.0359,3.0443,3.0501,3.0526,3.0568,3.0568,3.0468,3.0316,3.0189,3.0076,2.9946,2.977,2.9608,2.9518,2.9526,2.9657,2.9769,2.9927,3.0179,3.0385,3.0446,3.0495,3.0576,3.0735,3.0545,3.0895,3.131,3.1855,3.1662,3.1646,3.1887,3.1436,3.0955,3.0654,2.991,2.9234,2.8795,2.8558,2.8286,2.7789,2.7413,2.7435,2.6792,2.6488,2.6879,2.6878,2.7001,2.7676,2.8527,2.9316,2.952,2.978,2.9863,2.9681,2.907,2.8839,2.8788,2.9037,2.9422,2.9946,3.0708,3.1397,3.1959,3.2307,3.2594,3.2763,3.2839,3.2729,3.2457,3.181,3.0963,3.0114,2.9164,2.8904,2.8889,2.892,2.9264,2.999,3.0529,3.0735,3.1052,3.1404,3.1562,3.1643,3.187,3.2176,3.2063,3.1868,3.2088,3.2203,3.2337,3.2353,3.2198,3.1962,3.1495,3.1116,3.0675,3.0221,2.9523,2.8885,2.8251,2.8183,2.8154,2.8168,2.8211,2.8684,2.9014,3.1709,3.1671,3.1389,3.1038,3.0634,3.013,2.9913,2.9989,3.0146,3.0274,3.0401,3.0443,3.0443,3.0443,3.0375,3.0248,3.0119,3.0033,2.9946,2.983,2.9653,2.9518,2.9667,2.9958,3.0069,3.0385,3.0747,3.0984,3.1205,3.1223,3.1258,3.1308,3.1453,3.1757,3.2095,3.2433,3.269,3.2691,3.2546,3.1983,3.1342,3.0688,2.9927,2.8951,2.8573,2.8317,2.8057,2.7425,2.7459,2.7464,2.6796,2.6718,2.7062,2.7103,2.7817,2.8525,2.9189,2.9758,3.0122,3.0321,3.0112,2.9739,2.9379,2.9267,2.9063,2.9146,2.9173,2.9398,3.025,3.1067,3.155,3.2004,3.2213,3.2353,3.2382,3.2357,3.1852,3.1249,3.053,2.9732,2.9208,2.8903,2.8795,2.8873,2.9328,3.0354,3.1101,3.1548,3.1821,3.2143,3.2176,3.2176,3.2449,3.2736,3.2556,3.2456,3.2558,3.2708,3.2667,3.2633,3.2453,3.1936,3.1437,3.0925,3.0499,3.006,2.974,2.9305,2.8843,2.8768,2.8734,2.872,2.8805,2.9118,2.9511,3.1579,3.1559,3.1252,3.0757,3.0172,2.9853,2.9649,2.9563,2.9814,3.0103,3.0274,3.0359,3.0359,3.0333,3.0248,3.0103,3.0033,2.9946,2.9902,2.9874,2.9653,2.9563,2.9651,3.0037,3.0449,3.0591,3.1049,3.1757,3.1539,3.1734,3.1879,3.1563,3.1853,3.2352,3.2933,3.298,3.3173,3.3398,3.3072,3.2558,3.1612,3.0954,3.0201,2.8742,2.8268,2.8088,2.789,2.771,2.7655,2.7437,2.7269,2.71,2.7243,2.7719,2.8635,2.9245,2.971,3.0177,3.0514,3.0745,3.0565,3.025,2.9953,2.978,2.9501,2.9249,2.919,2.9644,3.0582,3.118,3.1694,3.2104,3.2391,3.2275,3.2151,3.1949,3.1508,3.082,2.9964,2.9277,2.8956,2.8698,2.8779,2.8889,2.9469,3.0605,3.1304,3.1847,3.2453,3.2761,3.2764,3.2686,3.286,3.3115,3.3125,3.3054,3.3108,3.314,3.2973,3.2742,3.2453,3.1936,3.1321,3.0881,3.0453,3.0264,2.9885,2.9579,2.933,2.9268,2.9217,2.9252,2.9374,2.9563,2.9775,3.1559,3.1462,3.0781,3.0326,3.0017,2.947,2.9366,2.9473,2.9366,2.9528,2.9941,3.013,3.0231,3.0189,3.0044,2.9913,2.993,2.9858,2.9814,2.983,2.9697,2.9547,2.9745,3.0466,3.0894,3.1381,3.1981,3.2645,3.2633,3.28,3.2981,3.3083,3.3155,3.3417,3.3612,3.3544,3.3588,3.3678,3.2895,3.2238,3.125,3.0639,2.9902,2.8664,2.7955,2.7825,2.7675,2.7625,2.7539,2.7386,2.7284,2.7342,2.7559,2.8438,2.9103,2.9639,3.0031,3.044,3.0602,3.0631,3.0362,3.0193,2.9913,2.9931,2.978,2.9419,2.9607,3.0233,3.0753,3.1275,3.1747,3.2173,3.2422,3.2129,3.1905,3.1526,3.1149,3.0233,2.94,2.903,2.8676,2.8649,2.8763,2.9171,2.9815,3.0415,3.0968,3.1652,3.257,3.3049,3.3153,3.3125,3.3236,3.3391,3.345,3.3361,3.3256,3.315,3.2935,3.2742,3.2508,3.1879,3.1263,3.0866,3.0555,3.0335,3.0172,3.0064,2.99,2.9693,2.9497,2.9411,2.9454,2.9628,2.9856,3.1483,3.1329,3.0576,3.0087,2.9738,2.9305,2.9137,2.909,2.8805,2.8783,2.9159,2.9691,3.0027,2.9984,2.9853,2.9782,2.9858,2.9726,2.977,2.983,2.9786,2.9592,3.0032,3.0672,3.1036,3.1571,3.2613,3.3245,3.3414,3.3575,3.3681,3.3848,3.4,3.405,3.4101,3.3899,3.3642,3.3366,3.2374,3.141,3.0623,3.0048,2.9322,2.8197,2.779,2.7675,2.7625,2.7575,2.7524,2.7484,2.7461,2.7988,2.8378,2.9002,2.9507,2.9912,3.0187,3.0363,3.0309,3.0219,2.9933,2.9729,2.9918,2.9955,3.0295,3.0089,3.0452,3.099,3.0767,3.1145,3.1628,3.2033,3.1973,3.1774,3.1519,3.1219,3.0433,2.9443,2.895,2.8704,2.8537,2.8602,2.87,2.881,2.9516,3.0242,3.0828,3.1555,3.2471,3.323,3.333,3.3414,3.3346,3.3346,3.3256,3.315,3.3058,3.2951,3.2881,3.2468,3.2104,3.1724,3.1263,3.0807,3.0507,3.0478,3.0358,3.0219,3.0172,2.9983,2.9752,2.9574,2.9651,2.9699,2.9837,3.1266,3.11,3.0368,2.9886,2.947,2.9167,2.8889,2.8638,2.8198,2.8002,2.8088,2.895,2.9447,2.962,2.9705,2.971,2.9681,2.9653,2.9742,2.9786,2.9742,2.9608,2.9904,3.0482,3.0954,3.1744,3.2724,3.324,3.3503,3.371,3.3899,3.4117,3.4201,3.425,3.4,3.371,3.3398,3.2829,3.1964,3.086,3.006,2.9295,2.8622,2.8032,2.7675,2.761,2.756,2.7679,2.7643,2.781,2.7988,2.8519,2.9001,2.9433,2.9621,2.9997,3.0145,3.0046,2.9928,2.9935,2.9535,2.9334,2.9796,3.0289,3.0674,3.1068,3.1368,3.142,3.1212,3.1306,3.1737,3.1849,3.1758,3.1589,3.1336,3.092,2.992,2.9104,2.8935,2.8735,2.8753,2.8771,2.8947,2.9075,2.9547,3.0242,3.0907,3.1602,3.2313,3.2914,3.3277,3.3256,3.315,3.3165,3.3112,3.2989,3.2843,3.2827,3.2703,3.2176,3.1781,3.1495,3.1146,3.0613,3.0387,3.0433,3.0326,3.0172,3.0111,3.005,2.9803,2.9602,2.9665,2.9713,2.9761,3.0482,3.0418,2.9853,2.9531,2.9305,2.8889,2.8404,2.7952,2.775,2.7527,2.7383,2.7454,2.796,2.879,2.9233,2.9441,2.9547,2.9563,2.9653,2.9697,2.9681,2.9608,2.9699,3.0165,3.0984,3.1769,3.2577,3.3171,3.322,3.3588,3.3968,3.407,3.4234,3.4201,3.405,3.3694,3.3193,3.2538,3.1482,3.0358,2.994,2.9214,2.8454,2.7946,2.761,2.756,2.7679,2.8128,2.8204,2.8394,2.877,2.9189,2.9463,2.9662,2.9748,2.9694,2.9841,2.9681,2.9557,2.9744,2.9409,2.9659,3.019,3.0861,3.1305,3.1797,3.2135,3.2367,3.2273,3.2204,3.2462,3.2338,3.223,3.1936,3.1682,3.0859,2.992,2.9797,2.9766,2.9658,2.9612,2.9825,3.0133,3.0295,3.0566,3.1187,3.1586,3.2234,3.2598,3.2961,3.324,3.3096,3.3005,3.2951,3.2951,3.2757,3.2648,3.2648,3.2539,3.2135,3.1781,3.1509,3.1043,3.0493,3.0387,3.0447,3.028,3.0111,3.0036,2.9898,2.9727,2.9602,2.9665,2.9665,2.9713]},{"header":{"parameterUnit":"m.s-1","parameterCategory":1,"la1":31.0,"la2":29.5877,"lo1":-88.7671,"lo2":-86.6584,"dy":0.0162,"dx":0.0185,"nx":115,"ny":88,"refTime":"2023-10-08T18:00:00:Z","depth":0,"parameterNumber":3,"parameterNumberName":"V-component_of_WINDS"},"data":[0.0,0.0,0.0,0.0,0.0,0.0,0.0,0.0,0.0,0.0,0.0,0.0,0.0,0.0,0.0,0.0,0.0,0.0,0.0,0.0,0.0,0.0,0.0,0.0,0.0,0.0,0.0,0.0,0.0,0.0,0.0,0.0,0.0,0.0,0.0,0.0,0.0,0.0,0.0,0.0,0.0,0.0,0.0,0.0,0.0,0.0,0.0,0.0,0.0,0.0,0.0,0.0,0.0,0.0,0.0,0.0,0.0,0.0,0.0,0.0,0.0,0.0,0.0,0.0,0.0,0.0,0.0,0.0,0.0,0.0,0.0,0.0,0.0,0.0,0.0,0.0,0.0,0.0,0.0,0.0,0.0,0.0,0.0,0.0,0.0,0.0,0.0,0.0,0.0,0.0,0.0,0.0,0.0,0.0,0.0,0.0,0.0,0.0,0.0,0.0,0.0,0.0,0.0,0.0,0.0,0.0,0.0,0.0,0.0,0.0,0.0,0.0,0.0,0.0,0.0,0.0,0.0,0.0,0.0,0.0,0.0,0.0,0.0,0.0,0.0,0.0,0.0,0.0,0.0,0.0,0.0,0.0,0.0,0.0,0.0,0.0,0.0,0.0,0.0,0.0,0.0,0.0,0.0,0.0,0.0,0.0,0.0,0.0,0.0,0.0,0.0,0.0,0.0,0.0,0.0,0.0,0.0,0.0,0.0,0.0,0.0,0.0,0.0,0.0,0.0,0.0,0.0,0.0,0.0,0.0,0.0,0.0,0.0,0.0,0.0,0.0,0.0,0.0,0.0,0.0,0.0,0.0,0.0,0.0,0.0,0.0,0.0,0.0,0.0,0.0,0.0,0.0,0.0,0.0,0.0,0.0,0.0,0.0,0.0,0.0,0.0,0.0,0.0,0.0,0.0,0.0,0.0,0.0,0.0,0.0,0.0,0.0,0.0,0.0,0.0,0.0,0.0,0.0,0.0,0.0,0.0,0.0,0.0,0.0,0.0,0.0,0.0,0.0,0.0,0.0,0.0,0.0,0.0,0.0,0.0,0.0,0.0,0.0,0.0,0.0,0.0,0.0,0.0,0.0,0.0,0.0,0.0,0.0,0.0,0.0,0.0,0.0,0.0,0.0,0.0,0.0,0.0,0.0,0.0,0.0,0.0,0.0,0.0,0.0,0.0,0.0,0.0,0.0,0.0,0.0,0.0,0.0,0.0,0.0,0.0,0.0,0.0,0.0,0.0,0.0,0.0,0.0,0.0,0.0,0.0,0.0,0.0,0.0,0.0,0.0,0.0,0.0,0.0,0.0,0.0,0.0,0.0,0.0,0.0,0.0,0.0,0.0,0.0,0.0,0.0,0.0,0.0,0.0,0.0,0.0,0.0,0.0,0.0,0.0,0.0,0.0,0.0,0.0,0.0,0.0,0.0,0.0,0.0,0.0,0.0,0.0,0.0,0.0,0.0,0.0,0.0,0.0,0.0,0.0,0.0,0.0,0.0,0.0,0.0,0.0,0.0,0.0,0.0,0.0,0.0,0.0,0.0,0.0,0.0,0.0,0.0,0.0,0.0,0.0,0.0,0.0,0.0,0.0,0.0,0.0,0.0,0.0,0.0,0.0,0.0,0.0,0.0,0.0,0.0,0.0,0.0,0.0,0.0,0.0,0.0,0.0,0.0,0.0,0.0,0.0,0.0,0.0,0.0,0.0,0.0,0.0,0.0,0.0,0.0,0.0,0.0,0.0,0.0,0.0,0.0,0.0,0.0,0.0,0.0,0.0,0.0,0.0,0.0,0.0,0.0,0.0,0.0,0.0,0.0,0.0,0.0,0.0,0.0,0.0,0.0,0.0,0.0,0.0,0.0,0.0,0.0,0.0,0.0,0.0,0.0,0.0,0.0,0.0,0.0,0.0,0.0,0.0,0.0,0.0,0.0,0.0,0.0,0.0,0.0,0.0,0.0,0.0,0.0,0.0,0.0,0.0,0.0,0.0,0.0,0.0,0.0,0.0,0.0,0.0,0.0,0.0,0.0,0.0,0.0,0.0,0.0,0.0,0.0,0.0,0.0,0.0,0.0,0.0,0.0,0.0,0.0,0.0,0.0,0.0,0.0,0.0,0.0,0.0,0.0,0.0,0.0,0.0,0.0,0.0,0.0,0.0,0.0,0.0,0.0,0.0,0.0,0.0,0.0,0.0,0.0,0.0,0.0,0.0,0.0,0.0,0.0,0.0,0.0,0.0,0.0,0.0,0.0,0.0,0.0,0.0,0.0,0.0,0.0,0.0,0.0,0.0,0.0,0.0,0.0,0.0,0.0,0.0,0.0,0.0,0.0,0.0,0.0,0.0,0.0,0.0,0.0,0.0,0.0,0.0,0.0,0.0,0.0,0.0,0.0,0.0,0.0,0.0,0.0,0.0,0.0,0.0,0.0,0.0,0.0,0.0,0.0,0.0,0.0,0.0,0.0,0.0,0.0,0.0,0.0,0.0,0.0,0.0,0.0,0.0,0.0,0.0,0.0,0.0,0.0,0.0,0.0,0.0,0.0,0.0,0.0,0.0,0.0,0.0,0.0,0.0,0.0,0.0,0.0,0.0,0.0,0.0,0.0,0.0,0.0,0.0,0.0,0.0,0.0,0.0,0.0,0.0,0.0,0.0,0.0,0.0,0.0,0.0,0.0,0.0,0.0,0.0,0.0,0.0,0.0,0.0,0.0,0.0,0.0,0.0,0.0,0.0,0.0,0.0,0.0,0.0,0.0,0.0,0.0,0.0,0.0,0.0,0.0,0.0,0.0,0.0,0.0,0.0,0.0,0.0,0.0,0.0,0.0,0.0,0.0,0.0,0.0,0.0,0.0,0.0,0.0,0.0,0.0,0.0,0.0,0.0,0.0,0.0,0.0,0.0,0.0,0.0,0.0,0.0,0.0,0.0,0.0,0.0,0.0,0.0,0.0,0.0,0.0,0.0,0.0,0.0,0.0,0.0,0.0,0.0,0.0,0.0,0.0,0.0,0.0,0.0,0.0,0.0,0.0,0.0,0.0,0.0,0.0,0.0,0.0,0.0,0.0,0.0,0.0,0.0,0.0,0.0,0.0,0.0,0.0,0.0,0.0,0.0,0.0,0.0,0.0,0.0,0.0,0.0,0.0,0.0,0.0,0.0,0.0,0.0,0.0,0.0,0.0,0.0,0.0,0.0,0.0,0.0,0.0,0.0,0.0,0.0,0.0,0.0,0.0,0.0,0.0,0.0,0.0,0.0,0.0,0.0,0.0,0.0,0.0,0.0,0.0,0.0,0.0,0.0,0.0,0.0,0.0,0.0,0.0,0.0,0.0,0.0,0.0,0.0,0.0,0.0,0.0,0.0,0.0,0.0,0.0,0.0,0.0,0.0,0.0,0.0,0.0,0.0,0.0,0.0,0.0,0.0,0.0,0.0,0.0,0.0,0.0,0.0,0.0,0.0,0.0,0.0,0.0,0.0,0.0,0.0,0.0,0.0,0.0,0.0,0.0,0.0,0.0,0.0,0.0,0.0,0.0,0.0,0.0,0.0,0.0,0.0,0.0,0.0,0.0,0.0,0.0,0.0,0.0,0.0,0.0,0.0,0.0,0.0,0.0,0.0,0.0,0.0,0.0,0.0,0.0,0.0,0.0,0.0,0.0,0.0,0.0,0.0,0.0,0.0,0.0,0.0,0.0,0.0,0.0,0.0,0.0,0.0,0.0,0.0,0.0,0.0,0.0,0.0,0.0,0.0,0.0,0.0,0.0,0.0,0.0,0.0,0.0,0.0,0.0,0.0,0.0,0.0,0.0,0.0,0.0,0.0,0.0,0.0,0.0,0.0,0.0,0.0,0.0,0.0,0.0,0.0,0.0,0.0,0.0,0.0,0.0,0.0,0.0,0.0,0.0,0.0,0.0,0.0,0.0,0.0,0.0,0.0,0.0,0.0,0.0,0.0,0.0,0.0,0.0,0.0,0.0,0.0,0.0,0.0,0.0,0.0,0.0,0.0,0.0,0.0,0.0,0.0,0.0,0.0,0.0,0.0,0.0,0.0,0.0,0.0,0.0,0.0,0.0,0.0,0.0,0.0,0.0,0.0,0.0,0.0,0.0,0.0,0.0,0.0,0.0,0.0,0.0,0.0,0.0,0.0,0.0,0.0,0.0,0.0,0.0,0.0,0.0,0.0,0.0,0.0,0.0,0.0,0.0,0.0,0.0,0.0,0.0,0.0,0.0,0.0,0.0,0.0,0.0,0.0,0.0,0.0,0.0,0.0,0.0,0.0,0.6222,0.0,0.0,0.0,0.0,0.0,0.0,0.0,0.0,0.0,0.0,0.0,0.0,0.0,0.0,0.0,0.0,0.0,0.0,0.0,0.0,0.0,0.0,0.0,0.0,0.0,0.0,0.0,0.0,0.0,0.0,0.0,0.0,0.0,0.0,0.0,0.0,0.0,0.0,0.0,0.0,0.0,0.0,0.0,0.0,0.0,0.0,0.0,0.0,0.0,0.0,0.0,0.0,0.0,0.0,0.0,0.0,0.0,0.0,0.0,0.0,0.0,0.0,0.0,0.0,0.0,0.0,0.0,0.0,0.0,0.0,0.0,0.0,0.0,0.0,0.0,0.0,0.0,0.0,0.0,0.0,0.0,0.0,0.0,0.0,0.0,0.0,0.0,0.0,0.0,0.0,0.0,0.0,0.0,0.0,0.0,0.0,0.0,0.0,0.0,0.0,0.0,0.0,0.0,0.0,0.0,0.0,0.0,0.0,0.0,0.0,-0.5305,-0.0982,0.0153,0.2825,0.7303,0.0,0.0,0.0,0.0,0.0,0.0,0.0,0.0,0.0,0.0,0.0,0.0,0.0,0.0,0.0,0.0,0.0,0.0,0.0,0.0,0.0,0.0,0.0,0.0,0.0,0.0,0.0,0.0,0.0,0.0,0.0,0.0,0.0,0.0,0.0,0.0,0.0,0.0,0.0,0.0,0.0,0.0,0.0,0.0,0.0,0.0,0.0,0.0,0.0,0.0,0.0,0.0,0.0,0.0,0.0,0.0,0.0,0.0,0.0,0.0,0.0,0.0,0.0,0.0,0.0,0.0,0.0,0.0,0.0,0.0,0.0,0.0,0.0,0.0,0.0,0.0,0.0,0.0,0.0,0.0,0.0,0.0,0.0,0.0,0.0,0.0,0.0,0.0,0.0,0.0,0.0,0.0,0.0,0.0,0.0,0.0,0.0,0.0,0.0,0.0,0.0,0.0,0.0,0.0,0.0,0.0,0.0,0.0,0.0,0.0,0.0,0.0,0.0857,0.3836,0.8414,0.0,0.0,0.0,0.0,0.0,0.0,0.0,0.0,0.0,0.0,0.0,0.0,0.0,0.0,0.0,0.0,0.0,0.0,0.0,0.0,0.0,0.0,0.0,0.0,0.0,0.0,0.0,0.0,0.0,0.0,0.0,0.0,0.0,0.0,0.0,0.0,0.0,0.0,0.0,0.0,0.0,0.0,0.0,0.0,0.0,0.0,0.0,0.0,0.0,0.0,0.0,0.0,0.0,0.0,0.0,0.0,0.0,0.0,0.0,0.0,0.0,0.0,0.0,0.0,0.0,0.0,0.0,0.0,0.0,0.0,0.0,0.0,0.0,0.0,0.0,0.0,0.0,0.0,0.0,0.0,0.0,0.0,0.0,0.0,0.0,0.0,0.0,0.0,0.0,0.0,0.0,0.0,0.0,0.0,0.0,0.0,0.0,0.0,0.0,0.0,0.0,0.0,0.0,0.0,0.0,0.0,0.0,0.0,0.0,0.0,-0.384,0.0323,0.1688,0.0,0.9355,0.0,0.0,0.0,0.0,0.0,0.0,0.0,0.0,0.0,0.0,0.0,0.0,0.0,0.0,0.0,0.0,0.0,0.0,0.0,0.0,0.0,0.0,0.0,0.0,0.0,0.0,0.0,0.0,0.0,0.0,0.0,0.0,0.0,0.0,0.0,0.0,0.0,0.0,0.0,0.0,0.0,0.0,0.0,0.0,0.0,0.0,0.0,0.0,0.0,0.0,0.0,0.0,0.0,0.0,0.0,0.0,0.0,0.0,0.0,0.0,0.0,0.0,0.0,0.0,0.0,0.0,0.0,0.0,0.0,0.0,0.0,0.0,0.0,0.0,0.0,0.0,0.0,0.0,0.0,0.0,0.0,0.0,0.0,0.0,0.0,0.0,0.0,0.0,0.0,0.0,0.0,0.0,0.0,0.0,0.0,0.0,0.0,0.0,0.0,0.0,0.0,0.0,0.0,0.0,0.0,0.0,0.0,0.0,0.0,0.0,-0.2529,0.1178,0.4422,0.7287,0.0,0.0,0.0,0.0,0.0,0.0,0.0,0.0,0.0,0.0,0.0,0.0,0.0,0.0,0.0,0.0,0.0,0.0,0.0,0.0,0.0,0.0,0.0,0.0,0.0,0.0,0.0,0.0,0.0,0.0,0.0,0.0,0.0,0.0,0.0,0.0,0.0,0.0,0.0,0.0,0.0,0.0,0.0,0.0,0.0,0.0,0.0,0.0,0.0,0.0,0.0,0.0,0.0,0.0,0.0,0.0,0.0,0.0,0.0,0.0,0.0,0.0,0.0,0.0,0.0,0.0,0.0,0.0,0.0,0.0,0.0,0.0,0.0,0.0,0.0,0.0,0.0,0.0,0.0,0.0,0.0,0.0,0.0,0.0,0.0,0.0,0.0,0.0,0.0,0.0,0.0,0.0,0.0,0.0,0.0,0.0,0.0,0.0,0.0,0.0,0.0,0.0,0.0,0.0,0.0,0.0,0.0,0.0,0.0,0.0,-0.3487,-0.1097,0.2461,0.6324,0.8749,0.953,0.0,0.0,0.0,0.0,0.0,0.0,0.0,0.0,0.0,0.0,0.0,0.0,0.0,0.0,0.0,0.0,0.0,0.0,0.0,0.0,0.0,0.0,0.0,0.0,0.0,0.0,0.0,0.0,0.0,0.0,0.0,0.0,0.0,0.0,0.0,0.0,0.0,0.0,0.0,0.0,0.0,0.0,0.0,0.0,0.0,0.0,0.0,0.0,0.0,0.0,0.0,0.0,0.0,0.0,0.0,0.0,0.0,0.0,0.0,0.0,0.0,0.0,0.0,0.0,0.0,0.0,0.0,0.0,0.0,0.0,0.0,0.0,0.0,0.0,0.0,0.0,0.0,0.0,0.0,0.0,0.0,0.0,0.0,0.0,0.0,0.0,0.0,0.0,0.0,0.0,0.0,0.0,0.0,0.0,0.0,0.0,0.0,0.0,0.0,0.0,0.0,0.0,0.0,0.0,0.0,0.0,0.0,0.0,-0.3755,-0.2328,0.038,0.4394,0.6503,0.807,0.0,0.0,0.0,0.0,0.0,0.0,0.0,0.0,0.0,0.0,0.0,0.0,0.0,0.0,0.0,0.0,0.0,0.0,0.0,0.0,0.0,0.0,0.0,0.0,0.0,0.0,0.0,0.0,0.0,0.0,0.0,0.0,0.0,0.0,0.0,0.0,0.0,0.0,0.0,0.0,0.0,0.0,0.0,0.0,0.0,0.0,0.0,0.0,0.0,0.0,0.0,0.0,0.0,0.0,0.0,0.0,0.0,0.0,0.0,0.0,0.0,0.0,0.0,0.0,0.0,0.0,0.0,0.0,0.0,0.0,0.0,0.0,0.0,0.0,0.0,0.0,0.0,0.0,0.0,0.0,0.0,0.0,0.0,0.0,0.0,0.0,0.0,0.0,0.0,0.0,0.0,0.0,0.0,0.0,0.0,0.0,0.0,0.0,0.0,0.0,0.0,0.0,0.0,0.0,0.0,0.0,0.0,0.0,0.0,-0.3066,-0.0762,0.175,0.4373,0.6095,0.7513,0.0,0.0,0.0,0.0,0.0,0.0,0.0,0.0,0.0,0.0,0.0,0.0,0.0,0.0,0.0,0.0,0.0,0.0,0.0,0.0,0.0,0.0,0.0,0.0,0.0,0.0,0.0,0.0,0.0,0.0,0.0,0.0,0.0,0.0,0.0,0.0,0.0,0.0,0.0,0.0,0.0,0.0,0.0,0.0,0.0,0.0,0.0,0.0,0.0,0.0,0.0,0.0,0.0,0.0,0.0,0.0,0.0,0.0,0.0,0.0,0.0,0.0,0.0,0.0,0.0,0.0,0.0,0.0,0.0,0.0,0.0,0.0,0.0,0.0,0.0,0.0,0.0,0.0,0.0,0.0,0.0,0.0,0.0,0.0,0.0,0.0,0.0,0.0,0.0,0.0,0.0,0.0,0.0,0.0,0.0,0.0,0.0,0.0,0.0,0.0,0.0,0.0,0.0,0.0,0.0,0.0,0.0,0.0,0.0,-0.1998,0.0,0.2455,0.4202,0.5723,0.7098,0.0,0.0,0.0,0.0,0.0,0.0,0.0,0.0,0.0,0.0,0.0,0.0,0.0,0.0,0.0,0.0,0.0,0.0,0.0,0.0,0.0,0.0,0.0,0.0,0.0,0.0,0.0,0.0,0.0,0.0,0.0,0.0,0.0,0.0,0.0,0.0,0.0,0.0,0.0,0.0,0.0,0.0,0.0,0.0,0.0,0.0,0.0,0.0,0.0,0.0,0.0,0.0,0.0,0.0,0.0,0.0,0.0,0.0,0.0,0.0,0.0,0.0,0.0,0.0,0.0,0.0,0.0,0.0,0.0,0.0,0.0,0.0,0.0,0.0,0.0,0.0,0.0,0.0,0.0,0.0,0.0,0.0,0.0,0.0,0.0,0.0,0.0,0.0,0.0,0.0,0.0,0.0,0.0,0.0,0.0,0.0,0.0,0.0,0.0,0.0,0.0,0.0,0.0,0.0,0.0,0.0,0.0,0.0,-0.2438,-0.0462,0.092,0.2471,0.4095,0.5548,0.6832,0.0,0.0,0.0,0.0,0.0,0.0,0.0,0.0,0.0,0.0,0.0,0.0,0.0,0.0,0.0,0.0,0.0,0.0,0.0,0.0,0.0,0.0,0.0,0.0,0.0,0.0,0.0,0.0,0.0,0.0,0.0,0.0,0.0,0.0,0.0,0.0,0.0,0.0,0.0,0.0,0.0,0.0,0.0,0.0,0.0,0.0,0.0,0.0,0.0,0.0,0.0,0.0,0.0,0.0,0.0,0.0,0.0,0.0,0.0,0.0,0.0,0.0,0.0,0.0,0.0,0.0,0.0,0.0,0.0,0.0,0.0,0.0,0.0,0.0,0.0,0.0,0.0,0.0,0.0,0.0,0.0,0.0,0.0,0.0,0.0,0.0,0.0,0.0,0.0,0.0,0.0,0.0,0.0,0.0,0.0,0.0,0.0,0.0,0.0,0.0,0.0,0.0,0.0,0.0,0.0,0.0,0.0,0.0,0.0,0.0403,0.1879,0.3476,0.5234,0.6635,0.7729,0.0,0.0,0.0,0.0,0.0,0.0,0.0,0.0,0.0,0.0,0.0,0.0,0.0,0.0,0.0,0.0,0.0,0.0,0.0,0.0,0.0,0.0,0.0,0.0,0.0,0.0,0.0,0.0,0.0,0.0,0.0,0.0,0.0,0.0,0.0,0.0,0.0,0.0,0.0,0.0,0.0,0.0,0.0,0.0,0.0,0.0,0.0,0.0,0.0,0.0,0.0,0.0,0.0,0.0,0.0,0.0,0.0,0.0,0.0,0.0,0.0,0.0,0.0,0.0,0.0,0.0,0.0,0.0,0.0,0.0,0.0,0.0,0.0,0.0,0.0,0.0,0.0,0.0,0.0,0.0,0.0,0.0,0.0,0.0,0.0,0.0,0.0,0.0,0.0,0.0,0.0,0.0,0.0,0.0,0.0,0.0,0.0,0.0,0.0,0.0,0.0,0.0,0.0,0.0,0.0,0.0,0.0,0.0,0.0,0.2416,0.3435,0.4896,0.6866,0.7954,0.8872,0.9581,0.0,0.0,0.0,0.0,0.0,0.0,0.0,0.0,0.0,0.0,0.0,0.0,0.0,0.0,0.0,0.0,0.0,0.0,0.0,0.0,0.0,0.0,0.0,0.0,0.0,0.0,0.0,0.0,0.0,0.0,0.0,0.0,0.0,0.0,0.0,0.0,0.0,0.0,0.0,0.0,0.0,0.0,0.0,0.0,0.0,0.0,0.0,0.0,0.0,0.0,0.0,0.0,0.0,0.0,0.0,0.0,0.0,0.0,0.0,0.0,0.0,0.0,0.0,0.0,0.0,0.0,0.0,0.0,0.0,0.0,0.0,0.0,0.0,0.0,0.0,0.0,0.0,0.0,0.0,0.0,0.0,0.0,0.0,0.0,0.0,0.0,0.0,0.0,0.0,0.0,0.0,0.0,0.0,0.0,0.0,0.0,0.0,0.0,0.0,0.0,0.0,0.0,0.0,0.0,0.0,0.0,0.0,0.0,0.5292,0.5659,0.6838,0.8805,0.9523,1.0255,0.0,0.0,0.0,0.0,0.0,0.0,0.0,0.0,0.0,0.0,0.0,0.0,0.0,0.0,0.0,0.0,0.0,0.0,0.0,0.0,0.0,0.0,0.0,0.0,0.0,0.0,0.0,0.0,0.0,0.0,0.0,0.0,0.0,0.0,0.0,0.0,0.0,0.0,0.0,0.0,0.0,0.0,0.0,0.0,0.0,0.0,0.0,0.0,0.0,0.0,0.0,0.0,0.0,0.0,0.0,0.0,0.0,0.0,0.0,0.0,0.0,0.0,0.0,0.0,0.0,0.0,0.0,0.0,0.0,0.0,0.0,0.0,0.0,0.0,0.0,0.0,0.0,0.0,0.0,0.0,0.0,0.0,0.0,0.0,0.0,0.0,0.0,0.0,0.0,0.0,0.0,0.0,0.0,0.0,0.0,0.0,0.0,0.0,0.0,0.0,0.0,0.0,0.0,0.0,0.0,0.0,0.0,0.0,0.0,0.7085,0.9746,1.1136,1.1186,1.2142,1.2558,0.0,0.0,0.0,0.0,0.0,0.0,0.0,0.0,0.0,0.0,0.0,0.0,0.0,0.0,0.0,0.0,0.0,0.0,0.0,0.0,0.0,0.0,0.0,0.0,0.0,0.0,0.0,0.0,0.0,0.0,0.0,0.0,0.0,0.0,0.0,0.0,0.0,0.0,0.0,0.0,0.0,0.0,0.0,0.0,0.0,0.0,0.0,0.0,0.0,0.0,0.0,0.0,0.0,0.0,0.0,0.0,0.0,0.0,0.0,0.0,0.0,0.0,0.0,0.0,0.0,0.0,0.0,0.0,0.0,0.0,0.0,0.0,0.0,0.0,0.0,0.0,0.0,0.0,0.0,0.0,0.0,0.0,0.0,0.0,0.0,0.0,0.0,0.0,0.0,0.0,0.0,0.0,0.0,0.0,0.0,0.0,0.0,0.0,0.0,0.0,0.0,0.0,0.0,0.0,0.0,0.0,0.0,0.0,0.5932,0.874,1.2399,1.4428,1.4727,1.507,1.4969,0.0,0.0,0.0,0.0,0.0,0.0,0.0,0.0,0.0,0.0,0.0,0.0,0.0,0.0,0.0,0.0,0.0,0.0,0.0,0.0,0.0,0.0,0.0,0.0,0.0,0.0,0.0,0.0,0.0,0.0,0.0,0.0,0.0,0.0,0.0,0.0,0.0,0.0,0.0,0.0,0.0,0.0,0.0,0.0,0.0,0.0,0.0,0.0,0.0,0.0,0.0,0.0,0.0,0.0,0.0,0.0,0.0,0.0,0.0,0.0,0.0,0.0,0.0,0.0,0.0,0.0,0.0,0.0,0.0,0.0,0.0,0.0,0.0,0.0,0.0,0.0,0.0,0.0,0.0,0.0,0.0,0.0,0.0,0.0,0.0,0.0,0.0,0.0,0.0,0.0,0.0,0.0,0.0,0.0,0.0,0.0,0.0,0.0,0.0,0.0,0.0,0.0,0.0,0.0,0.0,0.0,0.0,0.0,0.7394,1.0333,1.4097,1.6955,1.8723,1.8078,1.7373,0.0,0.0,0.0,0.0,0.0,0.0,0.0,0.0,0.0,0.0,0.0,0.0,0.0,0.0,0.0,0.0,0.0,0.0,0.0,0.0,0.0,0.0,0.0,0.0,0.0,0.0,0.0,0.0,0.0,0.0,0.0,0.0,0.0,0.0,0.0,0.0,0.0,0.0,0.0,0.0,0.0,0.0,0.0,0.0,0.0,0.0,0.0,0.0,0.0,0.0,0.0,0.0,0.0,0.0,0.0,0.0,0.0,0.0,0.0,0.0,0.0,0.0,0.0,0.0,0.0,0.0,0.0,0.0,0.0,0.0,0.0,0.0,0.0,0.0,0.0,0.0,0.0,0.0,0.0,0.0,0.0,0.0,0.0,0.0,0.0,0.0,0.0,0.0,0.0,0.0,0.0,0.0,0.0,0.0,0.0,0.0,0.0,0.0,0.0,0.0,0.0,0.0,0.0,0.0,0.0,0.0,0.0,0.0,0.8515,1.2001,1.5698,1.8714,2.0945,2.035,1.9365,0.0,0.0,0.0,0.0,0.0,0.0,0.0,0.0,0.0,0.0,0.0,0.0,0.0,0.0,0.0,0.0,0.0,0.0,0.0,0.0,0.0,0.0,0.0,0.0,0.0,0.0,0.0,0.0,0.0,0.0,0.0,0.0,0.0,0.0,0.0,0.0,0.0,0.0,0.0,0.0,0.0,0.0,0.0,0.0,0.0,0.0,0.0,0.0,0.5739,0.0,0.0,0.0,0.0,0.0,0.0,0.0,0.0,0.0,0.0,0.0,0.0,0.0,0.0,0.0,0.0,0.0,0.0,0.0,0.0,0.0,0.0,0.0,0.0,0.0,0.0,0.0,0.0,0.0,0.0,0.0,0.0,0.0,0.0,0.0,0.0,0.0,0.0,0.0,0.0,0.0,0.0,0.0,0.0,0.0,0.0,0.0,0.0,0.0,0.0,0.0,0.0,0.0,0.0,0.0,0.0,0.0,0.0,0.0,0.9271,1.2743,1.6514,1.9393,2.1273,2.19,2.1227,0.0,0.0,0.0,0.0,0.0,0.0,0.0,0.0,0.0,0.0,0.0,0.0,0.0,0.0,0.0,0.0,0.0,0.0,0.0,0.0,0.0,0.0,0.0,0.0,0.0,0.0,0.0,0.0,0.0,0.0,0.0,0.0,0.0,0.0,0.0,0.0,0.0,0.0,0.0,0.0,0.0,0.0,0.0,0.0,0.0,0.0,0.0,0.0,0.0,0.0,0.0,0.0,0.0,0.0,0.0,0.0,0.0,0.0,0.0,0.0,0.0,0.0,0.0,0.0,0.0,0.0,0.0,0.0,0.0,0.0,0.0,0.0,0.0,0.0,0.0,0.0,0.0,0.0,0.0,0.0,0.0,0.0,0.0,0.0,0.0,0.0,0.0,0.0,0.0,0.0,0.0,0.0,0.0,0.0,0.0,0.0,0.0,0.0,0.0,0.0,0.0,0.0,0.0,0.0,0.0,0.0,0.0,0.7432,0.9809,1.3145,1.6965,1.967,2.12,2.2978,2.2745,2.0221,0.0,0.0,0.0,0.0,0.0,0.0,0.0,0.0,0.0,0.0,0.0,0.0,0.0,0.0,0.0,0.0,0.0,0.0,0.0,0.0,0.0,0.0,0.0,0.0,0.0,0.0,0.0,0.0,0.0,0.0,0.0,0.0,0.0,0.0,0.0,0.0,0.0,0.0,0.3352,0.4923,0.0,0.0,0.0,0.0,0.0,0.0,0.0,0.0,0.8701,0.0,0.0,0.0,0.0,0.0,0.0,0.0,0.0,0.0,0.0,0.0,0.0,0.0,0.0,0.0,0.0,0.0,0.0,0.0,0.0,0.0,0.0,0.0,0.0,0.0,0.0,0.0,0.0,0.0,0.0,0.0,0.0,0.0,0.0,0.0,0.0,0.0,0.0,0.0,0.0,0.0,0.0,0.0,0.0,0.0,0.0,0.0,0.0,0.0,0.0,0.0,0.0,0.0,0.0,0.0,0.0,0.5156,0.7382,1.026,1.3855,1.7459,2.023,2.2111,2.3408,2.3175,2.1278,0.0,0.0,0.0,0.0,0.0,0.0,0.0,0.0,0.0,0.0,0.0,0.0,0.0,0.0,0.0,0.0,0.0,0.0,0.0,0.0,0.0,0.0,0.0,0.0,0.0,0.0,0.0,0.0,0.0,0.0,0.0,0.0,0.0,0.0,0.0,0.0,0.0,0.0,0.0,0.5691,0.6651,0.0,0.0,0.0,0.0,0.0,0.0,0.0,0.0,1.0098,0.0,0.0,0.0,0.0,0.0,0.0,0.0,0.0,0.0,0.0,0.0,0.0,0.0,0.0,0.0,0.0,0.0,0.0,0.0,0.0,0.0,0.0,0.0,0.0,0.0,0.0,0.0,0.0,0.0,0.0,0.0,0.0,0.0,0.0,0.0,0.0,0.0,0.0,0.0,0.0,0.0,0.0,0.0,0.0,0.0,0.0,0.0,0.0,0.0,0.0,0.0,0.0,0.0,0.0,0.0,0.4991,0.738,1.0247,1.3657,1.7502,2.0246,2.1792,2.2937,2.2904,0.0,0.0,0.0,0.0,0.0,0.0,0.0,0.0,0.0,0.0,0.0,0.0,0.0,0.0,0.0,0.0,0.0,0.0,0.0,0.0,0.0,0.0,0.0,0.0,0.0,0.0,0.0,0.0,0.0,0.0,0.0,0.0,0.0,0.0,0.0,0.0,0.0,0.0,0.0,0.0,0.6711,0.787,0.869,0.0,0.0,0.0,0.0,0.0,0.0,1.1428,1.1676,0.0,0.0,0.0,0.0,0.0,0.0,0.0,0.0,0.0,0.0,0.0,0.0,0.0,0.0,0.0,0.0,0.0,0.0,0.0,0.0,0.0,0.0,0.0,0.0,0.0,0.0,0.0,0.0,0.0,0.0,0.0,0.0,0.0,0.0,0.0,0.0,0.0,0.0,0.0,0.0,0.0,0.0,0.0,0.0,0.0,0.0,0.0,0.0,0.0,0.0,0.0,0.0,0.0,0.0,0.0,0.4649,0.7185,0.9981,1.3162,1.7311,2.0067,2.129,2.241,2.2575,0.0,0.0,0.0,0.0,0.0,0.0,0.0,0.0,0.0,0.0,0.0,0.0,0.0,0.0,0.0,0.0,0.0,0.0,0.0,0.0,0.0,0.0,0.0,0.0,0.0,0.0,0.0,0.0,0.0,0.0,0.0,0.0,0.0,0.0,0.0,0.0,0.0,0.0,0.0,0.0,0.0,0.9073,1.0064,1.0637,0.0,0.0,0.0,0.0,1.2571,1.3173,0.0,0.0,0.0,0.0,0.0,0.0,0.0,0.0,0.0,0.0,0.0,0.0,0.0,0.0,0.0,0.0,0.0,0.0,0.0,0.0,0.0,0.0,0.0,0.0,0.0,0.0,0.0,0.0,0.0,0.0,0.0,0.0,0.0,0.0,0.0,0.0,0.0,0.0,0.0,0.0,0.0,0.0,0.0,0.0,0.0,0.0,0.0,0.0,0.0,0.0,0.0,0.0,0.0,0.0,0.0,0.0,0.3263,0.6382,0.9533,1.2766,1.6881,1.9798,2.1349,2.2429,2.2575,0.0,0.0,0.0,0.0,0.0,0.0,0.0,0.0,0.0,0.0,0.0,0.0,0.0,0.0,0.0,0.0,0.0,0.0,0.0,0.0,0.0,0.0,0.0,0.0,0.0,0.0,0.0,0.0,0.0,0.0,0.0,0.0,0.0,0.0,0.0,0.0,0.0,0.0,0.0,0.0,0.0,0.9648,1.14,1.1852,1.2134,0.0,0.0,1.379,1.3946,1.4875,0.0,0.0,0.0,0.0,0.0,0.0,0.0,0.0,0.0,0.0,0.0,0.0,0.0,0.0,0.0,0.0,0.0,0.0,0.0,0.0,0.0,0.0,0.0,0.0,0.0,0.0,0.0,0.0,0.0,0.0,0.0,0.0,0.0,0.0,0.0,0.0,0.0,0.0,0.0,0.0,0.0,0.0,0.0,0.0,0.0,0.0,0.0,0.0,0.0,0.0,0.0,0.0,0.0,0.0,0.0,0.1123,0.3035,0.6173,0.9394,1.2746,1.6858,1.9752,2.1367,2.1972,2.199,0.0,0.0,0.0,0.0,0.0,0.0,0.0,0.0,0.0,0.0,0.0,0.0,0.0,0.0,0.0,0.0,0.0,0.0,0.0,0.0,0.0,0.0,0.0,0.0,0.0,0.0,0.0,0.0,0.0,0.0,0.0,0.0,0.0,0.0,0.0,0.0,0.0,0.0,0.0,0.0,0.0,0.0,1.281,1.3606,0.0,0.0,0.0,1.5774,1.6294,0.0,0.0,0.0,0.0,0.0,0.0,0.0,0.0,0.0,0.0,0.0,0.0,0.0,0.0,0.0,0.0,0.0,0.0,0.0,0.0,0.0,0.0,0.0,0.0,0.0,0.0,0.0,0.0,0.0,0.0,0.0,0.0,0.0,0.0,0.0,0.0,0.0,0.0,0.0,0.0,0.0,0.0,0.0,0.0,0.0,0.0,0.0,0.0,0.0,0.0,0.0,0.0,0.0,0.0,0.0,0.0,0.0,0.2959,0.6201,0.9533,1.2844,1.6981,1.9847,2.133,2.1735,0.0,0.0,0.0,0.0,0.0,0.0,0.0,0.0,0.0,0.0,0.0,0.0,0.0,0.0,0.0,0.0,0.0,0.0,0.0,0.0,0.0,0.0,0.0,0.0,0.0,0.0,0.0,0.4414,0.0,0.0,0.0,0.0,0.0,0.0,0.0,0.0,0.0,0.0,0.0,0.0,0.0,0.0,1.2287,1.3926,1.4971,1.5693,0.0,0.0,1.7379,1.8035,1.836,1.8262,0.0,0.0,0.0,0.0,0.0,0.0,0.0,0.0,0.0,0.0,0.0,0.0,0.0,0.0,0.0,0.0,0.0,0.0,0.0,0.0,0.0,0.0,0.0,0.0,0.0,0.0,0.0,0.0,0.0,0.0,0.0,0.0,0.0,0.0,0.0,0.0,0.0,0.0,0.0,0.0,0.0,0.0,0.0,0.0,0.0,0.0,0.0,0.0,0.0,0.0,0.0,0.0,0.0,0.0,0.1345,0.2799,0.6512,0.9954,1.3055,1.7248,2.004,2.1288,2.211,2.2066,0.0,0.0,0.0,0.0,0.0,0.0,0.0,0.0,0.0,0.0,0.0,0.0,0.0,0.0,0.0,0.0,0.0,0.0,0.0,0.0,0.0,0.0,0.0,0.0,0.0,0.0,0.0,0.0,0.0,0.0,0.0,0.0,0.0,0.0,0.0,0.0,0.0,0.0,0.0,0.0,0.0,1.2587,1.4553,1.5476,1.6225,0.0,1.7802,1.836,1.8313,1.9271,1.9527,1.8105,0.0,0.0,0.0,0.0,0.0,0.0,0.0,0.0,0.0,0.0,0.0,0.0,0.0,0.0,0.0,0.0,0.0,0.0,0.0,0.0,0.0,0.0,0.0,0.0,0.0,0.0,0.0,0.0,0.0,0.0,0.0,0.0,0.0,0.0,0.0,0.0,0.0,0.0,0.0,0.0,0.0,0.0,0.0,0.0,0.0,0.0,0.0,0.0,0.0,0.0,0.0,0.0,0.0,0.1966,0.3589,0.6982,1.0232,1.334,1.7342,2.0038,2.1269,2.2121,2.221,0.0,0.0,0.0,0.0,0.0,0.0,0.0,0.0,0.0,0.0,0.0,0.0,0.0,0.0,0.0,0.0,0.0,0.0,0.0,0.0,0.0,0.0,0.0,0.0,0.0,0.0,0.0,0.0,0.615,0.6693,0.731,0.0,0.0,0.0,0.0,0.0,0.0,0.0,0.0,0.0,0.0,1.3744,1.5382,1.6425,0.0,0.0,1.8701,1.9408,1.9617,2.0163,2.0107,1.8858,1.738,0.0,0.0,0.0,0.0,0.0,0.0,0.0,0.0,0.0,0.0,0.0,0.0,0.0,0.0,0.0,0.0,0.0,0.0,0.0,0.0,0.0,0.0,0.0,0.0,0.0,0.0,0.0,0.0,0.0,0.0,0.0,0.0,0.0,0.0,0.0,0.0,0.0,0.0,0.0,0.0,0.0,0.0,0.0,0.0,0.0,0.0,0.0,0.0,0.0,0.0,0.0,0.0,0.2964,0.5244,0.8058,1.0911,1.3833,1.767,2.0202,2.1207,2.2189,2.2384,0.0,0.0,0.0,0.0,0.0,0.0,0.0,0.0,0.0,0.0,0.0,0.0,0.0,0.0,0.0,0.0,0.0,0.0,0.0,0.0,0.0,0.0,0.0,0.0,0.0,0.0,0.0,0.0,0.661,0.7015,0.7516,0.0,0.0,0.0,0.0,0.0,0.0,0.0,0.0,0.0,0.0,1.4614,1.5903,1.7082,1.7963,1.8398,1.928,2.0007,2.0307,2.0605,2.0446,1.9332,0.0,0.0,0.0,0.0,0.0,0.0,0.0,0.0,0.0,0.0,0.0,0.0,0.0,0.0,0.0,0.0,0.0,0.0,0.0,0.0,0.0,0.0,0.0,0.0,0.0,0.0,0.0,0.3274,0.0,0.0,0.3166,0.0,0.0,0.0,0.0,0.0,0.0,0.0,0.0,0.0,0.0,0.0,0.0,0.0,0.0,0.0,0.0,0.0,0.0,0.0,0.0,0.0,0.0,0.4323,0.7821,0.9795,1.2061,1.4653,1.838,2.0608,2.1132,2.2463,2.2608,2.1387,0.0,0.0,0.0,0.0,0.0,0.0,0.0,0.0,0.0,0.0,0.0,0.0,0.0,0.0,0.0,0.0,0.0,0.0,0.0,0.0,0.0,0.0,0.0,0.0,0.0,0.0,0.7064,0.7534,0.7792,0.0,0.0,0.0,0.0,0.0,0.0,0.0,0.0,0.0,1.167,1.3481,1.5036,1.5956,1.7233,1.8224,1.8732,1.9552,2.0143,2.0053,2.0484,2.0511,0.0,0.0,0.0,0.0,0.0,0.0,0.0,0.0,0.0,0.0,0.0,0.0,0.0,0.0,0.0,0.0,0.0,0.0,0.0,0.0,0.0,0.0,0.0,0.0,0.0,0.0,0.0,0.3928,0.3896,0.0,0.0,0.0,0.0,0.0,0.0,0.0,0.0,0.0,0.0,0.0,0.5606,0.5595,0.0,0.0,0.0,0.0,0.0,0.0,0.0,0.0,0.0,0.0,0.0,0.0,0.4625,0.7236,0.9891,1.2197,1.4195,1.8187,2.0679,2.1487,2.2474,2.2693,2.2062,0.0,0.0,0.0,0.0,0.0,0.0,0.0,0.0,0.0,0.0,0.0,0.0,0.0,0.0,0.0,0.0,0.0,0.0,0.0,0.0,0.0,0.0,0.0,0.0,0.0,0.7054,0.0,0.0,0.0,0.0,0.0,0.0,0.0,0.0,0.0,0.0,0.0,1.1258,1.2634,1.4145,1.5488,1.6533,1.7511,1.829,0.0,0.0,0.0,0.0,0.0,0.0,0.0,0.0,0.0,0.0,0.0,0.0,0.0,0.0,1.3261,1.1701,1.1107,1.0814,1.0846,0.0,0.0,0.0,0.0,0.0,0.0,0.0,0.0,0.0,0.0,0.0,0.0,0.0,0.0,0.4831,0.0,0.4748,0.0,0.0,0.0,0.0,0.0,0.0,0.0,0.0,0.555,0.6044,0.6351,0.6481,0.6509,0.0,0.6113,0.5255,0.0,0.0,0.0,0.0,0.0,0.0,0.0,0.0,0.5444,0.7622,1.0377,1.2856,1.4994,1.8297,2.055,2.1544,2.2496,2.2806,2.2427,2.1308,2.0618,0.0,0.0,0.0,0.0,0.0,0.0,0.0,0.0,0.0,0.0,0.0,0.0,0.0,0.0,0.0,0.0,0.0,0.0,0.0,0.0,0.0,0.0,0.0,0.8046,0.0,0.0,0.0,0.0,0.0,0.0,0.0,0.0,0.0,0.956,1.0795,1.2175,1.3424,1.4772,1.5991,1.7024,0.0,0.0,0.0,0.0,0.0,0.0,0.0,1.9965,1.9534,1.955,1.9298,1.8336,1.7677,1.7111,1.6597,0.0,0.0,1.3898,1.3466,1.338,1.3094,1.2768,1.2449,1.2511,1.2307,1.239,0.0,0.0,0.0,0.0,0.0,0.0,0.0,0.0,0.5702,0.5929,0.0,0.5882,0.0,0.0,0.0,0.0,0.377,0.4239,0.0,0.0,0.6278,0.6833,0.7228,0.7358,0.7456,0.752,0.7138,0.667,0.609,0.4765,0.0,0.0,0.0,0.0,0.0,0.0,0.6731,0.8998,1.1407,1.403,1.6903,1.8811,2.0312,2.136,2.25,2.2955,2.2606,2.2767,2.2476,2.1518,2.0354,0.0,0.0,0.0,0.0,0.0,0.0,0.0,0.0,0.0,0.0,0.0,0.0,0.0,0.0,0.0,0.0,0.0,0.0,0.0,0.0,0.9006,0.0,0.0,0.0,0.0,0.0,0.0,0.0,0.0,0.0,0.0,1.0769,1.1783,1.2972,1.411,0.0,0.0,0.0,0.0,1.8958,1.9368,1.9733,1.999,2.0016,2.0016,2.0114,2.0362,0.0,0.0,1.929,1.9021,1.8709,1.8416,1.8323,1.7935,1.6475,1.6461,1.6454,1.575,1.5099,1.4793,1.4734,1.4414,1.4372,1.0554,0.0,0.0,0.0,0.0,0.6056,0.6288,0.677,0.7158,0.7304,0.7292,0.7298,0.0,0.0,0.0,0.0,0.0,0.0,0.6119,0.687,0.7703,0.8214,0.8377,0.8731,0.8732,0.8443,0.8307,0.7998,0.7516,0.6701,0.5664,0.4482,0.0,0.0,0.0,0.0,0.7224,0.9506,1.2078,1.4568,1.7029,1.9044,2.0821,2.2328,2.3156,2.3703,2.3988,2.3417,2.3296,2.3561,2.1743,0.0,0.0,0.0,0.0,0.0,0.0,0.0,0.0,0.0,0.0,0.0,0.0,0.0,0.0,0.0,0.0,0.0,0.0,0.0,1.0411,1.062,1.0437,0.0,0.0,0.0,0.0,0.0,0.0,0.0,0.0,0.0,1.259,1.2993,1.3657,0.0,0.0,1.6933,1.782,1.8452,1.8958,1.946,1.972,0.0,2.0547,2.0492,2.0561,2.0921,2.0831,2.0641,2.0121,2.0048,1.9972,1.9514,1.961,1.9615,1.9239,1.8275,1.754,1.7022,1.6707,1.6461,1.6214,1.6028,1.5974,1.2629,1.0434,0.9372,0.841,0.7701,0.7457,0.7637,0.8125,0.8474,0.8643,0.8695,0.8649,0.8068,0.7068,0.6067,0.0,0.0,0.0,0.7007,0.7799,0.8701,0.9163,0.9306,0.9806,0.9859,0.9439,0.9432,0.9157,0.8501,0.8028,0.7252,0.6167,0.0,0.0,0.5572,0.6624,0.8235,1.0374,1.2805,1.5197,1.7552,1.9767,2.152,2.2883,2.3616,2.4132,2.4499,2.4478,2.4623,2.4957,2.3548,2.2496,0.0,0.0,0.0,0.0,0.0,0.0,0.0,0.0,0.0,0.0,0.0,0.977,0.9742,0.0,0.0,0.0,1.0646,1.1358,1.2034,1.1834,0.0,0.0,0.0,0.0,0.0,0.0,0.0,1.1503,1.2307,1.3126,1.4045,1.4648,1.5204,1.5796,1.6585,1.7446,1.8278,0.0,1.921,1.972,2.0012,2.0393,2.0787,2.092,2.0958,2.1022,2.1093,2.102,2.0608,2.0647,2.0587,2.0374,2.052,2.0658,2.054,1.9637,1.8806,1.8395,1.8338,1.8192,1.782,1.7807,1.7841,1.4277,1.2948,1.1111,0.9883,0.9121,0.8802,0.8992,0.9408,0.9758,0.9977,1.0215,0.9903,0.9265,0.819,0.6837,0.0,0.6348,0.7034,0.7719,0.8439,0.9258,0.9784,1.0068,1.0688,1.0801,1.0476,1.0468,1.008,0.9313,0.8871,0.854,0.8171,0.6935,0.6405,0.6637,0.7944,0.9588,1.1512,1.357,1.5958,1.8569,2.0779,2.2334,2.3124,2.3919,2.4308,2.4393,2.5598,2.6148,2.589,2.5509,2.4697,2.3408,0.0,0.0,0.0,0.0,0.0,0.0,0.0,0.0,0.0,0.0,0.0,0.0,0.0,0.0,0.0,1.1979,0.0,1.3396,1.2923,0.0,0.0,0.0,1.1035,1.0903,1.0778,1.1135,1.2297,0.0,0.0,1.5221,1.649,1.7216,1.6791,1.7367,1.8052,1.8732,1.9158,1.9537,2.0027,2.0509,2.0876,2.0999,2.1262,2.1362,2.1008,2.1035,2.106,2.0764,2.0764,2.0903,2.0869,2.1031,2.1042,2.0733,2.0431,2.0205,1.9617,1.9624,1.9596,1.9192,1.9324,1.9404,1.4582,1.3769,1.2883,1.1929,1.0877,1.0701,1.084,1.1142,1.1265,1.1361,1.134,1.0919,0.9812,0.8194,0.7793,0.7488,0.7353,0.8257,0.8965,0.9481,1.0155,1.0526,1.0604,1.1314,1.143,1.1104,1.1097,1.0753,1.011,0.967,0.9281,0.8942,0.8637,0.8373,0.8214,0.9243,1.0684,1.2446,1.4775,1.7376,2.0279,2.1766,2.2802,2.3465,2.4178,2.4634,2.4846,2.5631,2.622,2.6439,2.6176,2.5712,2.4982,2.29,0.0,0.0,0.0,0.0,0.0,0.0,0.0,0.0,0.0,1.0656,1.1397,0.0,1.1899,0.0,1.3798,1.4611,1.4893,1.469,0.0,0.0,1.2981,1.2603,1.2359,1.2383,1.272,1.3348,1.4185,1.5094,1.6043,1.7026,1.7924,1.8567,1.8643,1.873,1.9059,1.9239,1.9661,2.0507,2.08,2.1163,2.1725,2.1832,2.1655,2.1214,2.1026,2.0903,2.0733,2.0786,2.0903,2.0903,2.0967,2.0903,2.0733,2.0399,2.0053,1.9671,1.9512,1.9422,1.941,1.9259,1.9137,1.4823,1.416,1.3755,1.3112,1.2244,1.1831,1.1659,1.1797,1.1961,1.2078,1.2078,1.1127,0.9896,0.8591,0.8339,0.8106,0.8049,0.8912,0.952,0.9932,1.0674,1.1148,1.1411,1.1957,1.2075,1.1733,1.1733,1.1359,1.0577,1.0337,1.0058,0.9792,0.9888,1.003,1.0196,1.0591,1.162,1.3368,1.6292,1.8928,2.1126,2.2154,2.3036,2.3692,2.4184,2.4549,2.467,2.5383,2.5846,2.6035,2.6336,2.6045,2.4949,2.3515,2.1597,0.0,0.0,0.0,0.0,0.0,0.0,0.0,0.0,0.0,0.0,0.0,1.317,1.4339,1.5198,1.5726,1.5985,1.5673,1.5132,1.4488,1.389,1.334,1.2964,1.3177,1.3475,1.3934,1.506,1.6096,1.6965,1.7883,1.8775,1.951,1.9696,1.9747,1.9613,1.9592,1.9929,2.0561,2.0752,2.1144,2.1919,2.1761,2.1451,2.1019,2.0775,2.0658,2.0604,2.0658,2.0722,2.0786,2.0786,2.0711,2.0453,2.0194,1.9933,1.9539,1.9351,1.9318,1.9459,1.9579,1.9658,1.4873,1.4247,1.3909,1.3585,1.3125,1.2402,1.2032,1.2054,1.2329,1.2499,1.2453,1.1012,0.9904,0.9162,0.8754,0.8504,0.8482,0.9327,0.9843,1.018,1.0989,1.1615,1.2127,1.2621,1.2635,1.2394,1.2386,1.188,1.0974,1.0919,1.083,1.0653,1.0887,1.141,1.2101,1.194,1.2756,1.4611,1.7934,2.0223,2.1465,2.2349,2.3098,2.3752,2.4094,2.4234,2.4234,2.4976,2.5302,2.5177,2.6044,2.5881,2.4285,2.3549,2.2056,0.0,1.8096,0.0,0.0,0.0,0.0,0.0,0.0,0.0,0.0,1.3897,1.4816,1.6083,1.6315,1.6546,1.6939,1.6298,1.5714,1.5331,1.4521,1.3787,1.3353,1.35,1.3878,1.4327,1.5826,1.7084,1.7765,1.8865,1.9684,2.0013,2.0531,2.0653,2.0282,2.0079,2.0153,2.0434,2.0726,2.1163,2.1528,2.1325,2.1031,2.0646,2.0529,2.0399,2.041,2.041,2.0475,2.0604,2.0593,2.0518,2.0172,1.9987,1.9747,1.9351,1.9198,1.922,1.9576,1.9983,2.0401,1.4462,1.3978,1.3569,1.3059,1.2482,1.2412,1.2749,1.327,1.3172,1.2782,1.222,1.1122,1.0218,0.9432,0.9341,0.9148,0.8986,0.9884,1.0373,1.0674,1.1365,1.1926,1.2305,1.2736,1.2948,1.2882,1.2882,1.2541,1.2002,1.1704,1.1483,1.1389,1.1566,1.2039,1.2803,0.0,0.0,0.0,1.9055,2.0557,2.1844,2.2787,2.3374,2.3638,2.3782,0.0,2.3897,2.4561,2.4865,2.4747,2.5282,0.0,0.0,0.0,0.0,0.0,0.0,0.0,0.0,0.0,0.0,0.0,1.4846,1.4538,1.4346,1.5442,1.6402,1.7086,1.7473,1.7696,1.7764,1.7282,1.667,1.5982,1.5339,1.4717,1.4238,1.4213,1.4538,1.5192,1.6088,1.7185,1.8387,1.9362,2.0128,2.0894,2.1191,2.1202,2.0926,2.0274,2.0132,2.0947,2.1224,2.1443,2.1313,2.0944,2.0646,2.0464,2.0399,2.0335,2.0216,2.0475,2.054,2.0475,2.0335,2.0248,2.0096,1.9726,1.9407,1.9285,1.9208,1.9277,1.9792,1.987,1.9945,1.3922,1.3559,1.3141,1.2742,0.0,1.2378,1.2727,1.3212,1.3091,1.2656,1.1978,1.1073,1.0323,0.9619,0.9518,0.9439,0.9354,1.0111,1.0757,1.1185,1.1747,1.2297,1.2789,1.3094,1.3277,1.3407,1.3407,1.3152,1.278,1.2692,1.2602,1.2341,1.2647,1.3086,1.3695,1.5107,1.6585,1.8126,1.9498,2.0741,2.1903,2.2761,2.3275,2.3378,2.3538,0.0,0.0,0.0,0.0,0.0,0.0,0.0,0.0,2.376,0.0,2.1355,2.0409,1.9275,1.7875,1.7054,1.6363,1.5844,1.5798,1.5769,1.5587,1.6571,1.7331,1.7876,1.8083,1.8144,1.8008,1.7373,1.6612,1.585,1.5204,1.4641,1.4346,1.4353,1.4705,1.5559,1.6394,1.7373,1.8771,1.955,2.0291,2.1014,2.129,2.1307,2.1039,2.0626,2.0441,2.0463,2.0997,2.1118,2.0619,2.0523,2.0453,2.041,2.0399,2.0335,2.0281,2.041,2.0464,2.027,2.0129,1.9987,1.9857,1.9539,1.9274,1.9208,1.9208,1.9327,1.9712,1.9775,1.9932,1.3357,1.3134,1.2749,1.2531,1.2447,1.2352,1.2428,1.2736,1.2683,0.0,0.0,1.1031,1.0275,0.971,0.9658,0.9617,0.9789,1.0397,1.109,1.1677,1.2236,1.2781,1.339,1.3571,1.37,1.389,1.395,1.3773,1.3504,1.3738,1.3728,1.3413,1.3831,1.4282,1.4853,1.6581,1.7862,1.8587,1.983,2.0938,2.1872,2.2672,2.3068,2.3023,2.3393,2.3541,2.3407,2.3934,2.413,2.3889,2.4439,2.4379,2.3601,2.3296,2.2596,2.1358,2.0417,1.9392,1.829,1.7486,1.6821,1.6309,1.6491,1.6674,1.6701,1.7388,1.7988,1.8482,1.8414,1.8202,1.7872,1.7107,1.6263,1.5568,1.4864,1.4346,1.4209,1.4346,1.4848,1.5833,1.6664,1.7687,1.9075,1.9791,2.0366,2.0892,2.121,2.121,2.091,2.0841,2.0584,2.0182,2.0432,2.0407,1.995,1.9857,2.0081,2.0068,2.0167,2.0278,2.0289,2.042,2.0335,2.0216,2.0009,1.9868,1.9671,1.9473,1.9274,1.9142,1.9285,1.9483,1.966,1.9933,2.0194,1.2832,1.2695,1.2455,1.2266,1.2189,1.2267,1.2305,1.2367,1.2243,1.1946,1.1479,1.0848,1.0237,0.9796,0.9907,1.0006,1.0242,1.0914,1.1597,1.2359,1.2911,1.3329,1.37,1.395,1.4139,1.413,1.4419,1.456,1.4477,1.4611,1.4531,1.438,1.4591,1.5341,1.6522,1.7402,1.85,1.9887,2.0502,2.129,2.2321,2.2725,2.2844,2.2783,2.3518,2.3824,2.3667,2.4129,2.4227,2.3977,2.3709,2.3552,2.3552,2.2794,2.2213,2.18,2.0831,1.9835,1.8736,1.8004,1.7281,1.6651,1.6576,1.6793,1.7229,1.7891,1.8269,1.8482,1.8347,1.8066,1.752,1.683,1.6132,1.5505,1.4927,1.4569,1.4489,1.4697,1.5259,1.6324,1.7157,1.8172,1.9462,2.014,2.0582,2.1083,2.1094,2.0903,2.0775,2.0741,2.0726,2.0653,2.0239,1.9905,1.9614,1.9203,1.9149,1.9089,1.9672,2.0013,2.0035,2.0359,2.0518,2.041,2.0074,1.9802,1.9615,1.9615,1.9473,1.9341,1.955,1.9868,1.9977,2.0377,2.0764,1.2357,1.2357,1.2287,1.2265,1.2251,1.2243,1.2182,1.1988,1.1685,1.1524,1.1321,1.066,1.0114,0.9865,0.9974,1.0227,1.0593,1.1304,1.2104,1.3025,1.3459,1.3881,1.43,1.4428,1.4547,1.4734,1.4951,1.5186,1.5332,1.5558,1.5395,1.5091,1.551,1.6197,1.7069,1.8311,1.9377,2.0295,2.0758,2.1415,2.2263,2.2601,2.2678,2.2555,2.3263,2.3512,2.3285,2.4053,2.4285,2.3902,2.3783,2.3619,2.3225,2.2474,2.1677,2.0974,2.0215,1.9299,1.8124,1.7364,1.689,1.6751,1.6959,1.7304,1.7862,1.8008,1.8279,1.8482,1.8202,1.7716,1.7028,1.6403,1.5771,1.507,1.4713,1.4497,1.4633,1.4991,1.5621,1.6664,1.756,1.8576,1.9736,2.027,2.0658,2.1031,2.0903,2.0786,2.0733,2.0616,2.0504,2.0299,1.9802,1.9434,1.9203,1.8984,1.889,1.8999,1.9605,2.0008,2.0087,2.0407,2.0549,2.041,2.0129,1.9868,1.9736,1.9671,1.9605,1.9671,1.9802,2.0042,2.0259,2.0764,2.121,1.2065,1.2127,1.2305,1.2367,1.2428,1.2305,1.2112,1.1747,1.124,1.1036,1.1012,1.0436,0.9967,0.9771,0.9967,1.0432,1.1017,1.1725,1.2597,1.358,1.4001,1.4359,1.4715,1.4834,1.502,1.5323,1.5536,1.5816,1.6104,1.64,1.6382,1.6041,1.6474,1.6999,1.7588,1.9033,2.0017,2.0496,2.0931,2.1416,2.2095,2.2324,2.2417,2.2334,2.3005,2.3252,2.3059,2.3955,2.4299,2.3912,2.3869,2.3458,2.2738,2.1939,2.106,2.0031,1.9365,1.8499,1.7364,1.6691,1.6551,1.6968,1.7314,1.7716,1.8269,1.8144,1.8154,1.8337,1.7988,1.7364,1.6612,1.6053,1.5417,1.4784,1.4497,1.4569,1.4784,1.5275,1.5974,1.6932,1.7959,1.8977,1.9791,2.0324,2.0658,2.0722,2.0722,2.0604,2.054,2.0486,2.0233,1.9882,1.9555,1.9208,1.8802,1.8566,1.8585,1.8806,1.9467,1.9871,2.0064,2.0358,2.0635,2.0475,2.0205,1.9933,1.9933,1.9868,1.9868,1.9922,2.0183,2.0431,2.0786,2.121,2.1651,1.2127,1.2127,1.2436,1.2629,1.2683,1.2428,1.2058,1.174,1.1115,1.0722,1.0486,1.0104,0.9775,0.9708,1.0111,1.079,1.149,1.2343,1.3147,1.3941,1.4419,1.4775,1.497,1.5245,1.542,1.5672,1.6181,1.6513,1.6694,1.7123,1.7355,1.7364,1.7357,1.7812,1.8769,1.931,2.0048,2.0845,2.1064,2.1417,2.1793,2.1983,2.1996,2.1868,2.2939,2.351,2.3289,2.4094,2.4372,2.404,2.3361,2.2725,2.2002,2.106,2.0226,1.9441,1.8576,1.7696,1.6811,1.6603,1.6751,1.7166,1.751,1.792,1.8405,1.8347,1.8279,1.8202,1.7784,1.7097,1.6412,1.585,1.5355,1.4935,1.4721,1.4705,1.5133,1.5824,1.6515,1.7267,1.8375,1.933,1.9911,2.0324,2.0475,2.0529,2.0475,2.041,2.0281,2.0216,2.0172,1.9975,1.9566,1.91,1.8693,1.8085,1.7866,1.7845,1.8722,1.9392,1.972,2.0211,2.0669,2.0604,2.0346,2.0074,2.0009,2.0074,2.0259,2.0313,2.0635,2.1221,2.1612,2.1925,2.2049,1.2127,1.2243,1.2498,1.256,1.249,1.212,1.174,1.131,1.0744,1.0302,1.0083,0.99,0.9855,0.9928,1.046,1.1132,1.1973,1.2765,1.3571,1.4419,1.4843,1.5079,1.5245,1.5488,1.572,1.5951,1.6457,1.6874,1.7056,1.7257,1.7376,1.7456,1.7612,1.8077,1.8759,1.9472,2.0102,2.0586,2.0822,2.1055,2.1202,2.1492,2.1554,2.1594,2.2552,2.2977,2.2763,2.3472,2.3721,2.3233,2.2738,2.2039,2.1164,2.0344,1.9431,1.8432,1.7423,1.6751,1.6473,1.6621,1.6968,1.7314,1.7852,1.8279,1.8482,1.8337,1.8202,1.792,1.7451,1.683,1.6123,1.5559,1.5213,1.4935,1.4792,1.4999,1.563,1.6245,1.7001,1.7842,1.8664,1.9473,1.9977,2.0259,2.0475,2.054,2.0475,2.0346,2.0281,2.0292,2.016,1.9703,1.9102,1.8742,1.8589,1.8052,1.77,1.7978,1.8639,1.9321,1.9821,2.0154,2.054,2.0669,2.0475,2.027,2.0205,2.0399,2.0593,2.0711,2.1094,2.1624,2.1987,2.2123,2.2247,1.2182,1.2313,1.2506,1.2498,1.2367,1.1926,1.1553,1.1066,1.0555,1.0117,0.9868,0.9926,1.0097,1.0392,1.0868,1.1496,1.2351,1.3147,1.3932,1.4647,1.5088,1.5313,1.542,1.5672,1.5904,1.6171,1.6694,1.7088,1.7446,1.7483,1.7493,1.764,1.7996,1.8358,1.8804,1.9494,1.9978,2.022,2.0459,2.056,2.061,2.0921,2.1068,2.1175,2.1928,2.2192,2.1895,2.2681,2.2865,2.2298,2.193,2.1365,2.0398,1.9694,1.87,1.7491,1.6621,1.6202,1.6333,1.683,1.7245,1.7647,1.8269,1.8617,1.8539,1.8405,1.8124,1.7716,1.7166,1.6542,1.5982,1.5488,1.5204,1.5007,1.5007,1.5363,1.6061,1.6673,1.7423,1.8259,1.9065,1.9726,2.0194,2.0453,2.0593,2.0604,2.0475,2.0335,2.0302,2.0235,1.994,1.9441,1.8729,1.8327,1.8484,1.7986,1.7778,1.8132,1.8736,1.9407,2.0036,2.0269,2.054,2.0733,2.0593,2.0529,2.0475,2.0669,2.0978,2.136,2.1686,2.1937,2.2309,2.2371,2.2543,1.2305,1.2321,1.2506,1.2591,1.2567,1.2011,1.156,1.1059,1.0555,1.018,1.0047,1.0174,1.0568,1.1031,1.1227,1.1762,1.2544,1.3519,1.4249,1.4715,1.5186,1.542,1.542,1.572,1.6019,1.6353,1.6909,1.7479,1.7975,1.8061,1.8159,1.8309,1.8436,1.8756,1.9073,1.9319,1.9565,1.9798,1.9965,2.0029,2.0029,2.0182,2.0472,2.0775,2.1185,2.134,2.1192,2.1656,2.1785,2.1464,2.1109,2.0613,1.9835,1.9044,1.7959,1.6811,1.6473,1.6403,1.6603,1.7097,1.7588,1.8192,1.8539,1.8808,1.8741,1.8472,1.8134,1.7706,1.7019,1.6464,1.6132,1.5709,1.5417,1.5204,1.5363,1.5718,1.6272,1.7088,1.7833,1.8509,1.9452,2.0118,2.0593,2.0786,2.0722,2.054,2.041,2.0335,2.015,1.9779,1.9495,1.9233,1.8676,1.809,1.814,1.7787,1.7767,1.8198,1.8788,1.9392,1.984,2.0329,2.0628,2.085,2.0786,2.0733,2.0797,2.099,2.1423,2.1737,2.1999,2.2247,2.2555,2.2836,2.3017,1.2829,1.3146,1.3097,1.2915,1.2521,1.2059,1.1432,1.087,1.0498,1.0244,1.0244,1.0371,1.0807,1.1435,1.1864,1.2482,1.3155,1.383,1.4428,1.5029,1.5303,1.5478,1.5604,1.5894,1.6239,1.6637,1.7145,1.7645,1.803,1.8084,1.8139,1.8247,1.841,1.856,1.8827,1.904,1.9251,1.9384,1.9604,1.972,1.9772,1.9862,2.0003,2.0042,2.0614,2.0772,2.0382,2.073,2.0854,2.056,2.0274,1.9865,1.9288,1.8307,1.7364,1.6673,1.6542,1.6603,1.7019,1.7442,1.794,1.8414,1.8808,1.8875,1.8607,1.8337,1.794,1.7529,1.7019,1.6542,1.6202,1.578,1.5497,1.5426,1.5576,1.6,1.6751,1.7501,1.824,1.9054,1.9987,2.0529,2.0669,2.0733,2.0733,2.0604,2.0475,2.0346,2.0204,1.9788,1.9299,1.8949,1.8425,1.7948,1.7868,1.7589,1.7599,1.8317,1.895,1.9538,2.0057,2.0336,2.0582,2.088,2.0892,2.0905,2.0923,2.1221,2.1682,2.1978,2.2237,2.2555,2.2739,2.309,2.3258,1.3312,1.3576,1.34,1.3076,1.2745,1.2197,1.1615,1.1088,1.0613,1.0444,1.0553,1.0728,1.1185,1.1872,1.2482,1.3147,1.3803,1.424,1.4666,1.5254,1.543,1.5604,1.5788,1.6077,1.64,1.6807,1.7357,1.781,1.8084,1.8084,1.8084,1.8139,1.8193,1.8356,1.8506,1.8667,1.8815,1.8975,1.9198,1.9356,1.9356,1.95,1.9512,1.9457,1.9883,2.0015,1.9661,1.9877,1.9936,1.9787,1.957,1.9169,1.8603,1.7716,1.7028,1.6751,1.6742,1.695,1.7373,1.7872,1.8279,1.8549,1.8865,1.8931,1.8539,1.8269,1.794,1.7529,1.7038,1.6621,1.6403,1.5991,1.5718,1.5788,1.5929,1.6412,1.7166,1.7852,1.8721,1.9736,2.0399,2.0722,2.085,2.0786,2.0733,2.0669,2.054,2.041,2.0215,1.9646,1.9091,1.8709,1.8152,1.7796,1.769,1.759,1.7934,1.8647,1.8955,1.9571,2.0214,2.0482,2.0635,2.0921,2.0997,2.0985,2.1187,2.1481,2.1774,2.2067,2.2518,2.2848,2.303,2.3271,2.345,1.3816,1.3648,1.3416,1.3261,1.3013,1.2458,1.2037,1.1601,1.1036,1.0844,1.1046,1.1078,1.1597,1.2297,1.2964,1.3752,1.441,1.4647,1.4951,1.542,1.5604,1.5788,1.5972,1.6259,1.6591,1.692,1.7579,1.7963,1.8084,1.8084,1.8084,1.8084,1.7963,1.8073,1.8356,1.8247,1.8302,1.856,1.8798,1.8851,1.8851,1.9081,1.9081,1.8893,1.9035,1.9112,1.9035,1.9065,1.9103,1.9074,1.8989,1.8513,1.7891,1.7442,1.7107,1.6968,1.7107,1.7373,1.7706,1.8192,1.8607,1.8808,1.9008,1.8942,1.8539,1.8347,1.8076,1.7529,1.7116,1.683,1.6603,1.6403,1.6202,1.6132,1.6482,1.6899,1.7442,1.8259,1.9274,2.0335,2.0786,2.0967,2.1094,2.0967,2.085,2.0733,2.054,2.0399,2.0182,1.9449,1.8857,1.8534,1.8068,1.7533,1.7534,1.7656,1.8385,1.896,1.9149,1.9493,2.0432,2.0839,2.0917,2.1026,2.0772,2.0803,2.0878,2.1188,2.1643,2.1979,2.2548,2.3015,2.3271,2.3463,2.37,1.4533,1.4455,1.4034,1.3692,1.337,1.2723,1.2255,1.2051,1.1601,1.145,1.1593,1.1811,1.2208,1.2699,1.3329,1.4061,1.4843,1.5069,1.5362,1.5604,1.5798,1.5972,1.6259,1.6545,1.6976,1.7512,1.7854,1.803,1.8107,1.8052,1.7963,1.7963,1.7865,1.7865,1.8073,1.8073,1.8247,1.8476,1.8572,1.8679,1.8679,1.8721,1.8721,1.8679,1.8721,1.8667,1.8595,1.8452,1.8385,1.8302,1.8351,1.8204,1.7899,1.7647,1.7442,1.7392,1.7598,1.792,1.824,1.8654,1.8942,1.9142,1.9208,1.8942,1.8539,1.8405,1.8066,1.7598,1.7245,1.6959,1.6682,1.6691,1.6551,1.6272,1.6621,1.7107,1.7706,1.8844,1.9857,2.0529,2.0914,2.1031,2.1031,2.0903,2.0839,2.0733,2.0604,2.054,2.0384,1.9537,1.8961,1.8851,1.8041,1.7401,1.7545,1.7767,1.8171,1.8827,1.9145,1.9448,2.0392,2.0905,2.095,2.093,2.0676,2.0616,2.0692,2.0982,2.1432,2.1882,2.2343,2.282,2.3301,2.3582,2.3878,1.5015,1.4872,1.4425,1.4022,1.3696,1.3042,1.2721,1.2598,1.2269,1.2105,1.2182,1.2477,1.2806,1.3266,1.3821,1.4419,1.5128,1.543,1.5662,1.5846,1.6029,1.6202,1.6534,1.6864,1.7489,1.8125,1.8303,1.8473,1.8589,1.851,1.8306,1.8103,1.7969,1.7868,1.7931,1.7909,1.8096,1.8259,1.8356,1.8398,1.8464,1.8518,1.8506,1.8452,1.8506,1.8518,1.8422,1.8259,1.8147,1.8046,1.8105,1.8053,1.792,1.7784,1.7716,1.7735,1.794,1.8269,1.8654,1.8998,1.9208,1.9285,1.9274,1.9075,1.8617,1.8405,1.8134,1.7598,1.7392,1.7176,1.6821,1.6899,1.689,1.6682,1.6978,1.7451,1.8182,1.9309,2.0172,2.0658,2.0914,2.1042,2.1031,2.0839,2.085,2.0786,2.0733,2.0546,2.0322,1.9571,1.9182,1.8629,1.7873,1.7556,1.7667,1.7856,1.8047,1.8589,1.9034,1.9526,2.0231,2.0479,2.0577,2.0464,2.0268,2.0237,2.0355,2.0754,2.1212,2.1681,2.2248,2.2903,2.3495,2.3793,2.4008,1.5292,1.4864,1.4505,1.4274,1.4034,1.3382,1.315,1.3194,1.2956,1.2826,1.2818,1.3136,1.3397,1.3839,1.43,1.4834,1.5362,1.573,1.5961,1.6124,1.6306,1.6566,1.6857,1.7376,1.8014,1.8669,1.8828,1.9034,1.9272,1.9177,1.905,1.8496,1.8222,1.8091,1.7913,1.78,1.7877,1.8084,1.8084,1.8139,1.8139,1.8247,1.8302,1.8139,1.8398,1.8518,1.841,1.8394,1.8349,1.8239,1.8155,1.8016,1.7813,1.7716,1.7862,1.8008,1.8202,1.8607,1.9008,1.9274,1.9407,1.9417,1.9341,1.9075,1.8674,1.8482,1.8212,1.7598,1.7529,1.7323,1.7107,1.7107,1.7166,1.7245,1.7461,1.7998,1.8931,1.966,2.0183,2.0593,2.085,2.0978,2.1106,2.0903,2.085,2.0839,2.0764,2.0542,2.0115,1.9549,1.8844,1.8309,1.7787,1.7623,1.7656,1.7734,1.7957,1.8326,1.8872,1.9402,1.996,2.017,2.0299,2.0157,2.0037,2.0032,2.0132,2.0555,2.1002,2.1475,2.2201,2.307,2.356,2.3787,2.4054,1.5355,1.5062,1.4569,1.4281,1.3985,1.3484,1.3353,1.3637,1.3541,1.3507,1.3589,1.4024,1.4119,1.4165,1.4666,1.5137,1.5556,1.5788,1.6087,1.6306,1.6591,1.7088,1.76,1.8021,1.8564,1.9156,1.9272,1.9329,1.9395,1.9246,1.9026,1.8729,1.8324,1.814,1.8056,1.7857,1.7767,1.7909,1.7975,1.8018,1.8084,1.8073,1.8084,1.815,1.8356,1.8422,1.8414,1.8506,1.8451,1.8278,1.8187,1.8132,1.8142,1.8134,1.8134,1.8269,1.8607,1.8942,1.9208,1.9539,1.9736,1.9736,1.9539,1.9274,1.8751,1.8617,1.8202,1.7784,1.7647,1.7588,1.7392,1.7392,1.7529,1.7803,1.793,1.8414,1.9075,1.9671,2.0129,2.0593,2.085,2.0903,2.0967,2.0903,2.0839,2.0892,2.0869,2.0699,2.0166,1.9565,1.8952,1.8402,1.7923,1.7701,1.7601,1.7656,1.7844,1.8141,1.8626,1.9107,1.9627,2.0022,2.0117,2.0116,2.0085,2.0012,2.0053,2.0257,2.0821,2.1388,2.1934,2.2626,2.3197,2.3579,2.3923,1.5505,1.5133,1.4713,1.4353,1.4057,1.363,1.3564,1.379,1.4049,1.4018,1.403,1.4518,1.4674,1.4465,1.4902,1.5323,1.5672,1.5798,1.5961,1.6337,1.6838,1.7417,1.8013,1.8503,1.9011,1.9569,1.9614,1.9688,1.9784,1.9621,1.9397,1.9127,1.8742,1.8621,1.8603,1.8157,1.8014,1.8148,1.8001,1.7854,1.7975,1.7963,1.803,1.8205,1.8367,1.8534,1.8771,1.9137,1.913,1.8736,1.8448,1.8338,1.8277,1.8337,1.8337,1.8414,1.8875,1.9142,1.9417,1.9736,1.9868,1.9868,1.9671,1.9396,1.8942,1.8674,1.8269,1.792,1.7774,1.7657,1.7598,1.7608,1.7881,1.8144,1.8472,1.8818,1.9285,1.9802,2.027,2.0593,2.0786,2.0967,2.1031,2.0967,2.0967,2.1031,2.1031,2.0682,2.0167,1.9573,1.9044,1.8527,1.82,1.8021,1.808,1.8148,1.8204,1.8449,1.8437,1.8936,1.9407,1.9824,1.9939,1.9998,1.9974,2.0055,2.022,2.0398,2.0875,2.1407,2.1746,2.2187,2.2825,2.3228,2.3597,1.5584,1.5133,1.4776,1.4425,1.4137,1.3928,1.3863,1.4008,1.4425,1.4477,1.4438,1.4963,1.5196,1.4906,1.5374,1.5566,1.5861,1.6009,1.6125,1.6609,1.7269,1.7992,1.8434,1.8862,1.9343,1.9879,1.9946,2.0095,2.022,2.0311,2.0017,1.9539,1.9408,1.9291,1.9081,1.8522,1.8404,1.8419,1.7969,1.7755,1.7854,1.7909,1.7963,1.8271,1.855,1.8987,1.9435,1.9909,1.9873,1.9232,1.885,1.8561,1.8432,1.8482,1.8499,1.8506,1.8854,1.9183,1.9456,1.9587,1.9825,1.9803,1.9672,1.9462,1.9142,1.8741,1.8387,1.8213,1.793,1.785,1.7772,1.7939,1.8154,1.8482,1.8875,1.9208,1.9473,2.0009,2.0464,2.0658,2.085,2.0967,2.1094,2.1094,2.1031,2.1106,2.1123,2.0802,2.0305,1.9742,1.9227,1.872,1.8489,1.8438,1.8555,1.8764,1.8759,1.8838,1.8596,1.8821,1.9197,1.956,1.9701,1.9811,2.0042,2.0295,2.056,2.0817,2.1101,2.1261,2.1498,2.2086,2.2675,2.2897,2.3158,1.5426,1.5196,1.4776,1.4497,1.4281,1.4137,1.4201,1.4425,1.4919,1.5141,1.5408,1.5939,1.6113,1.6095,1.6191,1.6507,1.6624,1.6675,1.6991,1.7603,1.8258,1.876,1.9102,1.9419,1.978,2.0187,2.0309,2.0311,2.0335,2.027,2.0107,1.9965,1.9626,1.95,1.9437,1.8696,1.8336,1.8361,1.7913,1.7745,1.7844,1.7889,1.8011,1.832,1.8786,1.947,2.0062,2.0102,1.9835,1.9673,1.9359,1.8889,1.866,1.8633,1.8558,1.85,1.872,1.8829,1.8794,1.9208,1.9519,1.9521,1.9554,1.9473,1.9274,1.8808,1.8652,1.8597,1.8496,1.8308,1.8298,1.8321,1.8522,1.8741,1.9142,1.9594,1.9857,2.0042,2.0377,2.0711,2.0903,2.0967,2.1158,2.1158,2.1169,2.1233,2.1043,2.0859,2.0414,1.9889,1.9475,1.9033,1.8806,1.8786,1.9137,1.9182,1.9011,1.8929,1.8709,1.8786,1.9158,1.9624,1.987,2.0041,2.0219,2.0534,2.0809,2.0848,2.1007,2.1167,2.13,2.1695,2.2073,2.2335,2.2779,1.5346,1.5133,1.4784,1.4497,1.4425,1.4353,1.4489,1.4848,1.5346,1.5687,1.5936,1.6427,1.6599,1.6494,1.6675,1.6782,1.6855,1.7053,1.7521,1.8176,1.8733,1.919,1.9683,1.9832,2.005,2.027,2.027,2.0281,2.0216,2.0151,2.0085,2.0074,1.9802,1.9865,1.9805,1.8978,1.8618,1.8592,1.8134,1.7924,1.8092,1.8385,1.8623,1.8999,1.9552,2.0193,2.0381,2.0393,2.0187,1.989,1.9413,1.8885,1.8557,1.8537,1.8472,1.8195,1.8385,1.8539,1.8545,1.8989,1.9441,1.9419,1.9533,1.953,1.9351,1.8942,1.8829,1.8934,1.8834,1.8764,1.8754,1.8527,1.8647,1.8942,1.9341,1.9736,2.0129,2.0313,2.0506,2.0839,2.0967,2.1094,2.1169,2.1158,2.1158,2.1169,2.1019,2.0825,2.0522,2.0052,1.9834,1.9499,1.9221,1.9225,1.9678,1.9629,1.9206,1.8995,1.8713,1.8905,1.9263,1.9726,2.0162,2.0399,2.0576,2.0759,2.0983,2.101,2.1014,2.103,2.1114,2.1249,2.1485,2.1864,2.2439,1.5355,1.5204,1.4776,1.4577,1.4505,1.4569,1.4784,1.5125,1.578,1.6173,1.6306,1.673,1.693,1.6828,1.6928,1.6943,1.7091,1.7376,1.8045,1.8742,1.9052,1.9458,1.9944,2.0085,2.0096,2.0085,2.0151,2.0151,2.0074,2.0085,2.0085,2.0074,2.0074,2.0139,2.0092,1.9335,1.8819,1.907,1.85,1.8427,1.8701,1.9145,1.941,1.9958,2.0321,2.0537,2.0545,2.0579,2.0495,1.9911,1.9287,1.8648,1.8288,1.8194,1.8144,1.7729,1.7973,1.8109,1.8218,1.8812,1.9266,1.9331,1.9523,1.9584,1.9483,1.9193,1.9056,1.9153,1.9223,1.9072,1.9063,1.8831,1.8869,1.9075,1.9473,1.9868,2.0335,2.0604,2.0733,2.0903,2.1031,2.1158,2.1094,2.1031,2.1031,2.1094,2.0955,2.079,2.05,2.0257,2.0155,2.0013,1.9791,1.9508,1.9845,1.9587,1.9218,1.9109,1.8724,1.909,1.9409,1.9989,2.0469,2.0733,2.0961,2.1212,2.1362,2.1416,2.1339,2.1103,2.0914,2.0987,2.1172,2.1433,2.2047,1.5204,1.5196,1.4776,1.4641,1.4792,1.4864,1.515,1.5647,1.6132,1.6585,1.6995,1.7396,1.761,1.7677,1.7783,1.7841,1.7942,1.8243,1.8654,1.9162,1.95,1.9879,2.0042,2.0085,2.0085,2.0085,2.0085,2.0074,2.0009,2.0009,2.0085,2.0085,2.0085,2.0216,2.0017,1.939,1.9122,1.9415,1.8881,1.8868,1.9374,1.9627,1.9893,2.0493,2.0618,2.063,2.0676,2.0579,2.0281,1.989,1.9276,1.8722,1.8206,1.8039,1.7788,1.7624,1.7675,1.7733,1.7767,1.8381,1.8742,1.8942,1.9308,1.9562,1.9473,1.9183,1.9185,1.9616,1.9808,1.9685,1.9746,1.927,1.9091,1.9295,1.9615,2.0074,2.0464,2.0669,2.0786,2.1031,2.1094,2.1158,2.1031,2.0903,2.085,2.0914,2.0903,2.0828,2.0722,2.0653,2.0583,2.0501,2.0417,2.0128,1.9946,1.9451,1.9045,1.9156,1.9073,1.9335,1.9763,2.03,2.0737,2.1354,2.1707,2.1993,2.2043,2.192,2.1539,2.1176,2.0906,2.0727,2.1029,2.1407,2.176,1.5355,1.5355,1.5062,1.4919,1.5078,1.5292,1.5655,1.607,1.6551,1.7028,1.7432,1.7716,1.794,1.8008,1.8008,1.8144,1.8414,1.8808,1.9142,1.9473,1.9747,1.9944,2.0085,2.0085,2.0085,2.0009,2.0074,2.0074,2.0009,2.0074,2.0085,2.0085,2.0085,2.0151,2.0073,1.9599,1.9492,1.9627,1.9459,1.94,1.9958,2.0179,2.0707,2.0834,2.0915,2.0865,2.0707,2.0658,2.0202,1.9608,1.8996,1.8401,1.7956,1.7605,1.7392,1.7316,1.7388,1.7473,1.7577,1.8295,1.8917,1.894,1.9392,1.9672,1.9539,1.9281,1.9325,1.9849,2.0285,2.0202,2.0021,1.9651,1.9531,1.9526,1.9802,2.0194,2.0593,2.0722,2.0903,2.1019,2.1031,2.0967,2.0903,2.0786,2.0722,2.0722,2.0786,2.085,2.0903,2.0839,2.0786,2.0635,2.0462,2.0169,1.9907,1.9531,1.9183,1.9181,1.9347,1.9626,2.0244,2.0878,2.1682,2.2395,2.2655,2.2738,2.2497,2.2282,2.1794,2.1325,2.1236,2.1224,2.1251,2.1446,2.1983,1.5505,1.5497,1.5275,1.5275,1.5355,1.5718,1.6079,1.6491,1.7028,1.7382,1.7716,1.793,1.8008,1.8008,1.8076,1.8212,1.8549,1.8942,1.9274,1.9605,1.9813,1.9998,2.0085,2.0074,2.0053,2.0129,2.0194,2.014,2.0074,2.014,2.014,2.014,2.0151,2.0151,2.0095,1.9794,1.9758,1.9968,2.0053,2.0132,2.0398,2.0968,2.136,2.1233,2.1273,2.1135,2.0786,2.0669,2.0256,1.9552,1.8916,1.8326,1.7777,1.7334,1.7134,1.7123,1.7256,1.7368,1.7767,1.8503,1.9059,1.8934,1.953,1.9749,1.9711,1.9546,1.9637,2.0124,2.039,2.0512,2.0278,1.9972,1.9807,1.9799,1.9987,2.0313,2.0658,2.0786,2.085,2.0903,2.0839,2.0839,2.0722,2.0658,2.054,2.0604,2.0658,2.0733,2.0786,2.085,2.0775,2.0613,2.0403,2.0035,1.9823,1.9701,1.9459,1.9471,1.9655,1.9987,2.0758,2.1621,2.2337,2.3046,2.3313,2.3294,2.2977,2.2684,2.23,2.1983,2.1812,2.1668,2.1574,2.2046,2.2748,1.5505,1.5497,1.5275,1.5426,1.5726,1.6,1.6342,1.683,1.7254,1.7529,1.7716,1.794,1.8008,1.8008,1.8212,1.8347,1.8617,1.9019,1.9407,1.9605,1.9878,2.0074,2.0074,2.0096,2.0237,2.0259,2.0377,2.0237,2.0129,2.027,2.0281,2.0205,2.0281,2.0346,2.0291,2.0065,2.0102,2.0516,2.0381,2.0494,2.0951,2.1175,2.1221,2.1221,2.1221,2.1106,2.0797,2.0669,2.0375,1.9899,1.9135,1.8709,1.8458,1.7829,1.7512,1.7479,1.7479,1.7534,1.7846,1.8699,1.9197,1.9171,1.9679,1.9814,1.9743,1.996,2.012,2.0277,2.0596,2.0636,2.0537,2.0268,2.0095,2.0172,2.0357,2.0627,2.0884,2.0786,2.085,2.085,2.085,2.0658,2.0529,2.0475,2.041,2.0475,2.0529,2.0658,2.0655,2.0587,2.0501,2.0306,2.0426,2.0176,1.9924,1.9769,1.9849,1.9761,2.0041,2.0334,2.1221,2.2083,2.2807,2.3373,2.366,2.3864,2.3617,2.3282,2.2933,2.2572,2.2213,2.204,2.1876,2.2564,2.3437,1.5788,1.5655,1.5576,1.5718,1.6,1.6272,1.6612,1.7107,1.7442,1.7725,1.7862,1.794,1.8008,1.8086,1.8279,1.8414,1.8617,1.9152,1.9483,1.9671,1.9944,2.0151,2.027,2.0259,2.0388,2.0518,2.0582,2.0582,2.0399,2.0475,2.0475,2.0346,2.041,2.0475,2.0475,2.0381,2.0595,2.079,2.0837,2.0888,2.1175,2.1285,2.1285,2.1221,2.1273,2.1094,2.0786,2.0669,2.0437,1.9905,1.9138,1.8747,1.8452,1.8013,1.7656,1.7888,1.8159,1.8284,1.8351,1.9077,1.9366,1.956,1.9894,2.0031,1.9876,2.0075,2.0369,2.0327,2.066,2.0822,2.07,2.0571,2.0609,2.0676,2.0839,2.1057,2.1164,2.0884,2.085,2.085,2.0786,2.0658,2.0593,2.0604,2.0604,2.0604,2.0526,2.0512,2.0355,2.0102,1.9965,1.9786,2.0087,2.0322,2.0104,1.9996,2.019,2.0211,2.0439,2.0926,2.1693,2.248,2.3115,2.3625,2.3948,2.4028,2.4066,2.3689,2.3136,2.2838,2.2635,2.251,2.2549,2.3345,2.4136,1.607,1.5938,1.5947,1.607,1.6342,1.6682,1.7019,1.7373,1.7706,1.7998,1.8066,1.8076,1.8076,1.8076,1.8347,1.8549,1.8617,1.9274,1.9605,1.9736,1.9944,2.0216,2.0346,2.0475,2.0604,2.0722,2.085,2.085,2.085,2.0797,2.0733,2.041,2.0604,2.0669,2.0593,2.0677,2.088,2.1008,2.1071,2.1135,2.1233,2.1348,2.1296,2.1221,2.121,2.1158,2.0722,2.0722,2.0434,2.0039,1.9393,1.8974,1.8814,1.8295,1.8134,1.838,1.8746,1.9091,1.9298,1.9746,1.9875,2.0003,2.0079,2.0074,1.9943,2.0218,2.0578,2.0754,2.121,2.1258,2.1149,2.1213,2.1284,2.1386,2.1451,2.1595,2.1615,2.1311,2.0975,2.0839,2.0839,2.0786,2.0786,2.0797,2.0797,2.0733,2.0568,2.04,2.0102,1.9732,1.9629,1.9569,2.0004,2.0392,2.0385,2.0308,2.0472,2.0623,2.0857,2.128,2.1981,2.2652,2.3195,2.3721,2.4138,2.4195,2.4152,2.3756,2.3319,2.3218,2.3103,2.3103,2.3347,2.4089,2.458,1.6132,1.6272,1.6272,1.6482,1.683,1.7176,1.7442,1.7716,1.8202,1.8337,1.8279,1.8269,1.8134,1.8144,1.8347,1.8617,1.8808,1.9341,1.9671,1.9868,2.0074,2.0216,2.041,2.0604,2.0797,2.0903,2.1031,2.1106,2.1106,2.1031,2.0786,2.0529,2.0786,2.0786,2.0786,2.0839,2.1031,2.1094,2.1158,2.1158,2.1169,2.1221,2.1158,2.1031,2.1094,2.0978,2.0475,2.0722,2.0805,2.0508,1.9833,1.9616,1.9506,1.8892,1.8759,1.9074,1.9432,1.9819,2.0239,2.0329,2.027,2.0064,2.0015,2.0129,2.0151,2.0823,2.1246,2.1417,2.182,2.2258,2.2299,2.2372,2.2128,2.2253,2.215,2.2058,2.1978,2.1706,2.1357,2.1028,2.0903,2.085,2.0914,2.0978,2.085,2.0797,2.0359,2.018,1.9832,1.9497,1.9467,1.9536,2.007,2.0386,2.0624,2.0715,2.0717,2.0945,2.1206,2.1634,2.2209,2.2813,2.3412,2.3808,2.4216,2.4249,2.4234,2.389,2.3651,2.3618,2.3585,2.3489,2.3625,2.4168,2.4536,1.6342,1.6473,1.6751,1.6899,1.6908,1.7245,1.7588,1.793,1.8347,1.8414,1.8347,1.8279,1.8269,1.8269,1.8414,1.8674,1.9008,1.9407,1.9671,1.9944,2.0151,2.041,2.0604,2.0722,2.0914,2.1031,2.1169,2.1233,2.1169,2.1094,2.0967,2.0839,2.0967,2.085,2.085,2.0903,2.1094,2.1094,2.1094,2.1094,2.1158,2.1094,2.1031,2.1094,2.1169,2.1031,2.0775,2.0978,2.1019,2.0882,2.0268,2.031,2.037,1.9681,1.9606,1.9987,2.0318,2.0629,2.0709,2.0775,2.06,2.0619,2.0493,2.0399,2.0475,2.1108,2.152,2.1857,2.2319,2.2854,2.2868,2.2743,2.264,2.2914,2.2903,2.2673,2.2353,2.2103,2.1627,2.1305,2.1058,2.0967,2.1031,2.1158,2.1042,2.0828,2.0355,1.9909,1.9574,1.9317,1.9299,1.943,1.994,2.0409,2.0658,2.0786,2.0955,2.1267,2.1556,2.2036,2.2558,2.3107,2.3679,2.4045,2.4343,2.4385,2.4387,2.4132,2.3949,2.3819,2.3747,2.3754,2.3943,2.4261,2.4434,1.6473,1.6751,1.7028,1.7176,1.7176,1.752,1.7862,1.8144,1.8549,1.8549,1.8347,1.8337,1.8337,1.8347,1.8482,1.8741,1.9142,1.9473,1.9736,2.0009,2.0281,2.054,2.0722,2.085,2.0967,2.1169,2.1233,2.1233,2.1169,2.1094,2.0967,2.0967,2.1094,2.0978,2.0914,2.1031,2.1233,2.1158,2.1031,2.0967,2.1083,2.0967,2.0903,2.1042,2.1106,2.1042,2.0967,2.1083,2.1221,2.1128,2.0925,2.0936,2.0906,2.0815,2.0609,2.0961,2.1233,2.1344,2.1197,2.0912,2.0791,2.0801,2.0688,2.0733,2.0986,2.1524,2.2059,2.2294,2.2867,2.3375,2.3524,2.3479,2.3491,2.3792,2.357,2.3282,2.288,2.2525,2.1999,2.1518,2.1335,2.1042,2.1031,2.1094,2.0978,2.0696,2.0191,1.978,1.9427,1.9277,1.9299,1.9462,1.9799,2.0222,2.0669,2.0744,2.0994,2.1537,2.194,2.245,2.2979,2.3548,2.4091,2.4593,2.48,2.4728,2.4593,2.4411,2.4157,2.3916,2.3891,2.3865,2.4073,2.4292,2.4363,1.6682,1.6899,1.7107,1.7373,1.7638,1.8056,1.8347,1.8482,1.8875,1.8808,1.8549,1.8482,1.8472,1.8405,1.8482,1.8818,1.9274,1.9539,1.9802,2.0205,2.041,2.0593,2.0786,2.0903,2.1031,2.1158,2.1221,2.1233,2.1233,2.1094,2.1031,2.1042,2.1106,2.1094,2.0903,2.1094,2.1169,2.1169,2.0967,2.0903,2.0903,2.0903,2.085,2.0914,2.1042,2.1031,2.1031,2.1221,2.1331,2.1292,2.1451,2.1547,2.1559,2.1443,2.1517,2.1968,2.1807,2.1777,2.1806,2.1227,2.0996,2.1008,2.0903,2.0978,2.1376,2.2016,2.2817,2.2983,2.3896,2.4567,2.466,2.4517,2.4411,2.4292,2.4057,2.3695,2.327,2.28,2.226,2.1797,2.1463,2.1169,2.1106,2.1031,2.0926,2.0576,2.005,1.9662,1.9427,1.943,1.9495,1.9495,1.9788,2.0222,2.0616,2.0725,2.1054,2.1632,2.2337,2.2864,2.3484,2.4124,2.4641,2.5154,2.5305,2.5275,2.5013,2.4762,2.4398,2.4034,2.3949,2.3982,2.4189,2.4371,2.449,1.6682,1.6908,1.7245,1.7598,1.793,1.8202,1.8472,1.8741,1.8942,1.8931,1.8741,1.8674,1.8674,1.8674,1.8674,1.9008,1.9417,1.9539,1.9878,2.0205,2.0464,2.0604,2.0786,2.0967,2.1146,2.1273,2.1273,2.1285,2.1336,2.1146,2.1094,2.1106,2.1169,2.1158,2.1094,2.1158,2.1169,2.0967,2.085,2.0786,2.0797,2.0809,2.0809,2.0797,2.1094,2.1158,2.1135,2.144,2.1509,2.1608,2.195,2.1981,2.2304,2.2407,2.24,2.2711,2.2611,2.2384,2.2149,2.1675,2.136,2.1319,2.121,2.1285,2.1706,2.2781,2.3394,2.3819,2.4665,2.5145,2.5312,2.4886,2.4659,2.4587,2.4327,2.3893,2.3442,2.2937,2.2421,2.2047,2.1643,2.1325,2.1158,2.1129,2.1012,2.091,2.047,1.9882,1.9517,1.9736,1.9856,1.967,1.9746,2.0245,2.0584,2.0928,2.135,2.1987,2.2654,2.3337,2.3965,2.4688,2.5203,2.5728,2.582,2.5871,2.5387,2.4862,2.4452,2.421,2.4217,2.4243,2.4288,2.4603,2.4892,1.676,1.6978,1.7323,1.7666,1.8018,1.8279,1.8607,1.8865,1.9075,1.9008,1.8808,1.8808,1.8808,1.8808,1.8931,1.9131,1.9615,1.9671,1.9868,2.0205,2.054,2.0733,2.085,2.1042,2.1221,2.1285,2.1285,2.1221,2.1273,2.1083,2.1094,2.1169,2.1192,2.1243,2.1312,2.1339,2.1339,2.1212,2.1171,2.1096,2.0984,2.0927,2.0978,2.0971,2.1158,2.1348,2.1506,2.1602,2.1704,2.2066,2.2346,2.2432,2.3012,2.3224,2.316,2.3361,2.329,2.3121,2.2916,2.2671,2.2526,2.2479,2.1973,2.1737,2.2166,2.3159,2.3646,2.425,2.5034,2.5317,2.5358,2.4957,2.479,2.4718,2.442,2.3985,2.3789,2.3352,2.2842,2.2387,2.1806,2.151,2.1285,2.1215,2.1186,2.1043,2.0861,2.0333,1.9876,2.0085,2.0314,2.0194,2.0281,2.0776,2.1208,2.1498,2.1913,2.2365,2.3026,2.3798,2.4542,2.5289,2.5765,2.6289,2.6464,2.6324,2.5527,2.5022,2.4721,2.4682,2.4728,2.4656,2.4472,2.4899,2.5467,1.6908,1.6978,1.7323,1.7745,1.8008,1.8482,1.8808,1.9142,1.9131,1.9008,1.8808,1.8875,1.8875,1.8875,1.9008,1.9274,1.9605,1.9802,1.9998,2.0335,2.0593,2.0722,2.0937,2.1111,2.1383,2.1337,2.1406,2.1613,2.1348,2.1456,2.1445,2.1353,2.1479,2.1533,2.1595,2.171,2.162,2.161,2.1576,2.1363,2.1119,2.1219,2.1158,2.119,2.1285,2.16,2.1854,2.2066,2.2043,2.2355,2.2795,2.3012,2.3264,2.3548,2.3787,2.3893,2.3838,2.3927,2.3968,2.3745,2.3782,2.364,2.2714,2.244,2.2611,2.3344,2.3737,2.4213,2.4822,2.5042,2.5216,2.5004,2.4801,2.4646,2.4418,2.429,2.4258,2.3875,2.3325,2.2772,2.2081,2.1666,2.1423,2.1319,2.1284,2.1334,2.1273,2.1118,2.0742,2.072,2.085,2.0893,2.107,2.1537,2.1829,2.2013,2.2377,2.2834,2.3583,2.4283,2.5047,2.5706,2.617,2.6608,2.6979,2.6765,2.6009,2.5533,2.5201,2.5229,2.5475,2.5402,2.5382,2.5717,2.6162,1.6908,1.6978,1.7451,1.7862,1.8337,1.9131,1.9473,1.9473,1.9341,1.9208,1.9152,1.9075,1.9008,1.9008,1.9131,1.9407,1.9605,1.9813,2.0009,2.027,2.054,2.0669,2.0963,2.135,2.1629,2.1943,2.2027,2.2177,2.2324,2.2258,2.2113,2.2126,2.1888,2.1936,2.2026,2.2201,2.2067,2.1954,2.1915,2.1605,2.1374,2.1464,2.1433,2.1435,2.16,2.1913,2.2199,2.2104,2.2198,2.2817,2.2883,2.3026,2.3677,2.3884,2.4099,2.4486,2.458,2.4708,2.477,2.4549,2.4508,2.4576,2.3751,2.3354,2.3416,2.3513,2.372,2.4034,2.4426,2.4752,2.4857,2.479,2.4673,2.4577,2.4411,2.4329,2.4237,2.3862,2.3332,2.2899,2.2277,2.178,2.1474,2.14,2.136,2.159,2.1676,2.1621,2.1542,2.1583,2.149,2.1545,2.1801,2.2218,2.2347,2.2522,2.2888,2.3397,2.4038,2.4602,2.5155,2.5767,2.6427,2.6812,2.7139,2.6973,2.6582,2.6123,2.5774,2.6166,2.6369,2.6268,2.6307,2.6631,2.6821,1.7038,1.7107,1.7579,1.8192,1.8865,1.966,1.9987,1.9944,1.9671,1.9473,1.9274,1.9208,1.9208,1.9208,1.9351,1.955,1.9747,1.9878,2.0009,2.0216,2.0475,2.0669,2.0967,2.1467,2.1847,2.2177,2.2442,2.2615,2.2776,2.2685,2.2503,2.2332,2.2332,2.234,2.2369,2.2499,2.2573,2.2468,2.2369,2.1981,2.1844,2.189,2.1843,2.1717,2.1925,2.2223,2.2519,2.2307,2.2635,2.3148,2.3089,2.3328,2.3942,2.419,2.4827,2.5236,2.5486,2.5755,2.5841,2.5668,2.5492,2.5176,2.4543,2.4126,2.3852,2.3813,2.3624,2.3594,2.4062,2.4382,2.4429,2.4447,2.4495,2.4602,2.4402,2.4272,2.4002,2.3762,2.3321,2.2917,2.2412,2.1879,2.16,2.1463,2.1603,2.1953,2.2287,2.2399,2.2385,2.2402,2.2321,2.2218,2.251,2.2816,2.2902,2.3044,2.3438,2.3764,2.4282,2.4815,2.5241,2.5861,2.6496,2.6883,2.7102,2.6948,2.6778,2.6619,2.643,2.6827,2.7149,2.7135,2.7216,2.7511,2.752,1.7235,1.7314,1.7862,1.8664,1.9594,2.0042,2.0377,2.0604,2.0205,1.9736,1.9473,1.9341,1.9341,1.9417,1.955,1.9736,1.9878,2.0009,2.0074,2.0151,2.0475,2.0604,2.0955,2.1524,2.2021,2.2226,2.2559,2.3179,2.2914,2.2845,2.2844,2.2514,2.2408,2.2444,2.2634,2.2772,2.2906,2.3061,2.305,2.2797,2.2445,2.249,2.2655,2.2154,2.2285,2.2543,2.2787,2.2944,2.3103,2.333,2.3497,2.3662,2.4209,2.4849,2.567,2.6102,2.6401,2.6581,2.6642,2.6375,2.6105,2.5722,2.5134,2.4549,2.4211,2.3686,2.3323,2.3474,2.3893,2.4142,2.421,2.4413,2.4519,2.4543,2.4448,2.4294,2.4068,2.3649,2.3096,2.2771,2.242,2.1922,2.1686,2.1572,2.1806,2.2338,2.264,2.2821,2.3149,2.3153,2.3048,2.2887,2.3116,2.3295,2.3519,2.3686,2.3944,2.4299,2.4622,2.4897,2.5241,2.5861,2.6633,2.6963,2.73,2.713,2.7026,2.6985,2.7112,2.7293,2.7605,2.788,2.812,2.8177,2.8009,1.7314,1.7529,1.8586,1.932,1.9868,2.0635,2.085,2.0733,2.085,2.0484,1.9911,1.966,1.9539,1.9605,1.9791,1.9987,1.9998,2.014,2.0205,2.0216,2.041,2.0593,2.0924,2.1731,2.224,2.28,2.3236,2.3718,2.3601,2.3504,2.3417,2.3273,2.3,2.286,2.2886,2.3054,2.3301,2.3582,2.3572,2.3315,2.2913,2.2983,2.3048,2.2698,2.2739,2.2836,2.3017,2.3078,2.321,2.339,2.3509,2.3978,2.4706,2.5831,2.6435,2.6687,2.704,2.7168,2.6956,2.6627,2.6161,2.5788,2.5212,2.4673,2.4116,2.3506,2.3236,2.3514,2.3704,2.389,2.4141,2.4354,2.4543,2.4542,2.4481,2.43,2.4118,2.3514,2.2867,2.2579,2.2303,2.2083,2.1773,2.1783,2.2062,2.2301,2.2603,2.2891,2.3555,2.3792,2.3648,2.3519,2.3598,2.3818,2.397,2.4127,2.4273,2.4418,2.4706,2.4897,2.517,2.5931,2.6701,2.7188,2.7391,2.7314,2.7407,2.767,2.7761,2.7811,2.7991,2.8278,2.8319,2.8363,2.8208,1.7451,1.7725,1.8921,1.9726,2.0248,2.0903,2.1169,2.1135,2.0928,2.0626,2.0228,1.9933,1.9781,1.9846,2.0042,2.0183,2.014,2.0335,2.027,2.0216,2.0281,2.0529,2.1127,2.1878,2.2343,2.2937,2.3695,2.4154,2.4055,2.3728,2.3475,2.3372,2.315,2.3075,2.3001,2.3298,2.3666,2.402,2.3956,2.3777,2.3392,2.337,2.322,2.2936,2.2909,2.3017,2.3078,2.3138,2.3198,2.3577,2.3872,2.487,2.5664,2.6459,2.692,2.717,2.742,2.7459,2.6933,2.6385,2.5792,2.5279,2.4993,2.4365,2.4098,2.3508,2.3261,2.3458,2.3396,2.3576,2.3942,2.4248,2.4423,2.4491,2.4405,2.4282,2.367,2.3003,2.2618,2.2426,2.2195,2.2047,2.1824,2.171,2.194,2.2174,2.2398,2.2926,2.3592,2.4143,2.4105,2.4055,2.4116,2.4116,2.4273,2.4418,2.4574,2.4718,2.4778,2.5253,2.5652,2.6151,2.6701,2.7255,2.759,2.7564,2.7696,2.7934,2.8013,2.7959,2.8233,2.856,2.8509,2.843,2.8314,1.7599,1.8046,1.9253,2.0064,2.0635,2.1094,2.1376,2.1385,2.0865,2.0438,2.022,2.0083,2.005,2.0073,2.0226,2.0324,2.0399,2.0475,2.0346,2.0281,2.0346,2.054,2.1037,2.1843,2.249,2.3064,2.3775,2.3929,2.3897,2.3604,2.3298,2.3012,2.2852,2.2777,2.315,2.3604,2.4043,2.4292,2.4306,2.4328,2.4018,2.3722,2.3281,2.3107,2.3017,2.3065,2.3125,2.3226,2.3299,2.3857,2.4545,2.5566,2.6343,2.6971,2.7142,2.7367,2.7262,2.6935,2.6362,2.5908,2.5114,2.4505,2.4344,2.4201,2.3965,2.3839,2.3638,2.3569,2.352,2.3591,2.4024,2.4329,2.4479,2.457,2.4482,2.4157,2.3376,2.2739,2.2606,2.245,2.2363,2.2277,2.2111,2.191,2.1964,2.2174,2.2455,2.296,2.3477,2.3913,2.4177,2.4273,2.4418,2.4429,2.4502,2.4634,2.4861,2.4849,2.4981,2.5594,2.6082,2.6427,2.6837,2.7443,2.7723,2.7643,2.7789,2.8013,2.8079,2.8145,2.8406,2.8587,2.8522,2.8444,2.8365,1.7866,1.91,2.0042,2.0582,2.0903,2.1474,2.1502,2.1063,2.1007,2.0556,1.9895,1.9764,1.976,1.9972,2.0565,2.0711,2.0593,2.0604,2.0475,2.041,2.0399,2.054,2.0989,2.1815,2.2615,2.3294,2.3778,2.399,2.3587,2.3301,2.3128,2.2872,2.2767,2.2852,2.3075,2.3593,2.4227,2.4519,2.4486,2.4365,2.4353,2.3976,2.3455,2.3242,2.3065,2.3125,2.3226,2.3602,2.3876,2.4466,2.5342,2.6282,2.688,2.7299,2.7379,2.7091,2.6987,2.6375,2.5807,2.5291,2.4568,2.4449,2.4448,2.4548,2.4458,2.462,2.4436,2.439,2.4319,2.4378,2.4685,2.4814,2.4955,2.4951,2.4864,2.4109,2.3376,2.328,2.3256,2.3171,2.3135,2.2989,2.281,2.2725,2.2721,2.2867,2.2949,2.342,2.3684,2.3948,2.4261,2.449,2.4646,2.4718,2.4718,2.4909,2.5052,2.5052,2.5194,2.5676,2.6082,2.644,2.6985,2.7577,2.7723,2.7656,2.7868,2.8079,2.8131,2.8249,2.8457,2.8587,2.8522,2.8522,2.8444]}]]